[[{"header":{"parameterUnit":"m.s-1","parameterCategory":1,"la1":30.6,"la2":28.766,"lo1":-90.7593,"lo2":-88.6598,"dy":0.0162,"dx":0.0183,"nx":116,"ny":114,"refTime":"2023-04-10T06:00:00:Z","depth":0,"parameterNumber":2,"parameterNumberName":"U-component_of_WINDS"},"data":[0.0,0.0,0.0,0.0,0.0,0.0,0.0,0.0,0.0,0.0,0.0,0.0,0.0,0.0,0.0,0.0,0.0,0.0,0.0,0.0,0.0,0.0,0.0,0.0,0.0,0.0,0.0,0.0,0.0,0.0,0.0,0.0,0.0,0.0,0.0,0.0,0.0,0.0,0.0,0.0,0.0,0.0,0.0,0.0,0.0,0.0,0.0,0.0,0.0,0.0,0.0,0.0,0.0,0.0,0.0,0.0,0.0,0.0,0.0,0.0,0.0,0.0,0.0,0.0,0.0,0.0,0.0,0.0,0.0,0.0,0.0,0.0,0.0,0.0,0.0,0.0,0.0,0.0,0.0,0.0,0.0,0.0,0.0,0.0,0.0,0.0,0.0,0.0,0.0,0.0,0.0,0.0,0.0,0.0,0.0,0.0,0.0,0.0,0.0,0.0,0.0,0.0,0.0,0.0,0.0,0.0,0.0,0.0,0.0,0.0,0.0,0.0,0.0,0.0,0.0,0.0,0.0,0.0,0.0,0.0,0.0,0.0,0.0,0.0,0.0,0.0,0.0,0.0,0.0,0.0,0.0,0.0,0.0,0.0,0.0,0.0,0.0,0.0,0.0,0.0,0.0,0.0,0.0,0.0,0.0,0.0,0.0,0.0,0.0,0.0,0.0,0.0,0.0,0.0,0.0,0.0,0.0,0.0,0.0,0.0,0.0,0.0,0.0,0.0,0.0,0.0,0.0,0.0,0.0,0.0,0.0,0.0,0.0,0.0,0.0,0.0,0.0,0.0,0.0,0.0,0.0,0.0,0.0,0.0,0.0,0.0,0.0,0.0,0.0,0.0,0.0,0.0,0.0,0.0,0.0,0.0,0.0,0.0,0.0,0.0,0.0,0.0,0.0,0.0,0.0,0.0,0.0,0.0,0.0,0.0,0.0,0.0,0.0,0.0,0.0,0.0,0.0,0.0,0.0,0.0,0.0,0.0,0.0,0.0,0.0,0.0,0.0,0.0,0.0,0.0,0.0,0.0,0.0,0.0,0.0,0.0,0.0,0.0,0.0,0.0,0.0,0.0,0.0,0.0,0.0,0.0,0.0,0.0,0.0,0.0,0.0,0.0,0.0,0.0,0.0,0.0,0.0,0.0,0.0,0.0,0.0,0.0,0.0,0.0,0.0,0.0,0.0,0.0,0.0,0.0,0.0,0.0,0.0,0.0,0.0,0.0,0.0,0.0,0.0,0.0,0.0,0.0,0.0,0.0,0.0,0.0,0.0,0.0,0.0,0.0,0.0,0.0,0.0,0.0,0.0,0.0,0.0,0.0,0.0,0.0,0.0,0.0,0.0,0.0,0.0,0.0,0.0,0.0,0.0,0.0,0.0,0.0,0.0,0.0,0.0,0.0,0.0,0.0,0.0,0.0,0.0,0.0,0.0,0.0,0.0,0.0,0.0,0.0,0.0,0.0,0.0,0.0,0.0,0.0,0.0,0.0,0.0,0.0,0.0,0.0,0.0,0.0,0.0,0.0,0.0,0.0,0.0,0.0,0.0,0.0,0.0,0.0,0.0,0.0,0.0,0.0,0.0,0.0,0.0,0.0,0.0,0.0,0.0,0.0,0.0,0.0,0.0,0.0,0.0,0.0,0.0,0.0,0.0,0.0,0.0,0.0,0.0,0.0,0.0,0.0,0.0,0.0,0.0,0.0,0.0,0.0,0.0,0.0,0.0,0.0,0.0,0.0,0.0,0.0,0.0,0.0,0.0,0.0,0.0,0.0,0.0,0.0,0.0,0.0,0.0,0.0,0.0,0.0,0.0,0.0,0.0,0.0,0.0,0.0,0.0,0.0,0.0,0.0,0.0,0.0,0.0,0.0,0.0,0.0,0.0,0.0,0.0,0.0,0.0,0.0,0.0,0.0,0.0,0.0,0.0,0.0,0.0,0.0,0.0,0.0,0.0,0.0,0.0,0.0,0.0,0.0,0.0,0.0,0.0,0.0,0.0,0.0,0.0,0.0,0.0,0.0,0.0,0.0,0.0,0.0,0.0,0.0,0.0,0.0,0.0,0.0,0.0,0.0,0.0,0.0,0.0,0.0,0.0,0.0,0.0,0.0,0.0,0.0,0.0,0.0,0.0,0.0,0.0,0.0,0.0,0.0,0.0,0.0,0.0,0.0,0.0,0.0,0.0,0.0,0.0,0.0,0.0,0.0,0.0,0.0,0.0,0.0,0.0,0.0,0.0,0.0,0.0,0.0,0.0,0.0,0.0,0.0,0.0,0.0,0.0,0.0,0.0,0.0,0.0,0.0,0.0,0.0,0.0,0.0,0.0,0.0,0.0,0.0,0.0,0.0,0.0,0.0,0.0,0.0,0.0,0.0,0.0,0.0,0.0,0.0,0.0,0.0,0.0,0.0,0.0,0.0,0.0,0.0,0.0,0.0,0.0,0.0,0.0,0.0,0.0,0.0,0.0,0.0,0.0,0.0,0.0,0.0,0.0,0.0,0.0,0.0,0.0,0.0,0.0,0.0,0.0,0.0,0.0,0.0,0.0,0.0,0.0,0.0,0.0,0.0,0.0,0.0,0.0,0.0,0.0,0.0,0.0,0.0,0.0,0.0,0.0,0.0,0.0,0.0,0.0,0.0,0.0,0.0,0.0,0.0,0.0,0.0,0.0,0.0,0.0,0.0,0.0,0.0,0.0,0.0,0.0,0.0,0.0,0.0,0.0,0.0,0.0,0.0,0.0,0.0,0.0,0.0,0.0,0.0,0.0,0.0,0.0,0.0,0.0,0.0,0.0,0.0,0.0,0.0,0.0,0.0,0.0,0.0,0.0,0.0,0.0,0.0,0.0,0.0,0.0,0.0,0.0,0.0,0.0,0.0,0.0,0.0,0.0,0.0,0.0,0.0,0.0,0.0,0.0,0.0,0.0,0.0,0.0,0.0,0.0,0.0,0.0,0.0,0.0,0.0,0.0,0.0,0.0,0.0,0.0,0.0,0.0,0.0,0.0,0.0,0.0,0.0,0.0,0.0,0.0,0.0,0.0,0.0,0.0,0.0,0.0,0.0,0.0,0.0,0.0,0.0,0.0,0.0,0.0,0.0,0.0,0.0,0.0,0.0,0.0,0.0,0.0,0.0,0.0,0.0,0.0,0.0,0.0,0.0,0.0,0.0,0.0,0.0,0.0,0.0,0.0,0.0,0.0,0.0,0.0,0.0,0.0,0.0,0.0,0.0,0.0,0.0,0.0,0.0,0.0,0.0,0.0,0.0,0.0,0.0,0.0,0.0,0.0,0.0,0.0,0.0,0.0,0.0,0.0,0.0,0.0,0.0,0.0,0.0,0.0,0.0,0.0,0.0,0.0,0.0,0.0,0.0,0.0,0.0,0.0,0.0,0.0,0.0,0.0,0.0,0.0,0.0,0.0,0.0,0.0,0.0,0.0,0.0,0.0,0.0,0.0,0.0,0.0,0.0,0.0,0.0,0.0,0.0,0.0,0.0,0.0,0.0,0.0,0.0,0.0,0.0,0.0,0.0,0.0,0.0,0.0,0.0,0.0,0.0,0.0,0.0,0.0,0.0,0.0,0.0,0.0,0.0,0.0,0.0,0.0,0.0,0.0,0.0,0.0,0.0,0.0,0.0,0.0,0.0,0.0,0.0,0.0,0.0,0.0,0.0,0.0,0.0,0.0,0.0,0.0,0.0,0.0,0.0,0.0,0.0,0.0,0.0,0.0,0.0,0.0,0.0,0.0,0.0,0.0,0.0,0.0,0.0,0.0,0.0,0.0,0.0,0.0,0.0,0.0,0.0,0.0,0.0,0.0,0.0,0.0,0.0,0.0,0.0,0.0,0.0,0.0,0.0,0.0,0.0,0.0,0.0,0.0,0.0,0.0,0.0,0.0,0.0,0.0,0.0,0.0,0.0,0.0,0.0,0.0,0.0,0.0,0.0,0.0,0.0,0.0,0.0,0.0,0.0,0.0,0.0,0.0,0.0,0.0,0.0,0.0,0.0,0.0,0.0,0.0,0.0,0.0,0.0,0.0,0.0,0.0,0.0,0.0,0.0,0.0,0.0,0.0,0.0,0.0,0.0,0.0,0.0,0.0,0.0,0.0,0.0,0.0,0.0,0.0,0.0,0.0,0.0,0.0,0.0,0.0,0.0,0.0,0.0,0.0,0.0,0.0,0.0,0.0,0.0,0.0,0.0,0.0,0.0,0.0,0.0,0.0,0.0,0.0,0.0,0.0,0.0,0.0,0.0,0.0,0.0,0.0,0.0,0.0,0.0,0.0,0.0,0.0,0.0,0.0,0.0,0.0,0.0,0.0,0.0,0.0,0.0,0.0,0.0,0.0,0.0,0.0,0.0,0.0,0.0,0.0,0.0,0.0,0.0,0.0,0.0,0.0,0.0,0.0,0.0,0.0,0.0,0.0,0.0,0.0,0.0,0.0,0.0,0.0,0.0,0.0,0.0,0.0,0.0,0.0,0.0,0.0,0.0,0.0,0.0,0.0,0.0,0.0,0.0,0.0,0.0,0.0,0.0,0.0,0.0,0.0,0.0,0.0,0.0,0.0,0.0,0.0,0.0,0.0,0.0,0.0,0.0,0.0,0.0,0.0,0.0,0.0,0.0,0.0,0.0,0.0,0.0,0.0,0.0,0.0,0.0,0.0,0.0,0.0,0.0,0.0,0.0,0.0,0.0,0.0,0.0,0.0,0.0,0.0,0.0,0.0,0.0,0.0,0.0,0.0,0.0,0.0,0.0,0.0,0.0,0.0,0.0,0.0,0.0,0.0,0.0,0.0,0.0,0.0,0.0,0.0,0.0,0.0,0.0,0.0,0.0,0.0,0.0,0.0,0.0,0.0,0.0,0.0,0.0,0.0,0.0,0.0,0.0,0.0,0.0,0.0,0.0,0.0,0.0,0.0,0.0,0.0,0.0,0.0,0.0,0.0,0.0,0.0,0.0,0.0,0.0,0.0,0.0,0.0,0.0,0.0,0.0,0.0,0.0,0.0,0.0,0.0,0.0,0.0,0.0,0.0,0.0,0.0,0.0,0.0,0.0,0.0,0.0,0.0,0.0,0.0,0.0,0.0,0.0,0.0,0.0,0.0,0.0,0.0,0.0,0.0,0.0,0.0,0.0,0.0,0.0,0.0,0.0,0.0,0.0,0.0,0.0,0.0,0.0,0.0,0.0,0.0,0.0,0.0,0.0,0.0,0.0,0.0,0.0,0.0,0.0,0.0,0.0,0.0,0.0,0.0,0.0,0.0,0.0,0.0,0.0,0.0,0.0,0.0,0.0,0.0,0.0,0.0,0.0,0.0,0.0,0.0,0.0,0.0,0.0,0.0,0.0,0.0,0.0,0.0,0.0,0.0,0.0,0.0,0.0,0.0,0.0,0.0,0.0,0.0,0.0,0.0,0.0,0.0,0.0,0.0,0.0,0.0,0.0,0.0,0.0,0.0,0.0,0.0,0.0,0.0,0.0,0.0,0.0,0.0,0.0,0.0,0.0,0.0,0.0,0.0,0.0,0.0,0.0,0.0,0.0,0.0,0.0,0.0,0.0,0.0,0.0,0.0,0.0,0.0,0.0,0.0,0.0,0.0,0.0,0.0,0.0,0.0,0.0,0.0,0.0,0.0,0.0,0.0,0.0,0.0,0.0,0.0,0.0,0.0,0.0,0.0,0.0,0.0,0.0,0.0,0.0,0.0,0.0,0.0,0.0,0.0,0.0,0.0,0.0,0.0,0.0,0.0,0.0,0.0,0.0,0.0,0.0,0.0,0.0,0.0,0.0,0.0,0.0,0.0,0.0,0.0,0.0,0.0,0.0,0.0,0.0,0.0,0.0,0.0,0.0,0.0,0.0,0.0,0.0,0.0,0.0,0.0,0.0,0.0,0.0,0.0,0.0,0.0,0.0,0.0,0.0,0.0,0.0,0.0,0.0,0.0,0.0,0.0,0.0,0.0,0.0,0.0,0.0,0.0,0.0,0.0,0.0,0.0,0.0,0.0,0.0,0.0,0.0,0.0,0.0,0.0,0.0,0.0,0.0,0.0,0.0,0.0,0.0,0.0,0.0,0.0,0.0,0.0,0.0,0.0,0.0,1.7992,1.8135,0.0,0.0,0.0,0.0,0.0,0.0,0.0,0.0,0.0,0.0,0.0,0.0,0.0,0.0,0.0,0.0,0.0,0.0,0.0,0.0,0.0,0.0,0.0,0.0,0.0,0.0,0.0,0.0,0.0,0.0,0.0,0.0,0.0,0.0,0.0,0.0,0.0,0.0,1.9566,2.0613,2.1542,2.1737,2.1835,2.1915,0.0,0.0,0.0,0.0,0.0,0.0,0.0,0.0,0.0,0.0,0.0,0.0,0.0,0.0,0.0,0.0,0.0,0.0,0.0,0.0,0.0,0.0,0.0,0.0,0.0,0.0,0.0,0.0,0.0,0.0,0.0,0.0,0.0,0.0,0.0,0.0,0.0,0.0,0.0,0.0,0.0,0.0,0.0,0.0,0.0,0.0,0.0,0.0,0.0,0.0,0.0,0.0,0.0,0.0,0.0,0.0,0.0,0.0,0.0,0.0,0.0,0.0,0.0,0.0,0.0,0.0,0.0,0.0,0.0,0.0,1.8932,1.8563,0.0,0.0,0.0,0.0,0.0,0.0,0.0,0.0,0.0,0.0,0.0,0.0,0.0,0.0,0.0,0.0,0.0,0.0,0.0,0.0,0.0,0.0,0.0,1.6837,1.7274,1.9645,1.9027,1.8143,0.0,0.0,0.0,0.0,0.0,0.0,0.0,1.7368,1.7598,1.7894,1.8973,2.0365,2.2012,2.2344,2.2324,2.2031,2.2693,0.0,0.0,0.0,0.0,0.0,0.0,0.0,0.0,0.0,0.0,0.0,0.0,0.0,0.0,0.0,0.0,0.0,0.0,0.0,0.0,0.0,0.0,0.0,0.0,0.0,0.0,0.0,0.0,0.0,0.0,0.0,0.0,0.0,0.0,0.0,0.0,0.0,0.0,0.0,0.0,0.0,0.0,0.0,0.0,0.0,0.0,0.0,0.0,0.0,0.0,0.0,0.0,0.0,0.0,0.0,0.0,0.0,0.0,0.0,0.0,0.0,0.0,0.0,1.9669,1.9977,2.0187,2.0397,2.0964,2.1633,1.9932,1.9113,1.8959,1.8986,0.0,0.0,0.0,0.0,0.0,0.0,0.0,0.0,0.0,0.0,0.0,0.0,0.0,0.0,0.0,0.0,0.0,0.0,0.0,0.0,0.0,1.397,1.4797,1.6708,1.6749,1.6601,1.6432,0.0,0.0,0.0,0.0,0.0,1.67,1.761,1.8158,1.8319,2.0479,2.1829,2.242,2.248,2.2459,2.2441,2.2518,2.2771,2.3081,0.0,0.0,0.0,0.0,0.0,0.0,0.0,0.0,0.0,0.0,0.0,0.0,0.0,0.0,0.0,0.0,0.0,0.0,0.0,0.0,0.0,0.0,0.0,0.0,0.0,0.0,0.0,0.0,0.0,0.0,0.0,0.0,0.0,0.0,0.0,0.0,0.0,0.0,0.0,0.0,0.0,1.7796,1.7809,0.0,0.0,0.0,0.0,0.0,0.0,0.0,0.0,0.0,0.0,0.0,0.0,0.0,1.8891,1.9214,1.9977,2.0374,2.0485,2.1256,2.1689,2.1697,2.1737,2.1969,2.2289,2.2016,0.0,2.0857,2.0956,0.0,0.0,0.0,0.0,0.0,0.0,0.0,0.0,0.0,0.0,0.0,0.0,0.0,0.0,0.0,0.0,0.0,0.0,0.0,0.0,0.0,1.5949,1.6703,1.8237,1.8456,1.8498,1.8498,1.7986,0.0,0.0,0.0,1.6308,1.5717,1.6836,1.8202,1.9808,2.1248,2.2394,2.3223,2.3223,2.3359,2.353,2.2545,2.2479,2.3101,2.3101,0.0,0.0,0.0,0.0,0.0,0.0,0.0,0.0,0.0,0.0,0.0,0.0,0.0,0.0,0.0,0.0,0.0,0.0,0.0,0.0,0.0,0.0,0.0,0.0,0.0,0.0,0.0,0.0,0.0,0.0,0.0,0.0,0.0,0.0,0.0,0.0,0.0,0.0,0.0,1.7969,1.8449,1.8303,1.8584,1.8611,0.0,0.0,0.0,0.0,0.0,0.0,0.0,0.0,0.0,2.0374,2.0561,2.0949,2.159,2.1977,2.2338,2.2659,2.3046,2.3313,2.3474,2.3474,2.3541,2.3625,2.3625,2.3357,2.2818,2.1689,2.0593,1.9583,0.0,0.0,0.0,0.0,1.9517,1.9677,0.0,0.0,0.0,0.0,0.0,0.0,0.0,0.0,0.0,0.0,0.0,0.0,1.7104,1.7474,1.8292,2.0071,2.0316,2.038,2.038,1.9613,1.8464,1.6979,1.6892,1.6504,1.5699,1.728,1.9179,2.1331,2.2199,2.3062,2.3945,2.3945,2.3939,2.382,2.2529,2.2272,2.2774,2.2422,2.2353,2.2468,0.0,0.0,0.0,0.0,0.0,0.0,0.0,0.0,0.0,0.0,0.0,0.0,0.0,0.0,0.0,0.0,0.0,0.0,0.0,0.0,0.0,0.0,0.0,0.0,0.0,0.0,0.0,0.0,0.0,0.0,0.0,0.0,0.0,0.0,0.0,0.0,0.0,1.8918,1.9316,1.8985,1.9586,1.9776,0.0,0.0,0.0,0.0,0.0,0.0,2.0512,2.0975,2.1617,2.2465,2.2693,2.314,2.3839,2.3968,2.4222,2.4649,2.473,2.4877,2.5053,2.5053,2.5053,2.5053,2.5053,2.4877,2.4382,2.2472,2.1376,2.0842,2.0298,2.007,2.0124,2.0521,2.0691,2.0824,0.0,0.0,0.0,0.0,0.0,0.0,0.0,0.0,0.0,0.0,0.0,1.4282,1.5825,1.6226,1.7589,2.0595,2.0862,2.0862,2.0862,2.1053,1.9961,1.7304,1.7483,1.7616,1.757,2.0302,2.1977,2.2514,2.3689,2.4306,2.4352,2.4352,2.3704,2.251,2.2421,2.2234,2.1966,2.0638,2.0349,2.0757,1.9979,0.0,0.0,0.0,0.0,0.0,0.0,0.0,0.0,0.0,0.0,0.0,0.0,0.0,0.0,0.0,0.0,0.0,0.0,0.0,0.0,0.0,0.0,0.0,0.0,0.0,0.0,0.0,0.0,0.0,0.0,0.0,0.0,0.0,0.0,0.0,0.0,0.0,0.0,2.0184,2.1162,0.0,0.0,0.0,0.0,2.1823,2.2385,2.2974,2.3549,2.3834,2.4275,2.4877,2.4954,2.5077,2.5398,2.573,2.5877,2.5917,2.6185,2.6293,2.6306,2.6306,2.6306,2.6306,2.6306,2.5972,2.5331,2.3799,2.302,2.2706,2.2084,2.1857,2.1857,2.1884,2.2071,2.2278,0.0,0.0,0.0,0.0,0.0,0.0,0.0,0.0,1.3767,1.3648,1.3961,1.4827,1.6556,1.7555,1.9068,2.1406,2.2042,2.2114,2.1639,2.0699,1.9362,1.7597,1.7056,1.7784,1.9894,2.1548,2.3262,2.5056,2.5174,2.4933,2.4337,2.4239,2.3498,2.2173,2.1297,2.0749,2.0415,2.006,2.0016,2.0155,1.9666,1.9663,0.0,0.0,0.0,0.0,0.0,0.0,0.0,0.0,0.0,0.0,0.0,0.0,0.0,0.0,0.0,0.0,0.0,0.0,0.0,0.0,0.0,0.0,0.0,0.0,0.0,0.0,0.0,0.0,0.0,0.0,0.0,0.0,0.0,0.0,0.0,0.0,0.0,2.2185,2.3052,0.0,2.2812,2.3073,2.338,2.3639,2.4235,2.4823,2.5424,2.5732,2.6066,2.6519,2.6533,2.6573,2.664,2.6787,2.6841,2.6841,2.6948,2.6988,2.6988,2.6988,2.6988,2.6988,2.6988,2.6881,2.6587,2.5865,2.485,2.3688,2.3322,2.3174,2.3188,2.334,2.3474,2.3594,0.0,0.0,0.0,0.0,0.0,0.0,0.0,0.0,1.3847,1.4055,1.4782,1.5921,1.7662,1.8974,2.0443,2.2224,2.2463,2.2295,2.1789,2.0337,1.8948,1.7754,1.7792,1.9188,2.2048,2.3275,2.4602,2.6066,2.5623,2.4824,2.3686,2.3609,2.283,2.1534,2.0632,1.9847,1.9216,1.925,1.9257,1.9186,1.8637,1.8637,1.8783,0.0,0.0,0.0,0.0,0.0,0.0,0.0,0.0,0.0,0.0,0.0,0.0,0.0,0.0,0.0,0.0,0.0,0.0,0.0,0.0,0.0,0.0,0.0,0.0,0.0,0.0,0.0,0.0,0.0,0.0,0.0,0.0,0.0,0.0,2.2645,2.3794,2.3901,2.505,2.5625,2.513,2.5451,2.5772,2.592,2.6387,2.6921,2.7415,2.7615,2.7816,2.8045,2.8058,2.8005,2.7869,2.7869,2.7869,2.7869,2.7869,2.7816,2.7764,2.7764,2.7697,2.7603,2.7603,2.755,2.7443,2.7201,2.6373,2.5197,2.4847,2.4686,2.4713,2.4877,2.4943,2.497,0.0,0.0,0.0,0.0,0.0,0.0,0.0,1.3734,1.4129,1.4129,1.572,1.7429,1.8952,2.0215,2.1531,2.2969,2.2002,2.1297,2.1208,2.0087,1.8941,1.7799,1.9741,2.182,2.3929,2.5545,2.6078,2.5451,2.4984,2.3974,2.2461,2.2445,2.1722,2.0439,2.0439,1.973,1.8477,1.8156,1.7979,1.7819,1.6763,1.6943,1.7722,0.0,0.0,0.0,0.0,0.0,0.0,0.0,0.0,0.0,0.0,0.0,0.0,0.0,0.0,0.0,0.0,0.0,0.0,0.0,0.0,0.0,0.0,0.0,0.0,0.0,0.0,0.0,0.0,0.0,0.0,0.0,0.0,0.0,2.3081,2.4476,2.5491,2.5302,2.7041,2.7924,2.7,2.8003,2.8684,2.8684,2.8895,2.9175,2.9526,2.9526,2.9513,2.9513,2.9499,2.9352,2.9028,2.9028,2.9028,2.9028,2.9028,2.8868,2.8631,2.8631,2.847,2.8219,2.8205,2.8031,2.7722,2.7722,2.7549,2.7282,2.664,2.6413,2.6413,2.6413,2.6413,2.6413,0.0,0.0,0.0,0.0,0.0,0.0,0.0,1.4162,1.4482,1.4718,1.6405,1.8164,1.9672,2.1205,2.2371,2.2984,2.228,2.1125,1.9519,1.8652,1.8424,1.8913,2.0635,2.2868,2.5582,2.5896,2.6227,2.6637,2.481,2.3222,2.1833,2.1505,2.0613,1.9346,1.9346,1.9135,1.8756,1.849,1.8333,1.8235,1.7322,1.7128,1.7314,0.0,0.0,0.0,0.0,0.0,0.0,0.0,0.0,0.0,0.0,0.0,0.0,0.0,0.0,0.0,0.0,0.0,0.0,0.0,0.0,0.0,0.0,0.0,0.0,0.0,0.0,0.0,0.0,0.0,0.0,0.0,2.5155,2.6065,2.5262,2.6253,2.7468,2.847,2.9316,2.9864,2.9993,3.0127,3.0274,3.0488,3.0381,3.0434,3.0728,3.0341,3.0159,3.0159,2.9913,2.9753,2.9628,2.9628,2.9628,2.9628,2.9628,2.9526,2.9245,2.9245,2.9072,2.8778,2.8577,2.843,2.8337,2.8152,2.8018,2.7884,2.7296,2.7068,2.7068,2.7068,2.7068,2.7068,0.0,0.0,0.0,0.0,0.0,0.0,0.0,1.4442,1.4962,1.5667,1.7545,1.9346,2.0731,2.2206,2.295,2.2606,2.1678,2.0309,1.8405,1.8426,1.8818,1.9574,2.1647,2.3584,2.5339,2.5384,2.5423,2.5436,2.3873,2.2409,2.1,2.0728,2.0194,1.9437,1.9437,1.9437,1.9437,1.9292,1.9225,1.9172,1.8545,1.8063,1.7689,1.726,1.7235,1.7435,1.7289,1.7462,1.7756,1.7582,0.0,0.0,0.0,0.0,0.0,0.0,0.0,0.0,0.0,0.0,0.0,0.0,0.0,0.0,0.0,0.0,0.0,0.0,0.0,0.0,0.0,0.0,0.0,0.0,2.7416,2.8553,2.8406,2.8831,2.9539,3.0528,3.1069,3.1457,3.1744,3.1623,3.1543,3.1597,3.1436,3.141,3.1583,3.1276,3.1089,3.1089,3.0929,3.0768,3.0648,3.0648,3.0648,3.0648,3.0528,3.0314,3.0034,2.9958,2.9686,2.9348,2.9098,2.8978,2.8951,2.8644,2.8524,2.85,0.0,0.0,0.0,0.0,2.767,2.767,0.0,0.0,0.0,0.0,0.0,0.0,0.0,1.4625,1.5456,1.6683,1.8799,2.0636,2.1864,2.3146,2.3385,2.2013,2.0744,1.9375,1.7841,1.883,1.9664,2.0128,2.2549,2.4015,2.4289,2.4503,2.4144,2.3171,2.2571,2.1583,2.025,2.0224,2.0197,2.0197,2.0197,2.0197,2.0197,2.0197,2.0197,2.0184,1.9947,1.9359,1.8571,1.8023,1.8143,1.8557,1.8263,1.8209,1.8235,1.8195,0.0,0.0,0.0,0.0,0.0,0.0,0.0,0.0,0.0,0.0,0.0,0.0,0.0,0.0,0.0,0.0,0.0,0.0,0.0,0.0,0.0,0.0,0.0,0.0,2.9704,3.0962,3.1845,3.1717,3.1637,3.1845,3.2326,3.2661,3.2688,3.2688,3.2581,3.2265,3.2225,3.2198,3.2198,3.2171,0.0,0.0,0.0,3.2024,3.1818,3.1818,3.1818,3.1818,3.1503,3.1223,3.0929,3.0721,3.0381,3.0047,2.9753,2.9606,2.9566,2.9259,2.9081,2.8988,2.8513,2.8286,2.8286,2.8286,2.8259,2.8232,0.0,0.0,0.0,0.0,0.0,0.0,0.0,1.4758,1.5502,1.6937,1.9174,2.0996,2.19,2.3681,2.3866,2.1412,2.0949,1.9987,1.8082,1.8427,1.9569,2.1518,2.2658,2.3938,2.546,2.4594,2.3913,2.3515,2.1852,2.0896,2.0619,2.0347,2.0197,2.0197,2.0197,2.0197,2.0197,2.0197,2.0197,2.0197,2.0144,1.9877,1.9506,1.9187,1.912,1.9227,1.916,1.9412,1.9743,1.9503,1.9543,1.961,1.9201,1.9053,0.0,0.0,0.0,0.0,0.0,0.0,0.0,0.0,0.0,0.0,0.0,0.0,0.0,0.0,0.0,0.0,0.0,0.0,0.0,3.0034,3.1363,3.2487,3.3334,3.3614,3.3467,3.2799,3.2826,3.2986,3.3213,3.324,3.3213,3.316,3.2946,3.2812,3.2812,3.2634,3.2514,3.2514,3.2514,3.2487,3.2433,3.2433,3.2433,3.242,3.2367,0.0,3.1851,3.1784,3.1476,3.0909,3.0662,3.0408,3.0212,2.9873,2.9606,2.9366,2.9005,2.8871,2.8871,2.8871,2.8724,2.8524,0.0,0.0,0.0,0.0,0.0,0.0,0.0,1.5909,1.6802,1.8808,2.0434,2.155,2.1951,2.2922,2.251,1.9869,1.9313,1.8994,1.8721,1.9904,2.0955,2.177,2.3047,2.3793,2.3911,2.3303,2.2932,2.2808,2.1838,2.1368,2.1355,2.1176,2.1109,2.1109,2.1109,2.1109,2.1109,2.1109,2.1109,2.1109,2.1109,2.1029,2.0828,2.0271,2.0137,2.0281,2.0605,2.0869,2.1109,2.1109,2.1109,2.1056,2.0806,2.0712,2.0565,0.0,0.0,0.0,0.0,0.0,0.0,0.0,0.0,0.0,0.0,0.0,0.0,0.0,0.0,2.7015,2.8205,0.0,3.0742,3.1931,3.2986,3.3865,3.432,3.4576,3.4482,3.3734,3.3654,3.3708,3.3855,3.3868,3.3868,3.3868,3.3734,3.3654,3.3654,3.3374,3.3263,3.3263,3.3116,3.2973,3.2973,3.2973,3.2973,3.2973,3.2875,3.2728,3.2532,3.2385,3.2206,3.1864,3.157,3.1289,3.1029,3.0541,3.0181,2.9972,2.9913,2.9508,2.9001,2.9001,2.8908,2.8761,0.0,0.0,0.0,0.0,0.0,0.0,0.0,1.7272,1.839,2.0684,2.1352,2.169,2.1848,2.1718,2.0763,1.8607,1.7834,1.8036,1.9468,2.134,2.2215,2.1861,2.3318,2.3539,2.2278,2.2245,2.2218,2.2151,2.2151,2.2151,2.2151,2.2151,2.2151,2.2151,2.2151,2.2151,2.2151,2.2151,2.2151,2.2151,2.2151,2.2191,2.2178,2.1555,2.1309,2.143,2.1964,2.2124,2.2111,2.2405,2.2392,2.2258,2.2311,2.2405,2.2338,2.1555,2.1857,0.0,0.0,0.0,0.0,0.0,0.0,0.0,0.0,2.4449,2.5424,2.676,2.8045,2.9369,3.0702,3.1824,3.2826,3.367,3.4509,3.5083,3.5097,3.5351,3.5364,3.4883,3.4629,3.4469,3.4416,3.4402,3.4389,3.4322,3.4322,3.4322,3.4322,3.4095,3.3975,3.3975,3.3721,3.3587,3.3587,3.3587,3.3561,3.3494,3.3267,3.312,3.3053,3.2875,3.2728,3.2661,3.2318,3.2051,3.1845,3.1209,3.0868,3.0667,3.0742,3.0221,2.9322,2.9268,2.9175,2.9055,0.0,0.0,0.0,0.0,0.0,0.0,0.0,0.0,1.9468,2.1042,2.0698,2.0582,2.1302,2.0727,1.9932,1.901,1.8568,1.8851,2.0024,2.0836,2.1703,2.2706,2.2943,2.3092,2.3132,2.3145,2.3046,2.28,2.28,2.28,2.28,2.28,2.28,2.28,2.28,2.28,2.28,2.28,2.28,2.28,2.28,2.2926,2.3193,2.3402,2.2939,2.2311,2.2679,2.2592,2.2418,2.2746,2.2979,2.322,2.3487,2.3928,2.4186,2.3607,2.3174,2.2746,2.2298,2.2652,2.3425,2.4449,2.4957,2.5825,0.0,2.839,2.8591,3.0287,3.1183,3.1957,3.287,3.3627,3.4362,3.5191,3.5685,3.6019,3.6273,3.6525,3.6659,3.6592,3.5725,3.5004,3.4788,3.471,3.4603,3.4336,3.4322,3.4322,3.4322,3.4282,3.4269,3.4269,3.4242,3.4215,3.4215,3.4215,3.4082,3.3828,3.3801,3.3641,3.336,3.3334,3.3173,3.2969,3.2674,3.2527,3.2447,3.1858,3.1604,3.1524,3.0982,3.0715,3.0568,3.0346,2.9887,2.9432,0.0,0.0,0.0,0.0,0.0,0.0,0.0,0.0,0.0,2.1221,2.1,2.0377,1.933,1.8425,1.7824,1.7663,1.832,1.9239,2.0414,2.1363,2.2325,2.3375,2.3429,2.3496,2.3581,2.3754,2.3768,2.3683,2.3808,2.3888,2.3888,2.3728,2.3683,2.3718,2.4897,2.4757,2.3754,2.5109,2.5002,2.3888,2.3888,2.4075,2.4342,2.4289,2.4035,2.3639,2.3509,2.3207,0.0,2.3086,2.3447,2.3888,2.4182,2.4329,2.4332,2.4302,2.4088,2.4022,2.4583,2.517,2.5732,2.6265,2.7348,2.8577,2.9526,3.0074,3.0795,3.2211,3.3253,3.4122,3.4843,3.5311,3.5765,3.6245,3.6647,3.6874,3.6981,3.7422,3.7529,3.6952,3.6647,3.6286,3.5819,3.5778,3.5658,3.5364,3.5338,3.5338,3.5338,3.5017,3.483,3.483,3.4496,3.4322,3.4322,3.4322,3.4255,3.4135,3.4135,3.3975,3.3694,3.3694,3.3521,3.3213,3.2969,3.2848,3.2795,3.2158,3.1824,3.1684,3.1396,3.1089,3.0755,3.052,3.0253,2.9985,0.0,0.0,0.0,0.0,0.0,0.0,0.0,0.0,0.0,0.0,2.0724,1.9552,1.7537,1.6718,1.6444,1.6819,1.8036,1.9305,2.0481,2.1643,2.2779,2.3848,2.4084,2.4245,2.4405,2.4663,2.481,2.481,2.5024,2.5117,2.5079,2.4823,2.4972,2.5584,2.6975,2.7076,2.6321,2.7451,2.7136,2.5768,2.5221,2.517,2.5398,2.4986,2.4746,2.4519,2.3981,2.3527,2.3193,2.3193,2.3541,2.4022,2.4359,2.4489,2.4516,2.489,2.4997,2.5224,2.6239,2.7054,2.7777,2.8179,2.9717,3.1109,3.1022,3.1797,3.2826,3.3921,3.483,3.5645,3.6313,3.662,3.6874,3.7235,3.7555,3.7742,3.7742,3.8093,3.8254,3.8114,3.7559,3.7286,3.7551,3.7005,3.654,3.6326,3.6313,3.6313,3.6313,3.5832,3.5551,3.5551,3.507,3.4803,3.4803,3.4723,3.4643,3.4563,3.4482,3.4295,3.4002,3.3921,3.3761,3.3521,3.3227,3.3093,3.3053,3.2545,3.2225,3.2059,3.1898,3.153,3.1102,3.0742,3.0547,3.036,0.0,0.0,0.0,0.0,0.0,0.0,0.0,0.0,0.0,0.0,0.0,0.0,0.0,1.6321,1.6538,1.7139,1.7996,1.8998,2.0144,2.1349,2.2659,2.4128,2.4743,2.5342,2.5917,2.6212,2.6319,2.6319,2.6333,2.6333,2.6333,2.6078,2.7,2.8857,2.8642,2.961,3.1256,2.9365,2.8702,2.8697,2.6744,2.6131,2.6293,2.5705,2.5093,2.4519,2.3981,2.3415,2.2907,2.2907,2.3086,2.3425,2.4035,2.4596,2.5208,2.5784,2.5957,2.6091,2.664,2.7669,2.8911,3.0327,3.1797,3.3053,3.3627,3.4229,3.4858,3.5805,3.6073,3.6313,3.7195,3.7342,3.7585,3.8174,3.8477,3.8691,3.8691,3.8437,3.899,4.0859,3.8361,3.7537,4.0051,3.825,3.6885,3.6901,3.6901,3.6901,3.6901,3.662,3.6473,3.6473,3.6179,3.6073,3.6073,3.5738,3.5444,3.5164,3.4883,3.4589,3.4295,3.4015,3.3881,3.3855,3.3534,3.34,3.3374,3.308,3.2946,3.2879,3.2305,3.2078,3.1998,3.141,3.0849,3.044,0.0,0.0,0.0,0.0,0.0,0.0,0.0,0.0,0.0,0.0,0.0,0.0,0.0,0.0,0.0,0.0,1.7996,1.8905,1.988,2.1229,2.2472,2.3581,2.4743,2.5464,2.5651,2.6333,2.668,2.668,2.6881,2.7015,2.7001,2.8177,2.9066,2.9832,3.2538,3.3415,3.2809,3.3669,3.2494,2.9897,2.8803,2.7712,2.6573,2.5598,2.4743,2.3955,0.0,2.2498,2.1997,2.1764,2.2031,2.2539,2.3161,2.3482,2.3843,2.4796,2.5905,2.7122,2.827,2.9726,3.1183,3.2265,3.3788,3.5084,3.5284,3.5792,3.6232,3.658,3.65,3.6433,3.6754,3.6794,3.7048,3.7849,3.8397,3.874,3.8913,3.9207,3.9129,3.8418,3.9374,3.9396,3.7709,3.7006,3.6794,3.7195,3.7235,3.7301,3.7459,3.7235,3.6981,3.6794,3.6513,3.6273,3.6072,3.5979,3.5778,3.5471,3.499,3.4762,3.4603,3.4309,3.4068,3.3881,3.3774,3.3601,3.3387,3.3093,3.2973,3.2933,3.2594,3.2447,3.2393,3.1957,3.1557,3.1229,0.0,0.0,0.0,0.0,0.0,0.0,0.0,0.0,0.0,0.0,0.0,0.0,0.0,0.0,0.0,0.0,0.0,1.8704,1.9586,2.0722,2.1857,2.2918,2.4008,2.4663,2.489,2.5438,2.5838,2.6,2.644,2.6787,2.7028,2.9091,3.0399,3.1246,3.4585,3.5761,3.5177,3.5111,3.354,3.084,2.881,2.721,2.5893,2.4863,2.3968,0.0,2.2271,2.1643,2.1248,2.1015,2.1269,2.179,2.2485,2.3207,2.4022,2.5066,2.66,2.8297,3.0132,3.1637,3.3,3.4095,3.5458,3.6868,3.7918,3.8388,3.8874,3.989,3.8929,3.8089,3.8923,3.826,3.8132,3.9828,3.9715,3.9693,4.0345,3.9528,3.9239,4.0137,4.0925,4.0877,3.9494,3.862,3.7949,3.7574,3.8717,3.9036,3.8174,3.7956,3.7702,3.7422,3.7128,3.6874,3.6687,3.6473,3.6179,3.5778,3.5297,3.507,3.5057,3.4656,3.4376,3.4189,3.3975,3.3774,3.3561,3.3253,3.3133,3.3106,3.2862,3.2755,3.2714,3.2372,3.2193,3.1952,0.0,0.0,0.0,0.0,0.0,0.0,0.0,0.0,0.0,0.0,0.0,0.0,0.0,0.0,0.0,0.0,0.0,0.0,1.9267,1.9853,2.0815,2.2345,2.2781,2.3286,2.3949,2.399,2.4287,2.4767,2.537,2.5936,2.6594,2.8914,3.1028,3.2945,3.4729,3.6607,3.818,3.3998,3.2085,3.1518,2.7113,2.5009,2.4439,2.3585,2.2913,2.2271,2.1443,2.0962,2.0726,2.0753,2.1056,2.1577,2.2345,2.4161,2.6119,2.6933,2.8323,3.0113,3.2504,3.3819,3.489,3.6274,3.729,3.8695,4.1576,4.2096,4.2638,4.5152,4.2736,4.0845,4.2877,4.1146,4.0475,4.3526,4.2419,4.1601,4.2926,3.9954,3.9748,4.5594,4.3226,4.2267,4.5092,4.3069,4.0576,3.8278,4.0974,4.169,3.9151,3.8829,3.8624,3.8348,3.7996,3.7849,3.7809,3.7235,3.6687,3.6112,3.5819,3.5605,3.5551,3.5057,3.4842,3.4788,3.4175,3.3921,3.3868,3.3561,3.3427,3.3387,3.3106,3.3,3.3009,3.2728,3.2621,3.2541,0.0,0.0,0.0,0.0,0.0,0.0,0.0,0.0,0.0,0.0,0.0,0.0,0.0,0.0,0.0,0.0,0.0,0.0,1.8329,1.9145,2.047,2.2405,2.3598,2.4933,2.6366,2.6836,2.7137,2.727,2.7453,2.7778,2.8299,3.0502,3.199,3.2911,3.4967,3.6155,3.6591,3.5464,3.323,3.0329,2.8886,2.6437,2.3572,2.3153,2.2505,2.181,2.1764,2.143,2.1029,2.1288,2.3426,2.5818,2.5244,2.8371,3.2299,3.2327,3.4939,3.8282,4.0203,4.1745,4.3073,4.4004,4.4719,4.5432,4.6195,4.6024,4.5008,4.272,4.0421,3.8262,3.6149,3.7431,3.9441,4.1312,4.3977,4.6325,4.7517,4.7007,4.6796,4.7534,4.8713,4.8789,4.6897,4.7934,4.684,4.231,4.0419,4.0456,4.276,4.064,3.9132,3.8611,3.8544,3.8233,3.7809,3.7448,3.7088,3.6672,3.6433,3.6059,3.5631,3.5471,3.5177,3.4802,3.4655,3.4347,3.3881,3.3801,3.3627,3.34,3.3334,3.3293,3.3267,3.2973,3.2915,3.2862,0.0,0.0,0.0,0.0,0.0,0.0,0.0,0.0,0.0,0.0,0.0,0.0,0.0,0.0,0.0,0.0,0.0,0.0,0.0,2.0277,2.1229,2.266,2.3376,2.4251,2.5377,2.5987,2.631,2.6407,2.7019,2.7501,2.7905,3.0236,3.1488,3.1854,3.3918,3.45,3.3852,3.2796,3.0587,0.0,0.0,2.45,2.2338,2.2164,2.1903,2.1622,2.1917,2.3122,2.4953,2.6758,2.8103,2.8987,2.9159,3.2579,3.666,3.746,3.9909,4.2681,4.4378,4.5828,4.6972,4.7334,4.7756,4.8128,4.8318,4.7225,4.5613,4.3375,4.0143,3.7636,3.7344,3.7721,3.9532,4.4127,4.6051,4.7928,5.0669,5.0077,4.9848,5.1044,5.23,5.2369,5.0682,5.1592,5.1219,4.8584,4.362,4.1196,4.2202,4.0643,3.9599,3.9118,3.906,3.8838,3.821,3.7929,3.7595,3.7301,3.6845,3.6485,3.6138,3.5939,3.5578,3.5137,3.5004,3.4748,3.4269,3.4135,3.3975,3.3801,3.3668,3.3614,3.3587,3.328,3.3173,3.3146,0.0,0.0,0.0,0.0,0.0,0.0,0.0,0.0,0.0,0.0,2.0161,0.0,0.0,0.0,0.0,0.0,0.0,0.0,0.0,0.0,2.2399,2.3139,2.2901,2.2981,2.3509,2.4042,2.4379,2.4574,2.585,2.6594,2.6867,2.9133,3.0216,3.0366,3.1904,3.1872,3.0542,2.8298,2.6312,2.4534,2.2588,2.1506,2.1087,0.0,2.1633,2.2056,2.2723,2.5792,3.0066,3.3905,3.3893,3.2552,3.4005,3.7315,4.1019,4.2785,4.4416,4.5994,4.7517,4.8622,4.9386,4.9326,4.935,4.944,4.9716,4.7564,4.5397,4.4929,4.0663,3.796,4.1089,3.9799,4.0805,4.8699,4.8478,4.8908,5.3413,5.194,5.1696,5.538,5.505,5.474,5.5416,5.453,5.4177,5.4788,4.8657,4.387,4.1666,4.1398,4.0995,4.0306,3.9864,3.9346,3.8838,3.8584,3.8321,3.7929,3.7408,3.7032,3.6885,3.6433,3.6006,3.5672,3.5418,3.5124,3.4855,3.4549,3.4389,3.4295,3.4042,3.3921,3.3855,3.3574,3.3454,3.3414,0.0,0.0,0.0,0.0,0.0,0.0,0.0,0.0,0.0,0.0,2.2424,2.127,0.0,0.0,0.0,0.0,0.0,0.0,0.0,0.0,0.0,2.4004,2.402,2.4721,2.6267,2.6788,2.7036,2.7085,2.7657,2.8114,2.8483,2.8964,2.9354,2.97,2.8768,2.8217,2.7878,2.6236,2.4597,2.3067,2.2926,2.2001,2.0931,2.2553,0.0,0.0,2.7065,2.9385,3.1645,3.58,3.877,4.069,4.0532,4.4768,4.9688,4.9147,5.1311,5.4073,5.5069,5.5774,5.6253,5.6579,5.5894,5.4992,5.4359,5.0581,4.619,4.2587,3.9837,3.7606,3.6146,3.9732,4.424,4.8214,5.1607,5.4855,5.8185,5.8193,5.829,5.9359,5.9339,5.9281,5.9397,5.6992,5.5493,5.5598,5.2048,5.0445,5.1837,4.95,4.6803,4.3915,4.1044,3.9559,3.9452,3.9386,3.9092,3.8513,3.8464,3.7889,3.6885,3.6779,3.65,3.5992,3.5939,3.5618,3.5124,3.507,3.4763,3.4322,3.4269,3.4095,3.3881,3.3828,3.3641,3.3414,0.0,0.0,0.0,0.0,0.0,0.0,0.0,2.4121,2.4434,2.5332,2.4967,2.398,2.2394,2.2188,2.2302,0.0,0.0,0.0,0.0,0.0,0.0,0.0,2.5032,2.5425,2.6298,2.7233,2.7585,2.7324,0.0,2.8613,2.8594,2.8594,2.8311,2.7751,2.7012,2.587,2.4499,2.3776,2.2673,2.1435,2.173,2.2034,2.2436,0.0,0.0,0.0,3.0532,3.2872,3.4869,3.8586,4.2407,4.5645,4.5833,4.9199,5.3177,5.351,5.5017,5.6797,5.7656,5.8203,5.8496,5.8262,5.7207,5.527,5.1663,4.8359,4.4677,3.9834,3.8086,3.743,3.7457,3.9672,4.3052,4.7966,5.0385,5.3348,5.8155,5.9004,5.9629,6.0899,6.0898,6.0859,6.1074,5.9571,5.855,5.855,5.7194,5.444,5.0195,4.6763,4.4193,4.2555,4.0738,3.9813,3.9813,3.9666,3.9452,3.9159,3.8865,3.8379,3.7849,3.7529,3.7088,3.6513,3.6513,3.6193,3.5658,3.5658,3.5391,3.499,3.483,3.4603,3.4322,3.4175,3.3921,3.3654,0.0,0.0,0.0,0.0,0.0,0.0,0.0,2.4863,2.5171,2.6621,2.709,2.6589,2.4775,2.414,2.3932,0.0,0.0,0.0,0.0,0.0,0.0,0.0,0.0,0.0,2.5854,0.0,0.0,2.7148,2.8242,0.0,0.0,0.0,0.0,0.0,2.5494,2.4079,2.2096,2.1745,2.1119,0.0,0.0,2.2286,2.4035,0.0,0.0,0.0,0.0,3.5666,3.7574,4.0955,4.4375,4.7451,4.8809,5.1505,5.4433,5.5781,5.6738,5.7519,5.8301,5.8828,5.9004,5.8203,5.6836,5.4105,4.8287,4.5183,4.226,3.7845,3.6744,3.7365,3.9968,4.0411,4.232,4.8065,4.8974,5.1024,5.6936,5.8262,5.9414,6.1484,6.1601,6.1601,6.1836,6.1543,6.1328,6.1269,6.0535,5.65,4.8225,4.4411,4.2166,4.153,4.0589,4.0087,4.0087,3.9893,3.9746,3.968,3.9239,3.8886,3.8798,3.825,3.7702,3.7179,3.7099,3.6834,3.6353,3.6286,3.6046,3.5698,3.5404,3.507,3.4788,3.4496,3.4229,3.3975,0.0,0.0,0.0,0.0,0.0,0.0,0.0,2.5371,2.6186,2.7891,2.8144,2.7962,2.7389,2.691,2.6323,0.0,0.0,0.0,0.0,0.0,0.0,0.0,0.0,0.0,0.0,0.0,0.0,2.7643,2.8132,0.0,0.0,0.0,0.0,0.0,0.0,2.2418,2.2379,2.0958,0.0,0.0,0.0,0.0,0.0,0.0,0.0,0.0,0.0,3.6821,3.787,4.1699,4.3476,4.4606,4.7425,5.1212,5.4648,5.4805,5.625,5.791,5.8363,5.8828,5.9062,5.8594,5.6621,5.3596,4.8928,4.3844,3.9548,3.7793,3.6883,3.7318,4.0289,4.3154,4.6034,4.897,5.0386,5.2521,5.6685,5.832,5.9765,6.1484,6.2343,6.2695,6.2363,6.2305,6.207,6.166,5.8689,5.6072,5.4311,5.0863,4.7641,4.4743,4.1897,4.0441,4.0441,4.0401,4.0254,3.994,3.992,3.9567,3.906,3.874,3.8464,3.8174,3.7849,3.7555,3.7235,3.6981,3.654,3.6006,3.5698,3.5244,3.4815,3.4788,3.4536,3.4282,0.0,0.0,0.0,0.0,0.0,0.0,2.561,2.5566,2.623,2.8758,2.8828,2.8613,2.8437,2.8047,2.7226,2.581,0.0,0.0,0.0,0.0,0.0,0.0,0.0,0.0,0.0,0.0,2.7363,2.8073,2.8203,0.0,0.0,0.0,0.0,0.0,0.0,2.2884,2.143,2.1811,0.0,0.0,0.0,0.0,0.0,0.0,0.0,0.0,0.0,0.0,3.7988,4.0059,4.1719,4.3105,4.4043,4.6777,5.0195,5.3097,5.4915,5.6328,5.8011,5.8828,5.9062,5.8597,5.6387,5.2757,4.6858,4.3269,4.0373,3.7625,3.7743,3.9287,4.2439,4.4057,4.5092,4.5568,4.7332,4.9441,5.1481,5.3812,5.6504,5.9805,6.0957,6.1758,6.2695,6.2988,6.2871,6.2187,5.8728,5.5614,5.3065,4.9402,4.5831,4.2406,4.1121,4.0481,4.0481,4.0481,4.0401,4.0294,4.0107,3.986,3.9607,3.914,3.8766,3.8504,3.8223,3.7929,3.7635,3.7342,3.6981,3.654,3.6086,3.5645,3.5271,3.5084,3.4843,3.4589,0.0,0.0,0.0,0.0,0.0,2.3806,2.5879,2.5806,2.6431,2.907,2.9101,2.8898,2.8898,2.832,2.7422,2.6186,2.5854,0.0,0.0,0.0,0.0,0.0,0.0,0.0,0.0,0.0,2.7617,2.8476,2.8476,2.8691,0.0,0.0,2.7315,2.5347,0.0,0.0,0.0,0.0,0.0,0.0,0.0,0.0,0.0,0.0,0.0,0.0,0.0,0.0,0.0,0.0,0.0,4.166,4.1621,4.3164,4.5879,5.0536,5.291,5.4629,5.709,5.8359,5.8887,5.8437,5.6172,5.2234,4.5413,4.3082,4.1337,3.7705,3.8595,4.0877,4.3839,4.4609,4.462,4.4145,4.5852,4.7699,4.8953,5.1329,5.4219,5.7793,5.8945,6.0215,6.2051,6.3105,6.3398,6.2637,6.0085,5.6441,5.1758,4.8926,4.5381,4.0784,4.0615,4.0548,4.0481,4.0481,4.0481,4.0481,4.0254,4.0174,4.0147,3.964,3.9247,3.9092,3.8691,3.8397,3.8183,3.7782,3.7422,3.7008,3.6513,3.6099,3.5738,3.5538,3.5324,3.5203,0.0,0.0,0.0,0.0,0.0,0.0,2.5421,2.6069,2.6992,2.8711,2.8898,2.8898,2.8898,2.7767,2.7031,2.6986,2.6206,0.0,0.0,0.0,0.0,0.0,0.0,0.0,0.0,0.0,2.8093,2.8879,2.8879,2.9141,2.9551,2.8022,2.7481,2.7714,0.0,0.0,0.0,0.0,0.0,0.0,0.0,0.0,0.0,0.0,0.0,0.0,0.0,0.0,0.0,0.0,0.0,0.0,0.0,4.1484,4.2695,4.6992,5.0391,5.3203,5.5319,5.7172,5.8418,5.8023,5.5937,5.2202,4.5264,4.3245,4.1746,3.8029,3.9201,4.1616,4.3955,4.5098,4.5801,4.6187,4.7363,4.8945,5.1084,5.2539,5.4004,5.5709,5.6719,5.8086,6.0197,6.2402,6.3515,6.3047,6.2577,5.9167,5.1895,5.144,4.8224,4.1154,4.0909,4.0762,4.0481,4.0481,4.0481,4.0481,4.0481,4.0481,4.0468,4.0147,3.9967,3.994,3.9353,3.91,3.9033,3.8504,3.7946,3.7342,3.6992,3.658,3.6072,3.6059,3.6113,3.6113,0.0,0.0,0.0,0.0,0.0,0.0,0.0,2.4707,2.5332,2.7337,2.7363,2.7519,2.8398,2.7598,2.7129,2.7467,2.6381,0.0,0.0,0.0,0.0,0.0,0.0,0.0,0.0,0.0,2.8542,2.9383,2.9383,2.9618,3.0,2.9526,2.8734,2.7791,2.76,2.694,0.0,0.0,0.0,0.0,0.0,0.0,3.4153,0.0,0.0,0.0,0.0,0.0,0.0,0.0,0.0,0.0,0.0,0.0,0.0,4.3965,4.6836,4.9609,5.1484,5.3047,5.4023,5.3574,5.2422,5.0166,4.5537,4.36,4.2118,3.9829,4.0204,4.1708,4.4323,4.5293,4.5551,4.5053,4.6801,4.8034,4.7585,5.0919,5.4219,5.6543,6.0449,6.334,6.4236,6.4492,6.4375,6.3904,5.9076,5.5026,5.2399,4.7724,4.382,4.0983,4.0909,4.0762,4.0481,4.0481,4.0481,4.0481,4.0481,4.0481,4.0481,4.0174,3.9967,4.0,3.9567,3.9287,3.906,3.8731,3.8223,3.7635,3.7128,3.6659,3.634,3.6139,3.6072,3.6072,0.0,0.0,0.0,0.0,0.0,0.0,0.0,2.4716,2.5059,2.6123,2.6079,2.6412,2.7676,2.6894,2.6685,2.7604,2.6641,0.0,0.0,0.0,0.0,0.0,0.0,0.0,0.0,2.8144,2.9043,3.0106,3.0419,3.0791,3.1172,3.1348,3.0602,2.9204,2.9465,2.8929,0.0,0.0,0.0,0.0,0.0,0.0,3.4173,0.0,0.0,0.0,0.0,0.0,0.0,0.0,0.0,0.0,0.0,0.0,0.0,0.0,4.4043,4.6191,4.875,5.0371,5.1328,5.123,5.043,4.8795,4.5261,4.4019,4.3074,4.114,4.15,4.2843,4.49,4.4717,4.4467,4.505,4.5954,4.676,4.7297,5.0596,5.3965,5.6875,6.1308,6.4375,6.4941,6.5212,6.4621,6.2774,5.8202,5.4105,5.0836,4.6472,4.3199,4.1305,4.1122,4.0869,4.0481,4.0481,4.0481,4.0481,4.0481,4.0481,4.0481,4.0294,4.0214,4.0187,3.9786,3.9493,0.0,3.8846,3.8437,3.7929,3.7448,3.7088,3.6794,3.6513,3.6393,3.6393,0.0,0.0,0.0,0.0,0.0,0.0,0.0,2.5748,2.578,2.5184,2.5122,2.5617,2.6971,2.5976,2.5912,2.7616,0.0,0.0,0.0,0.0,0.0,0.0,0.0,0.0,0.0,2.8313,2.959,3.0898,3.1788,3.2413,3.2812,3.3223,3.2723,3.1562,3.1562,3.1348,0.0,0.0,0.0,0.0,0.0,0.0,0.0,0.0,0.0,0.0,0.0,0.0,0.0,0.0,0.0,0.0,0.0,0.0,0.0,0.0,0.0,0.0,0.0,4.8691,4.9766,5.0117,4.9375,4.7752,4.4608,4.448,0.0,4.2062,4.3065,4.4668,4.5527,4.3678,4.2975,4.5934,4.5044,4.5381,4.9552,5.1523,5.3789,5.7187,6.0215,6.2344,6.3105,6.5,6.4409,6.0269,5.9209,5.5494,4.7937,4.7048,4.5198,4.1929,4.1523,4.1096,4.0508,4.0542,4.0481,4.0481,4.0481,4.0481,4.0481,4.0481,4.0481,4.0441,3.9893,3.964,3.9559,3.9012,3.8584,3.8281,3.7956,3.7676,3.7342,3.7032,3.6941,3.6885,0.0,0.0,0.0,0.0,0.0,0.0,0.0,0.0,0.0,0.0,2.5326,2.6057,2.8008,2.7098,2.6927,0.0,0.0,0.0,0.0,0.0,0.0,0.0,0.0,0.0,0.0,2.9101,2.9931,3.0898,3.1788,3.2413,3.2812,3.3223,3.291,3.2042,3.2042,3.1983,0.0,0.0,0.0,0.0,0.0,0.0,0.0,0.0,0.0,0.0,3.6836,3.7363,0.0,0.0,0.0,0.0,0.0,0.0,0.0,0.0,4.1387,4.1738,4.2969,0.0,4.4687,4.4453,4.4922,4.5164,0.0,4.4381,4.4655,4.3411,4.3823,4.4668,4.5527,4.3678,4.325,4.716,4.5895,4.5667,4.9184,5.3906,5.8027,6.0858,6.3869,6.5351,6.4529,6.5234,6.4237,6.0658,5.686,5.2771,4.8267,4.5028,4.289,4.1853,4.171,4.139,4.0802,4.0588,4.0481,4.0481,4.0481,4.0481,4.0481,4.0481,4.0481,4.0481,4.0334,4.0,3.9599,3.9452,3.8945,3.8321,3.8183,3.7849,3.7382,3.7301,3.7128,3.6885,0.0,0.0,0.0,0.0,0.0,0.0,0.0,0.0,0.0,0.0,0.0,2.6563,2.7388,2.708,0.0,0.0,0.0,0.0,0.0,0.0,0.0,0.0,0.0,0.0,2.8613,2.9285,3.0224,3.1514,3.2324,3.3066,3.3672,3.3906,3.3555,3.2734,3.2374,3.2198,0.0,0.0,0.0,0.0,3.4544,0.0,0.0,0.0,0.0,0.0,3.6914,3.7539,0.0,3.8887,3.9453,3.9844,0.0,0.0,0.0,0.0,4.0723,4.0918,4.1152,4.1973,4.2812,4.2969,4.3398,4.3769,4.3711,4.3769,4.3808,4.3711,4.375,4.418,4.5492,4.3678,4.2859,4.5434,4.4271,4.4737,4.9573,5.4854,5.9414,6.2598,6.4609,6.5644,6.5527,6.4357,6.2023,5.8174,5.3908,4.985,4.6049,4.3516,4.2071,4.179,4.1523,4.1243,4.0909,4.0762,4.0615,4.0481,4.0481,4.0481,4.0481,4.0481,4.0481,4.0481,4.0334,4.0,3.9599,3.9452,3.9012,3.8477,3.833,3.8026,3.7569,3.7478,3.7275,3.7155,0.0,0.0,0.0,0.0,0.0,0.0,0.0,0.0,0.0,0.0,0.0,0.0,0.0,0.0,0.0,0.0,0.0,0.0,0.0,0.0,0.0,0.0,0.0,2.8015,2.8476,2.9227,3.0419,3.2101,3.3105,3.4023,3.4805,3.5078,3.459,3.3476,3.2667,3.2257,0.0,0.0,0.0,0.0,3.498,0.0,0.0,0.0,0.0,0.0,0.0,0.0,0.0,3.9238,3.9863,4.0274,4.0254,0.0,0.0,0.0,0.0,0.0,4.0664,4.1562,4.2656,4.3183,4.3144,4.3066,4.334,4.291,4.2596,4.3359,4.3281,4.3654,4.5394,4.3366,4.204,4.3815,4.3439,4.5133,5.134,5.5701,5.9531,6.2988,6.3965,6.4582,6.5019,6.2505,5.8998,5.4389,5.0957,4.7382,4.332,4.2552,4.2071,4.179,4.131,4.0989,4.0909,4.0869,4.0722,4.0481,4.0481,4.0481,4.0481,4.0481,4.0481,4.0468,4.0147,3.9853,3.9559,3.9265,3.8913,3.8691,3.8428,3.8116,3.7849,3.7555,3.7448,3.7448,0.0,0.0,0.0,0.0,0.0,0.0,0.0,0.0,0.0,0.0,0.0,0.0,0.0,0.0,0.0,0.0,0.0,0.0,0.0,0.0,0.0,2.8203,2.823,2.8601,2.9383,2.952,3.0263,3.1621,3.3555,3.4766,3.5312,3.6758,3.6191,3.3945,3.3086,3.2531,3.2198,0.0,0.0,0.0,3.4746,0.0,0.0,0.0,0.0,0.0,0.0,0.0,0.0,3.7656,3.8457,3.9336,3.8984,0.0,0.0,0.0,0.0,0.0,4.1308,4.2266,4.2754,4.1797,4.2051,4.2441,4.2168,4.2266,4.2421,4.2557,4.2871,4.3654,4.5394,4.2111,4.12,4.7501,4.9867,5.231,5.6287,5.8703,6.049,6.1836,6.3672,6.3488,6.0102,5.958,5.7014,5.0971,4.9196,4.6824,4.328,4.2552,4.2071,4.179,4.171,4.1416,4.0909,4.0655,4.0508,4.0481,4.0481,4.0481,4.0481,4.0481,4.0481,4.0468,4.0147,3.9853,3.9559,3.9265,3.8913,3.8691,3.8428,3.8281,3.82,3.7849,3.7742,3.7702,0.0,0.0,0.0,0.0,0.0,0.0,0.0,0.0,0.0,0.0,0.0,0.0,0.0,0.0,0.0,0.0,0.0,0.0,0.0,0.0,0.0,2.8992,2.875,2.9023,2.9911,3.0634,3.1749,3.3242,3.4687,3.5879,3.6758,3.6821,3.5879,3.4075,3.3418,3.2891,3.255,3.2754,0.0,0.0,0.0,0.0,0.0,0.0,0.0,0.0,0.0,0.0,0.0,0.0,3.8184,3.8828,3.8669,0.0,0.0,0.0,0.0,0.0,4.0605,4.1562,4.2023,4.0505,4.1028,4.1444,3.9922,3.9378,3.9211,3.9484,3.9798,4.0535,4.1933,4.2491,4.4445,4.9592,5.1537,5.3259,5.5723,5.7994,6.0041,6.1836,6.293,6.2347,5.9217,5.7263,5.4248,4.9483,4.6719,4.4547,4.2988,4.2445,4.2004,4.1563,4.1501,4.1269,4.0695,4.0548,4.0481,4.0481,4.0481,4.0481,4.0481,4.0481,4.0481,4.0468,4.0147,3.9853,3.9559,3.9265,3.8913,3.866,3.8584,3.829,3.7996,3.7676,3.7595,3.7569,0.0,0.0,0.0,0.0,0.0,0.0,0.0,0.0,0.0,0.0,0.0,0.0,0.0,0.0,0.0,0.0,0.0,0.0,0.0,0.0,2.8633,2.9422,2.9394,2.9824,3.0781,3.1827,3.3234,3.5,3.6191,3.7328,3.8479,3.7226,3.582,3.4388,3.3809,3.3281,3.2832,3.3242,3.3906,0.0,0.0,0.0,0.0,0.0,0.0,0.0,0.0,0.0,0.0,0.0,0.0,0.0,0.0,0.0,0.0,3.8848,3.9199,3.9824,4.0234,4.0686,4.0657,3.9033,3.9685,4.0178,3.8142,3.7063,3.6877,3.8035,3.8608,3.934,4.0886,4.4911,4.8752,5.111,5.285,5.4448,5.5951,5.806,6.0156,6.2129,6.1734,6.0371,5.8016,5.4383,5.091,4.7583,4.4439,4.2723,4.2723,4.2325,4.1884,4.135,4.1269,4.0989,4.0481,4.0481,4.0481,4.0481,4.0481,4.0481,4.0481,4.0481,4.0441,4.0361,4.0067,3.9773,3.9493,3.914,3.8886,3.866,3.8651,3.833,3.7889,3.7742,3.7702,3.7676,0.0,0.0,0.0,0.0,0.0,0.0,0.0,0.0,0.0,0.0,0.0,0.0,0.0,0.0,0.0,0.0,0.0,0.0,0.0,0.0,2.8496,2.8918,3.0117,3.1328,3.2578,3.2695,3.3789,3.5918,3.7969,3.9434,4.0274,3.9004,3.7285,3.5254,3.4446,3.3574,3.2832,3.3242,3.3906,3.4746,0.0,0.0,0.0,0.0,0.0,0.0,0.0,0.0,0.0,0.0,0.0,0.0,0.0,0.0,3.9766,3.9297,3.9199,3.9609,4.123,4.0235,3.8477,3.7284,3.7851,3.8524,3.7864,3.7277,3.7815,4.115,4.2366,4.3713,4.6471,5.0251,5.2789,5.2451,5.6229,5.9677,6.0999,6.1738,6.2207,6.2363,5.9719,5.6685,5.3807,5.0156,4.6685,4.3745,4.3025,4.2723,4.2723,4.2174,4.167,4.1274,4.1082,4.0802,4.0481,4.0481,4.0481,4.0481,4.0481,4.0481,4.0481,4.0481,4.0334,4.004,3.9746,3.9452,3.91,3.8865,3.87,3.8691,3.8397,3.8321,3.8321,3.8544,3.8611,3.8584,0.0,0.0,0.0,0.0,0.0,0.0,0.0,0.0,0.0,0.0,0.0,0.0,0.0,0.0,0.0,0.0,0.0,0.0,0.0,2.7682,2.8464,2.9668,3.0195,3.1731,3.4482,3.594,3.7253,3.8437,3.9766,4.0039,3.9277,3.7715,3.6269,3.4922,3.3789,3.343,3.3625,3.3476,3.4082,3.5117,0.0,0.0,0.0,0.0,0.0,0.0,0.0,0.0,0.0,0.0,3.6836,3.7539,3.7539,3.8418,3.9434,3.9258,3.9414,3.9844,4.0762,4.078,4.0272,3.9028,3.9245,3.9317,3.7618,3.879,4.0738,4.2611,4.3812,4.5448,4.8645,5.1005,5.3272,5.5823,5.8931,6.1152,6.166,6.207,6.2187,6.1679,5.8793,5.5534,5.2295,4.8972,4.5779,4.2767,4.2445,4.2298,4.2174,4.1897,4.1563,4.1096,4.0976,4.0762,4.0481,4.0481,4.0481,4.0481,4.0481,4.0481,4.0481,4.0481,4.0321,3.9967,3.9706,3.9412,3.906,3.8624,3.8437,3.8397,3.8103,3.8103,3.8321,3.8183,3.8143,3.8143,0.0,0.0,0.0,0.0,0.0,0.0,0.0,0.0,0.0,0.0,0.0,0.0,0.0,0.0,0.0,0.0,0.0,0.0,2.7643,2.8001,2.8734,2.9755,3.0639,3.2542,3.5601,3.8858,4.0439,4.0196,4.0874,4.0331,3.8571,3.6973,3.582,3.5059,3.3769,3.3672,3.4518,3.4548,3.5091,3.593,3.575,3.603,0.0,0.0,0.0,0.0,0.0,0.0,0.0,0.0,3.6621,3.7148,3.7402,3.8281,3.9199,3.9199,3.9159,3.928,4.0238,3.9929,3.9382,3.9633,4.0319,4.0795,4.0425,4.1355,4.2985,4.5274,4.6604,4.8169,5.0915,5.2159,5.3996,5.7714,6.0215,6.1777,6.1894,6.2187,6.207,6.1191,5.8289,5.4963,5.1532,4.8319,4.5227,4.2175,4.1924,4.1857,4.167,4.1563,4.131,4.0909,4.0842,4.0695,4.0481,4.0481,4.0481,4.0481,4.0481,4.0481,4.0481,4.0361,4.0187,3.9893,3.9599,3.9247,3.8972,3.8584,3.8397,3.8428,3.8076,3.8143,3.8428,3.8183,3.8103,3.8103,0.0,0.0,0.0,0.0,0.0,0.0,0.0,0.0,0.0,0.0,0.0,0.0,0.0,0.0,0.0,0.0,0.0,0.0,2.8908,2.9262,2.9331,2.8949,3.162,3.3975,3.5753,4.1076,4.285,4.0835,4.107,4.0292,3.8552,3.7281,3.6426,3.5903,3.4681,3.4603,3.5452,3.6606,3.7085,3.7147,3.7607,3.7828,0.0,0.0,0.0,0.0,0.0,0.0,0.0,0.0,3.6695,3.6851,3.7656,3.8516,3.9199,3.9199,3.833,3.7787,3.9913,3.7358,3.4892,3.8373,4.0566,4.2867,4.6668,4.5046,4.4241,4.9591,5.1421,5.2519,5.3828,5.4414,5.539,5.7574,6.0039,6.1836,6.2305,6.2422,6.207,6.1191,5.821,5.478,5.1243,4.7901,4.4684,4.1522,4.1274,4.1274,4.1274,4.1056,4.0909,4.0909,4.0615,4.0481,4.0481,4.0481,4.0481,4.0481,4.0481,4.0481,4.0468,4.0174,3.982,3.9559,3.9265,3.8972,3.8718,3.866,3.866,3.8691,3.8428,3.8437,3.8718,3.8718,3.8718,3.8718,0.0,0.0,0.0,0.0,0.0,0.0,0.0,0.0,0.0,0.0,0.0,0.0,0.0,0.0,0.0,0.0,0.0,0.0,3.0348,3.0402,3.0706,3.1202,3.3007,3.4774,3.6402,3.8534,4.0805,4.3266,4.0634,3.832,3.6328,3.5605,3.4902,3.4167,3.4414,3.4492,3.4518,3.4846,3.6009,3.7642,3.7517,3.8573,0.0,0.0,0.0,0.0,0.0,0.0,0.0,0.0,0.0,0.0,3.7305,3.8281,3.9199,3.9199,3.9159,3.9319,4.0238,3.9815,3.9675,4.2214,4.4119,4.6401,5.0289,5.0671,5.1338,5.5352,5.5394,5.5098,5.6094,5.6367,5.6875,5.8125,5.998,6.1426,6.1836,6.2187,6.1953,6.0724,5.786,5.4387,5.0496,4.7435,4.4426,4.1261,4.1168,4.1208,4.1056,4.0949,4.0802,4.0615,4.0508,4.0481,4.0481,4.0254,4.0174,4.0147,3.996,3.996,4.0147,4.0067,3.9714,3.9265,3.914,3.8972,3.8691,3.825,3.821,3.837,3.8076,3.825,3.8718,3.8718,3.8718,3.8718,0.0,0.0,0.0,0.0,0.0,0.0,0.0,0.0,0.0,0.0,0.0,0.0,0.0,0.0,0.0,0.0,0.0,0.0,0.0,3.1616,3.1809,3.2233,3.4032,3.623,3.8836,3.8401,3.9413,4.1968,3.8842,3.6499,3.4896,3.5671,3.5466,3.4492,3.611,3.6203,3.5164,3.5605,3.6885,3.8604,3.857,3.9889,4.1642,0.0,0.0,0.0,0.0,0.0,0.0,0.0,0.0,0.0,3.6914,3.7812,3.873,3.8906,3.8931,3.9204,4.0627,4.0857,4.1435,4.4593,4.6655,4.8977,5.3066,5.4726,5.6055,5.832,5.7402,5.6445,5.7324,5.7187,5.7305,5.8304,5.9805,6.0918,6.1133,6.1601,6.1445,6.0332,5.8501,5.5904,5.202,4.9008,4.5982,4.278,4.1589,4.0909,4.0735,4.0735,4.0655,4.0542,4.0481,4.0462,4.0294,4.0107,3.996,3.9853,3.968,3.964,3.9666,3.9666,3.942,3.91,3.8993,3.8766,3.8504,3.7996,3.8076,3.8397,3.7969,3.8183,3.8718,3.8718,3.8718,3.8718,0.0,0.0,0.0,0.0,0.0,0.0,0.0,0.0,0.0,0.0,0.0,0.0,0.0,0.0,0.0,0.0,0.0,0.0,0.0,0.0,3.2864,3.2687,3.498,3.8061,4.1909,3.9768,3.85,3.8315,3.6248,3.4884,3.4253,3.6834,3.7353,3.6243,3.8876,3.8706,3.6544,3.7721,3.8755,3.9643,4.0324,4.1484,4.2555,3.9885,0.0,0.0,0.0,0.0,0.0,0.0,0.0,0.0,3.6543,3.7246,3.8008,3.8437,3.816,3.8278,4.1128,4.1109,4.1355,4.6,4.8606,5.1104,5.5084,5.7309,5.8711,5.9121,5.791,5.707,5.791,5.7383,5.7226,5.8421,5.9572,6.039,6.0372,6.0781,6.0742,5.9922,5.9805,5.8365,5.4778,5.1594,4.8414,4.5233,4.217,4.0441,4.0441,4.0468,4.0481,4.0481,4.0441,4.0294,3.9967,3.994,3.9813,3.9559,3.9533,3.9372,3.906,3.91,3.906,3.8993,3.8798,3.8504,3.824,3.7889,3.8143,3.8611,3.8036,3.8183,3.8718,3.8718,3.8718,3.8718,0.0,0.0,0.0,0.0,0.0,0.0,0.0,0.0,0.0,0.0,0.0,0.0,0.0,0.0,0.0,0.0,0.0,0.0,0.0,0.0,3.5071,3.5498,3.7295,3.889,4.0199,3.862,3.7747,3.7684,3.5094,3.4218,3.4983,3.6782,3.7358,3.6944,3.8737,3.7734,3.476,3.628,3.7591,3.8829,4.0522,4.1702,4.2201,4.0251,0.0,0.0,0.0,0.0,0.0,0.0,0.0,0.0,3.6543,3.7246,3.8008,3.8437,3.9426,4.0722,4.236,4.3089,4.4311,4.8008,5.1728,5.4928,5.6582,5.8027,5.9062,5.918,5.8887,5.8769,5.9297,5.8965,5.8828,5.9397,5.9746,6.0039,6.039,6.0508,6.039,5.9863,5.9805,5.8251,5.434,5.1217,4.8048,4.4572,4.1678,4.0087,4.0087,4.0361,4.0481,4.0481,4.0254,4.0047,3.9967,3.95,3.9247,3.9207,3.9012,3.8865,3.8766,3.8993,3.8846,3.8495,3.8397,3.8183,3.7889,3.7595,3.7823,3.833,3.7956,3.8183,3.8718,3.8718,3.8718,3.8718,0.0,0.0,0.0,0.0,0.0,0.0,0.0,0.0,0.0,0.0,0.0,0.0,0.0,0.0,0.0,0.0,0.0,0.0,0.0,0.0,3.6008,3.7135,3.8291,3.9145,3.9697,3.8243,3.7503,3.7503,3.5358,3.4876,3.5974,3.8347,3.9024,3.8332,4.0126,3.9204,3.6321,3.6582,3.7767,3.9545,4.0846,4.1632,4.1775,0.0,0.0,0.0,0.0,0.0,0.0,0.0,0.0,0.0,0.0,0.0,3.7793,3.8633,3.9824,4.1269,4.3183,4.4648,4.6582,5.0616,5.3777,5.6211,5.7285,5.8203,5.8945,5.9121,5.918,5.9238,5.9473,5.9355,5.9238,5.9473,5.9687,5.9805,5.9824,5.9982,5.998,5.957,5.928,5.7791,5.4269,5.0983,4.7726,4.4436,4.1472,3.9813,3.9813,4.0107,4.0187,4.0067,4.004,3.9893,3.9567,3.9247,3.902,3.8886,3.8798,3.8651,3.8504,3.8651,3.8477,3.8036,3.8036,3.7889,3.7595,3.7448,3.7772,3.8281,3.7929,3.8183,3.8718,3.8718,3.8718,3.8718,0.0,0.0,0.0,0.0,0.0,0.0,0.0,0.0,0.0,0.0,0.0,0.0,0.0,0.0,0.0,0.0,0.0,0.0,0.0,0.0,0.0,3.7939,3.8592,3.9145,3.9697,3.8504,3.7875,3.7875,3.6649,3.6649,3.7839,4.0007,4.0622,3.9963,4.1067,4.045,3.8495,3.7374,3.8166,4.0264,4.0787,4.0914,0.0,0.0,0.0,0.0,0.0,0.0,0.0,0.0,0.0,0.0,0.0,0.0,3.7539,3.873,3.9824,4.1172,4.3613,4.5859,4.847,5.2754,5.4772,5.6152,5.7363,5.7969,5.8418,5.8887,5.9062,5.918,5.9062,5.9062,5.9062,5.902,5.9238,5.9187,5.8392,5.853,5.8438,5.7587,5.7188,5.5898,5.3307,4.9836,4.6768,4.4208,4.1196,3.9452,3.9519,3.9754,3.9853,3.9599,3.9687,3.9559,3.902,3.8913,3.874,3.8513,3.8513,3.8397,3.8116,3.8093,3.7889,3.7662,3.7662,3.7489,3.7235,3.7342,3.7702,3.82,3.7969,3.8223,3.8718,3.8718,3.8718,3.8718,0.0,0.0,0.0,0.0,0.0,0.0,0.0,0.0,0.0,0.0,0.0,0.0,0.0,0.0,0.0,0.0,0.0,0.0,0.0,0.0,0.0,3.7965,3.8592,3.9145,3.9697,3.9491,3.9413,3.9413,3.9232,4.0143,4.2096,3.9873,3.9827,4.1452,3.8759,3.7774,3.8037,3.7111,3.7468,3.8649,0.0,0.0,0.0,0.0,0.0,0.0,0.0,0.0,0.0,3.4492,3.5059,0.0,0.0,0.0,3.748,3.8398,3.9842,4.1484,4.3301,4.6699,5.0254,5.2363,5.4141,5.5625,5.6543,5.709,5.7519,5.7969,5.8652,5.9062,5.8655,5.8594,5.8476,5.8141,5.8141,5.7302,5.4889,5.4586,5.3645,5.1045,5.0633,5.0096,4.8831,4.5947,4.3785,4.2974,4.0369,3.8945,3.914,3.9493,3.964,3.9599,3.9159,3.8806,3.874,3.825,3.7956,3.7929,3.7929,3.7782,3.7489,3.7235,3.7088,3.6992,3.6992,3.6845,3.6647,3.7168,3.7569,3.7889,3.8116,3.8397,3.8718,3.8718,3.8718,3.8718,0.0,0.0,0.0,0.0,0.0,0.0,0.0,0.0,0.0,0.0,0.0,0.0,0.0,0.0,0.0,0.0,0.0,0.0,0.0,0.0,0.0,3.7513,3.809,3.8492,3.8743,3.9069,3.9245,3.9245,3.9245,4.0552,4.293,3.9889,3.9901,4.2293,0.0,0.0,0.0,0.0,0.0,0.0,0.0,0.0,0.0,0.0,0.0,0.0,0.0,0.0,3.2851,3.3691,3.4277,3.4805,3.5742,0.0,0.0,0.0,3.951,4.1152,4.4297,4.707,4.9726,5.2402,5.3652,5.457,5.5918,5.6367,5.6621,5.7051,5.7461,5.7847,5.8086,5.6783,5.5561,5.5411,5.395,5.2439,5.1226,5.1073,5.0545,4.9267,4.8913,4.7876,4.5595,4.3927,4.2177,4.0095,3.8844,3.8233,3.8397,3.8691,3.8771,3.8611,3.8504,3.8397,3.821,3.7956,3.7809,3.7809,3.7489,3.7206,3.7128,3.6445,3.638,3.6687,3.6687,3.662,3.654,3.6941,3.7408,3.7809,3.7956,3.829,3.8718,3.8718,3.8718,3.8718,0.0,0.0,0.0,0.0,0.0,0.0,0.0,0.0,0.0,0.0,0.0,0.0,0.0,0.0,0.0,0.0,0.0,0.0,0.0,0.0,0.0,3.7185,3.7713,3.8015,3.8015,3.8592,3.8818,3.8668,3.8818,4.0451,4.3357,4.0674,4.083,0.0,3.8884,3.7306,0.0,0.0,0.0,0.0,0.0,0.0,0.0,0.0,0.0,0.0,0.0,0.0,3.2159,3.2969,3.3555,3.4141,3.5449,3.6367,0.0,0.0,0.0,4.0527,4.4297,4.625,4.8008,5.125,5.2432,5.3125,5.4746,5.5195,5.541,5.584,5.5389,5.5156,5.5851,5.4355,5.2738,5.1925,4.9914,4.8257,4.7657,4.7575,4.7242,4.6435,4.6068,4.4815,4.2137,4.1535,4.0334,3.7899,3.7702,3.7742,3.7809,3.8036,3.8036,3.7809,3.7889,3.7823,3.7595,3.7529,3.7448,3.7382,3.6952,3.6699,3.658,3.5872,3.5832,3.6179,3.6326,3.6393,3.6433,3.6874,3.7301,3.7702,3.7782,3.8103,3.8504,3.8584,3.8611,3.8611,0.0,0.0,0.0,0.0,0.0,0.0,0.0,0.0,0.0,0.0,0.0,0.0,0.0,0.0,0.0,3.319,3.3617,3.4374,3.5433,3.6056,3.6632,3.7185,3.7713,0.0,3.8015,3.8592,3.8617,3.804,3.8617,4.0853,4.4485,4.271,4.293,4.4532,3.8692,3.7225,3.9024,0.0,0.0,0.0,0.0,0.0,0.0,0.0,0.0,0.0,0.0,0.0,3.168,3.2539,3.3105,3.3659,3.5019,3.5723,3.625,0.0,0.0,0.0,4.1972,4.3594,4.5215,4.7832,4.9707,5.1269,5.2578,5.3203,5.3664,5.4062,5.2129,5.0454,5.0748,5.1331,5.0845,4.7986,4.7402,4.65,4.4221,4.3867,4.2714,3.9583,3.9222,3.8786,3.781,3.7702,3.7576,3.7422,3.7422,3.7529,3.7809,3.7823,3.7823,3.7809,3.7246,3.6952,3.6981,3.6672,3.6433,3.6166,3.6393,3.6233,3.5698,3.5591,3.5498,3.5297,3.5859,3.6099,3.622,3.7021,3.7382,3.7478,3.7702,3.7793,3.7889,3.8183,3.829,3.8388,0.0,0.0,0.0,0.0,0.0,0.0,0.0,0.0,0.0,0.0,0.0,0.0,0.0,3.4427,3.3822,3.3621,3.4098,3.4728,3.5458,3.6056,3.6505,3.6683,3.721,3.7487,3.7487,3.7713,3.7864,3.8015,3.8216,3.9747,4.2451,4.2014,4.2519,4.3543,3.9345,3.7238,3.6611,3.3911,0.0,0.0,0.0,0.0,0.0,0.0,0.0,3.0898,3.0898,3.1152,3.1572,3.2207,3.2851,3.3523,3.4316,3.5039,3.5781,3.6641,3.7598,3.8789,4.0645,4.1953,4.334,4.5937,4.7871,4.9414,5.043,5.1641,5.2111,5.0503,4.9643,4.808,4.4584,4.4742,4.5108,4.4222,4.2435,4.0842,3.9979,3.985,3.9437,3.8271,3.8143,3.7929,3.7478,3.7195,3.7021,3.6834,3.6647,3.666,3.6941,3.6794,3.6794,3.6981,3.658,3.638,3.638,3.6273,3.6179,3.6072,3.5979,3.5832,3.5565,3.5431,3.5297,3.5217,3.5618,3.5899,3.6112,3.662,3.7048,3.7382,3.7489,3.7635,3.7809,3.7929,3.8103,3.8321,0.0,0.0,0.0,0.0,0.0,0.0,0.0,0.0,0.0,0.0,0.0,0.0,0.0,0.0,3.4352,3.4176,3.4653,3.513,3.5483,3.6056,3.6405,3.6405,3.7085,3.7362,3.721,3.7587,3.7763,3.7739,3.7914,3.9119,4.1326,4.1692,4.2436,4.3322,3.9936,3.7877,0.0,3.4017,3.2812,3.2715,3.1562,3.1191,3.1328,3.1484,3.1523,3.1523,3.1523,3.1699,3.1953,3.1953,3.2422,3.3105,3.3672,3.4453,3.5293,3.6069,3.6738,3.7562,3.9043,4.0059,4.1406,4.4297,4.5762,4.7012,4.9062,5.0176,5.0436,4.9175,4.773,4.5617,4.21,4.0562,3.9936,4.0301,3.875,3.7529,3.7529,3.7646,3.7742,3.7499,3.7595,3.7935,3.8598,3.7494,3.7085,3.789,3.6816,3.6153,3.6353,3.6179,3.6112,3.6206,3.6032,3.5872,3.5778,3.5872,3.5872,3.5778,3.5672,3.5525,3.5471,3.5284,3.5191,3.5204,3.5404,3.5645,3.5952,3.6246,3.6647,3.7088,3.7088,3.7342,3.7676,3.7782,3.7996,3.8321,0.0,0.0,0.0,0.0,0.0,0.0,0.0,0.0,0.0,0.0,0.0,0.0,0.0,0.0,0.0,3.4828,3.5255,3.5533,3.5533,3.6081,3.6405,3.6405,3.7412,3.7739,3.7235,3.8316,3.8341,3.7235,3.7739,3.9094,4.1227,4.1858,4.2872,4.4002,4.0272,3.9151,3.9862,3.6623,3.5293,3.5137,3.2559,3.1797,3.2276,3.2637,3.2793,3.2793,3.2812,3.2832,3.2734,3.1894,3.1894,3.2433,3.3184,3.4004,0.0,0.0,0.0,3.6191,0.0,0.0,0.0,4.2695,4.3281,4.4121,4.834,4.8672,4.8548,5.0142,4.6306,4.2855,4.3545,3.9224,3.5805,3.6475,3.6727,3.6901,3.6885,3.7408,3.7555,3.6981,3.7195,3.8321,4.0808,3.8316,3.7659,4.0452,3.7787,3.61,3.6059,3.6113,3.5912,3.5618,3.5605,3.5458,3.5177,3.5458,3.5458,3.5191,3.5471,3.5471,3.5191,3.5191,3.5191,3.5191,3.5191,3.5351,3.5591,3.5939,3.6233,3.65,3.65,3.6874,3.7422,3.7702,3.7996,3.8348,0.0,0.0,0.0,0.0,0.0,0.0,0.0,0.0,0.0,0.0,0.0,0.0,0.0,0.0,0.0,3.6433,3.6306,3.6331,3.6709,3.6532,3.6405,3.6405,3.706,3.7538,3.7764,3.809,3.809,3.7789,3.7939,3.8316,3.8918,4.0325,4.1611,4.2639,3.9966,3.8995,3.8994,3.4187,3.3027,3.429,3.2305,3.2148,3.3027,3.255,3.257,3.2832,3.3144,3.3652,3.4141,3.3906,3.4121,3.4434,3.4023,0.0,0.0,0.0,0.0,0.0,3.623,0.0,0.0,0.0,0.0,0.0,4.3594,4.4726,4.493,4.3158,4.1742,4.0659,4.0248,3.7519,3.6039,3.8154,3.7296,3.6393,3.6552,3.658,3.658,3.662,3.6687,3.703,3.7743,3.6843,3.6558,3.7356,3.6193,3.5525,3.5738,3.5752,3.5525,3.5017,3.5004,3.4857,3.4563,3.4857,3.4963,3.4883,3.5177,3.5271,3.5191,3.5191,3.5191,3.5191,3.5191,3.5244,3.5338,3.5631,3.6046,3.65,3.65,3.6874,3.7382,3.7462,3.7879,3.8321,0.0,0.0,0.0,0.0,0.0,0.0,3.706,0.0,0.0,0.0,0.0,0.0,0.0,0.0,0.0,3.7462,3.7034,3.6959,3.7487,3.6808,3.6505,3.6708,3.7261,3.7688,3.799,3.8467,3.8492,3.8015,3.8241,3.8241,3.804,3.927,0.0,0.0,3.8635,3.7634,3.7732,3.2921,3.2012,3.3711,3.2715,3.2969,3.3945,3.3828,3.4043,3.4453,3.4687,3.5215,3.5664,3.4941,3.5,3.5215,3.4141,0.0,0.0,0.0,0.0,0.0,0.0,0.0,0.0,3.8418,0.0,0.0,4.2129,4.2969,4.3208,4.2783,4.2046,4.1537,4.1604,3.9642,3.8655,4.0414,3.97,3.8149,3.6235,3.7015,3.7339,3.6234,3.6246,3.6802,3.7953,3.6733,3.6409,3.7598,3.612,3.5217,3.5271,3.5271,3.5057,3.4589,3.4576,3.4496,3.4322,3.4496,3.4576,3.4576,3.487,3.5017,3.5017,3.5137,3.5191,3.5191,3.5191,3.5191,3.5204,3.5378,3.5792,3.6326,3.6326,3.6767,3.7382,3.7529,3.7863,3.829,0.0,0.0,3.7437,3.7914,3.8065,3.809,3.809,0.0,0.0,0.0,0.0,0.0,0.0,0.0,0.0,0.0,3.7638,3.7487,3.7965,3.7009,3.6607,3.7085,3.7688,3.799,3.7914,3.9094,3.9145,3.8015,3.8617,3.8642,3.8115,3.8642,0.0,0.0,0.0,3.5781,3.6293,3.2598,3.1894,3.325,3.3347,3.4004,3.4941,3.5689,3.6289,3.6714,3.6753,3.7012,3.7129,3.5586,3.5234,3.5254,3.405,3.4414,3.5019,0.0,3.4434,0.0,0.0,0.0,0.0,0.0,3.8516,0.0,4.2148,4.2226,4.2342,4.5217,4.4275,4.3347,4.4742,4.3155,4.1834,4.2509,4.2807,4.1333,3.6764,3.8652,3.9361,3.6431,3.6328,3.7363,3.9502,3.7178,3.6601,3.9136,3.6691,3.499,3.4775,3.471,3.4576,3.4282,3.4269,3.4255,3.4215,3.4255,3.4269,3.4282,3.4511,3.4723,3.4829,3.503,3.5164,3.5191,3.5191,3.5191,3.5191,3.5191,3.5538,3.6072,3.6072,3.662,3.7422,3.7702,3.7996,3.8348,0.0,0.0,3.7889,3.799,3.8391,3.8718,3.8718,3.8642,0.0,0.0,0.0,0.0,0.0,0.0,0.0,0.0,3.8442,3.7889,3.799,3.7009,3.6455,3.6532,3.7462,3.7789,3.7386,3.8894,3.9145,3.8015,3.8617,3.8843,3.8743,3.8843,0.0,0.0,0.0,3.54,3.543,3.2976,3.214,3.2511,3.3144,3.4323,3.5747,3.5923,3.6289,3.6753,3.7051,3.7441,3.7718,3.7367,3.668,3.5859,3.5586,3.4961,3.4388,3.4434,3.4902,0.0,0.0,0.0,0.0,3.7344,3.8066,0.0,3.8594,3.9141,3.9605,3.9241,3.9294,3.9948,4.1726,4.0634,4.003,4.1988,4.3451,4.3855,4.2323,4.2455,4.1719,3.9209,3.893,3.8254,3.6369,3.5615,3.5441,3.5759,3.4968,3.4469,3.4402,3.4402,3.4269,3.3975,3.3975,3.3855,3.3587,3.3841,3.3975,3.3975,3.4269,3.4536,3.4815,3.4869,3.4977,3.5191,3.5191,3.5191,3.5191,3.5191,3.5538,3.6072,3.6072,3.662,3.7422,3.7702,3.7996,3.8348,0.0,0.0,3.8617,3.917,3.9496,3.9798,4.0074,3.9873,0.0,0.0,0.0,0.0,0.0,0.0,0.0,0.0,0.0,0.0,0.0,3.7562,3.6909,3.7185,3.7713,3.7864,3.7588,3.8969,3.9295,3.8442,3.9019,3.917,3.8894,3.917,3.8913,0.0,0.0,3.477,3.3738,3.2208,3.1807,3.2335,3.3789,3.5059,3.606,3.6703,3.7246,3.7672,3.7887,3.8066,3.8036,3.6537,3.6729,3.7241,3.5131,3.531,3.6226,3.5547,3.5684,3.6074,3.6289,3.6816,3.7344,3.7594,3.793,0.0,0.0,3.8105,3.8422,3.9116,3.9177,3.9776,4.1807,4.15,4.1532,4.3298,4.4876,4.5733,4.5406,4.3856,4.1347,3.7432,3.7008,3.6381,3.4919,3.4763,3.4696,3.4549,3.4402,3.4255,3.4108,3.4108,3.3961,3.3654,3.3654,3.3574,3.3414,3.3574,3.3654,3.3654,3.3961,3.4175,3.4336,3.4681,3.4895,3.499,3.5137,3.5191,3.5191,3.5191,3.5458,3.5872,3.6019,3.6433,3.7021,3.7595,3.7929,3.8103,0.0,0.0,3.9346,4.0199,4.0499,4.08,4.1225,4.1026,0.0,0.0,0.0,0.0,0.0,0.0,0.0,0.0,0.0,0.0,0.0,3.8266,3.7487,3.7839,3.7939,3.7914,3.7688,3.8894,3.9296,3.8743,3.9371,3.9446,3.8919,3.9164,3.8367,3.6718,3.5332,3.3948,3.2574,3.1408,3.1484,3.2609,3.4492,3.5469,3.5898,3.7187,3.791,3.8259,3.8398,3.8241,3.7615,3.5316,3.6362,3.7999,3.4581,3.5788,3.8203,3.6894,3.6758,3.7086,3.7164,3.732,3.7614,3.8281,3.8125,3.7851,0.0,0.0,0.0,3.994,3.9883,4.0039,4.1777,4.2226,4.2676,4.373,4.5074,4.5706,4.4793,4.2749,3.9861,3.5868,3.5166,3.4752,3.42,3.4042,3.4028,3.4135,3.4042,3.3921,3.3801,3.3801,3.3681,3.3414,3.3414,3.3414,3.3414,3.3414,3.3414,3.3414,3.3668,3.3828,3.3908,3.4376,3.4708,3.4829,3.5017,3.5151,3.5191,3.5191,3.5338,3.5578,3.5939,3.6246,3.662,3.7489,3.7809,3.7889,3.9371,3.9597,0.0,3.9772,4.0575,4.1227,4.1275,4.1706,4.2673,0.0,0.0,0.0,0.0,0.0,0.0,0.0,0.0,3.9346,4.035,3.8843,3.7713,3.7287,3.7739,3.7538,3.6582,3.8165,3.8718,3.809,3.917,3.9446,3.8868,3.8105,3.7376,3.6588,3.3917,3.3036,3.3437,3.1667,3.1816,3.3359,3.4375,3.4805,3.5,3.6343,3.6871,3.7027,3.7734,3.6987,3.57,3.5748,3.6059,3.6281,3.5784,3.6717,3.8027,3.8223,3.8356,3.8474,3.8809,3.9492,3.9708,3.834,3.8809,3.9023,3.6816,0.0,3.7734,3.732,0.0,3.8186,3.8457,0.0,0.0,3.9844,4.1601,4.1446,3.7207,3.7616,3.8604,3.9176,3.8228,3.6464,3.3785,3.3053,3.3009,3.348,3.304,3.3009,3.344,3.3467,3.3454,3.3414,3.3414,3.3414,3.3414,3.3414,3.3414,3.3414,3.3454,3.3614,3.3895,3.3961,3.4269,3.4815,3.4855,3.4963,3.5191,3.5191,3.5217,3.5297,3.5859,3.6246,3.662,3.7489,3.7809,3.7889,3.9471,3.9697,0.0,0.0,4.0524,4.1051,4.1706,4.3305,4.4397,4.4434,0.0,0.0,4.488,4.3325,0.0,0.0,4.1808,4.108,4.0524,3.9546,0.0,3.8215,3.8416,3.8316,3.7838,3.8843,3.922,3.8994,3.9471,3.9572,3.932,3.8093,3.6908,3.5787,3.3738,3.2649,3.2382,3.188,3.2081,3.2793,3.3887,3.418,3.4219,3.6523,3.7559,3.7829,3.7891,3.7605,3.681,3.4131,3.544,3.7689,3.457,3.6237,3.9338,3.9043,3.8945,3.8984,3.916,3.9473,3.957,3.8848,3.8906,3.8711,3.7129,3.6797,3.6855,3.7012,0.0,0.0,0.0,0.0,0.0,0.0,4.0449,4.0461,3.6799,3.6719,3.6431,3.4823,3.412,3.3428,3.2517,3.2233,3.2326,3.2866,3.2567,3.2545,3.3133,3.332,3.3414,3.3414,3.3414,3.3414,3.3414,3.3414,3.3414,3.3414,3.3414,3.348,3.3614,3.3801,3.4028,3.4269,3.4668,3.4882,3.4963,3.5124,3.5191,3.5257,3.5845,3.6153,3.6366,3.7235,3.7676,3.7889,3.9496,0.0,0.0,0.0,4.0399,4.0827,4.1808,4.3847,4.4987,4.4247,4.4741,4.5274,4.562,4.4475,4.3869,4.4292,4.3765,4.2861,4.1505,4.0626,3.9772,3.8944,3.8894,3.8818,3.8668,3.9195,3.9471,3.9471,3.9622,3.9622,3.9445,3.7721,3.6256,3.5,3.3515,3.2549,3.204,3.2531,3.3,3.3489,3.4192,3.4394,3.4531,3.6484,3.75,3.7851,3.7656,3.7551,3.6988,3.349,3.5297,3.8293,3.4349,3.6343,4.0039,3.9394,3.9199,3.9238,3.9355,3.9473,3.9453,3.8965,3.8613,3.8105,3.7031,3.6484,3.6406,3.7148,3.6738,0.0,0.0,0.0,3.7812,3.832,0.0,3.9357,3.6165,3.5503,3.4234,3.1231,3.0696,3.0755,3.131,3.1283,3.151,3.2179,3.1837,3.1984,3.2862,3.3053,3.324,3.3414,3.3414,3.3414,3.3414,3.3414,3.3414,3.3414,3.3414,3.3414,3.3414,3.3654,3.3801,3.3908,3.4336,3.4668,3.4829,3.499,3.5177,3.5364,3.5872,3.6126,3.6286,3.7088,3.7569,3.7849,3.9572,3.9697,0.0,3.9722,4.0174,4.0675,4.1252,4.2578,4.3834,4.4809,4.4968,4.5837,4.804,4.6583,4.605,4.7606,4.5769,4.4317,4.374,4.2155,4.0549,3.8969,3.8894,3.8642,3.804,3.8617,3.8919,3.8919,3.9446,3.9421,3.8868,3.6494,3.5019,3.4373,3.2892,3.264,3.3347,3.3828,3.5013,3.6499,3.5664,3.584,3.6519,3.5762,3.5742,3.6152,3.6562,3.5916,3.4845,3.5112,3.5851,3.6667,3.6498,3.7745,3.9238,3.9199,3.9199,3.9297,3.9746,4.0176,4.004,3.8343,3.7913,3.7464,3.584,3.6108,3.6812,3.7207,3.793,3.8532,3.8571,3.8571,0.0,0.0,3.834,0.0,0.0,3.255,3.2204,3.1117,3.0376,3.006,3.0413,3.014,3.0327,3.1162,3.0742,3.1095,3.2527,3.2621,3.2875,3.3387,3.3414,3.3414,3.3414,3.3414,3.3414,3.3414,3.3414,3.3414,3.3414,3.3427,3.3587,3.3881,3.3908,3.4242,3.4815,3.4829,3.511,3.5645,3.5952,3.6246,3.658,3.7168,3.7569,3.7849,0.0,0.0,0.0,3.9697,3.9848,4.0275,4.1177,4.3174,4.491,4.5764,4.6716,4.7937,4.9535,4.8825,4.8435,4.8987,4.8008,4.6677,4.502,4.4041,4.2908,4.1683,4.1255,4.0803,4.0198,4.0049,3.9306,3.7976,3.9133,3.8613,3.6497,3.5686,3.4803,3.3905,3.2723,3.2637,3.3464,3.4512,3.4974,3.4974,3.4941,3.5801,3.7031,3.6445,3.6504,3.6662,3.5282,3.4808,3.4645,3.3512,3.4554,3.629,3.5964,3.7634,3.9609,3.9297,3.9414,3.9687,3.9863,4.0,3.9824,3.8652,3.793,3.7285,3.646,3.6499,3.6832,3.7207,3.7969,3.8532,3.8203,3.8379,0.0,0.0,0.0,0.0,0.0,3.0689,2.8732,2.7793,2.8329,2.8938,2.9432,2.9348,2.97,3.0581,3.0114,3.0341,3.161,3.1864,3.2286,3.2875,3.3026,3.3213,3.3414,3.3414,3.3414,3.3414,3.3414,3.3414,3.3414,3.3414,3.3467,3.3587,3.3801,3.4108,3.4482,3.4735,3.499,3.5391,3.5885,3.6139,3.6313,3.7088,3.7569,3.7849,3.9672,3.9697,3.9697,3.9697,3.9848,4.0224,4.0901,4.3104,4.5023,4.5892,4.7321,4.8891,5.0542,5.0419,5.0268,5.0469,4.9791,4.841,4.6225,4.5547,4.4644,4.3341,4.2964,4.2411,4.1656,4.148,4.0475,3.8587,3.9204,3.8479,3.6553,3.5169,3.4244,3.3675,3.2944,3.3008,3.375,3.5391,3.5742,3.5268,3.5351,3.5976,3.6836,3.6753,3.653,3.6093,3.4371,3.3678,3.3478,3.2321,3.3262,3.4953,3.5363,3.6701,3.8212,3.8608,3.8965,3.9238,3.9375,3.9531,3.9434,3.8555,3.793,3.7363,3.6832,3.6894,3.7285,3.7851,3.8555,3.9043,3.9082,3.8926,0.0,0.0,0.0,0.0,0.0,2.9595,2.7159,2.6829,2.7337,2.7909,2.8454,2.847,2.8738,2.9557,2.9169,2.9366,3.0541,3.1089,3.1724,3.242,3.2822,3.312,3.3414,3.3414,3.3414,3.3414,3.3414,3.3414,3.3414,3.3414,3.3414,3.3427,3.3627,3.3948,3.4336,3.4523,3.4897,3.5391,3.5765,3.6046,3.6313,3.6981,3.7489,3.7889,4.0029,3.9902,3.985,3.9798,4.0174,4.0499,4.0625,4.2459,4.4242,4.5497,4.7029,4.8887,5.1122,5.1373,5.1574,5.2101,5.1122,4.9558,4.745,4.6798,4.5773,4.4166,4.4041,4.3489,4.2462,4.2864,4.2228,4.0438,3.9543,3.8939,3.8502,3.4812,3.328,3.3559,3.3461,3.3652,3.4212,3.6348,3.7266,3.7226,3.6851,3.6406,3.6133,3.6523,3.5809,3.4432,3.3732,3.2531,3.1318,3.1568,3.1982,3.2733,3.4826,3.5244,3.5321,3.7355,3.7913,3.8047,3.8457,3.8867,3.8984,3.8164,3.7894,3.7695,3.6949,3.7344,3.8128,3.9004,3.9551,4.0117,4.0917,3.998,3.8984,0.0,0.0,0.0,3.2362,2.929,2.756,2.8125,2.7281,2.6961,2.7589,2.7402,2.7536,2.8125,2.7884,2.8203,2.9406,3.0261,3.1142,3.2024,3.2639,3.3106,3.3414,3.3414,3.3414,3.3414,3.3414,3.3414,3.3414,3.3414,3.3414,3.3414,3.3414,3.3748,3.4295,3.4309,3.4817,3.5538,3.5565,3.5992,3.654,3.6834,3.7286,3.7929,4.3269,4.282,4.2113,4.1062,4.035,4.0601,4.2635,4.3438,4.4794,4.7587,4.9012,5.0469,5.2302,5.2468,5.2519,5.2669,5.2076,5.1247,5.0293,4.9665,4.8987,4.8134,4.7305,4.6527,4.5874,4.4769,4.2621,3.9405,3.9184,3.7315,3.393,3.3375,3.2563,3.1679,3.285,3.3464,3.373,3.5918,3.6871,3.6797,3.6367,3.6504,3.6953,3.6792,3.5979,3.4685,3.2662,3.0908,2.948,2.9648,2.9931,3.0807,3.4376,3.5443,3.5741,3.7834,3.8418,3.8437,3.8591,3.8689,3.8691,3.8457,3.793,3.748,3.7578,3.7738,3.8086,3.8633,3.9355,3.9668,3.8906,3.8476,3.7793,0.0,0.0,0.0,3.2165,2.9783,2.8173,2.7873,2.6261,2.5653,2.6934,2.6974,2.7175,2.7762,2.7535,2.7896,2.9085,2.9579,3.0314,3.141,3.2238,3.2955,3.3414,3.3414,3.3414,3.3414,3.3414,3.3414,3.3414,3.3414,3.3414,3.3414,3.3414,3.3627,3.4015,3.4229,3.4589,3.503,3.5458,3.5992,3.658,3.7088,3.7635,3.8183,4.4418,4.4086,4.3546,4.2856,4.2231,4.2359,4.3915,4.4794,4.61,4.8492,4.9941,5.1147,5.2101,5.2594,5.2895,5.2895,5.2427,5.1875,5.1356,5.0971,5.0444,4.9615,4.8987,4.8058,4.6772,4.514,4.2795,3.9702,3.8215,3.6122,3.3488,3.2572,3.1781,3.123,3.2559,3.3242,3.3503,3.5351,3.6445,3.6875,3.6074,3.625,0.0,3.6973,3.6136,3.4846,3.3637,3.1334,2.8794,2.811,2.8526,2.9975,3.3171,3.4788,3.5924,3.8007,3.8611,3.8611,3.8611,3.8611,3.865,3.8809,3.834,3.7969,3.8379,3.834,3.834,3.8769,3.9101,3.9141,3.8594,3.7871,3.6816,3.5098,3.4551,3.366,3.1705,2.9795,2.8267,2.7416,2.5852,2.5157,2.5985,2.5906,2.6159,2.6881,2.7681,2.8064,2.7884,2.9778,3.0845,3.0621,3.1925,3.2808,3.3213,3.348,3.3547,3.3414,3.3414,3.3414,3.3414,3.3414,3.3414,3.3414,3.3414,3.3587,3.3908,3.4202,3.4496,3.4869,3.5404,3.5912,3.6366,3.6834,3.7382,3.7889,4.4598,4.4815,4.4886,4.4655,4.4765,4.4966,4.5116,4.6446,4.7857,4.8994,5.0527,5.1498,5.1498,5.2352,5.2895,5.2895,5.2443,5.2,5.1523,5.1498,5.1046,5.0067,4.9891,4.8887,4.6878,4.4986,4.2912,4.0586,3.711,3.5203,3.4759,3.2135,3.1094,3.1465,3.2383,3.3066,3.3594,3.4863,3.5996,3.6875,3.5879,3.5957,3.6753,3.7148,3.6468,3.5303,3.5445,3.2914,2.9228,2.7717,2.8374,3.0168,3.2222,3.4076,3.5924,3.8007,3.8611,3.8611,3.8611,3.8611,3.8689,3.9023,3.8848,3.8708,3.9043,3.8828,3.8708,3.9043,3.8828,3.8669,3.8828,3.7555,3.5932,3.4349,3.4375,3.377,3.1283,2.9641,2.8221,2.7003,2.581,0.0,2.513,2.4943,2.5217,2.6225,2.8033,2.8452,2.6942,3.0417,3.1685,2.9998,3.1617,3.2674,3.3026,3.3561,3.3708,3.3467,3.3427,3.3414,3.3414,3.3414,3.3414,3.3414,3.3454,3.3627,3.3908,3.4242,3.4549,3.4922,3.5378,3.5752,3.6046,3.6299,3.6767,3.7315,4.5822,4.7325,4.7973,4.511,4.5744,4.6973,4.7908,4.8686,4.9565,5.0728,5.19,5.2594,5.2594,5.277,5.2895,5.2895,5.2795,5.2694,5.2619,5.2594,5.2519,5.2318,5.1473,5.0594,4.9715,4.6331,4.3294,4.0668,3.7132,3.4486,3.2682,3.1476,3.0937,3.1055,3.2266,3.3223,3.4055,3.498,3.5293,3.5195,3.5703,3.6211,3.6753,3.7148,3.7326,3.723,3.5925,3.3949,3.1853,3.152,3.1666,3.2299,3.4339,3.5199,3.5924,3.8007,3.8611,3.8611,3.8611,3.8611,3.863,3.8708,3.8669,3.863,3.8708,3.8669,3.863,3.8708,3.8669,3.8317,3.732,3.5976,3.4824,3.4212,3.4173,3.3603,3.1945,3.0088,2.8521,2.7347,2.5973,2.517,2.5411,2.5611,2.6356,2.7865,2.8341,2.8792,2.9414,3.0424,3.0751,3.0325,3.1336,3.2305,3.332,3.344,3.3601,3.3801,3.3534,3.3414,3.3414,3.3414,3.3414,3.3427,3.3694,3.3841,3.3921,3.4521,3.4857,3.5137,3.5231,3.5444,3.5712,3.5765,3.6153,3.6727,4.7499,4.884,4.9575,4.72,4.7682,4.8786,4.9916,5.0795,5.1322,5.1297,5.1749,5.2076,5.2076,5.2578,5.2895,5.2895,5.2895,5.2895,5.2895,5.2895,5.277,5.2528,5.1724,5.087,5.0017,4.5414,4.2166,4.0327,3.5894,3.3085,3.1816,3.1191,3.0898,3.0937,3.1992,3.3098,3.4134,3.4564,3.4844,3.5098,3.5527,3.6094,3.6649,3.5944,3.5948,3.6142,3.4498,3.4001,3.3888,3.283,3.3171,3.4226,3.5199,3.6238,3.7309,3.8299,3.8611,3.8611,3.8611,3.8611,3.8669,3.8848,3.873,3.8669,3.8848,3.8767,3.8611,3.8611,3.8611,3.8278,3.7187,3.6113,3.5312,3.5117,3.4208,3.297,3.1305,2.9471,2.7706,2.6073,2.5708,2.5816,2.6471,2.698,2.7391,2.7814,2.9099,2.9638,2.9142,3.0012,3.0274,2.9664,3.0822,3.1851,3.2719,3.3347,3.3654,3.3641,3.348,3.3414,3.3414,3.3414,3.3414,3.3414,3.3574,3.3734,3.3935,3.4574,3.4989,3.5191,3.5191,3.5378,3.5591,3.5805,3.6032,3.634,4.8935,4.9879,5.0495,4.9044,4.9414,5.0243,5.1147,5.2226,5.2628,5.1749,5.1624,5.1624,5.1624,5.2402,5.2895,5.2895,5.2895,5.2895,5.2895,5.2895,5.2644,5.2126,5.1213,5.0116,4.8898,4.3627,4.0332,3.9129,3.4564,3.1992,3.1387,3.1133,3.0976,3.0918,3.1729,3.2667,3.3723,3.3997,3.4564,3.5254,3.5449,3.5976,3.656,3.5323,3.4866,3.479,3.4067,3.4526,3.5311,3.4189,3.4843,3.6146,3.6146,3.7272,3.8611,3.8611,3.8611,3.8611,3.8611,3.8611,3.8689,3.8984,3.8828,3.8689,3.8984,3.8809,3.8611,3.8611,3.8496,3.8203,3.7441,3.6738,3.6269,3.6172,3.49,3.33,3.1568,2.9785,2.7918,2.5824,2.5878,2.6318,2.6808,2.7674,2.7895,2.7078,2.9385,3.0231,2.8918,2.9604,2.9691,2.8848,3.0274,3.1383,3.2091,3.316,3.3627,3.3507,3.344,3.3414,3.3414,3.3414,3.3414,3.3414,3.3547,3.3814,3.4202,3.467,3.499,3.5191,3.5191,3.5338,3.5565,3.5805,3.5965,3.6099,4.9507,5.0627,5.1232,4.916,5.01,5.1205,5.1272,5.2226,5.2845,5.2744,5.2744,5.2744,5.2744,5.282,5.2895,5.2895,5.2895,5.2895,5.2895,5.2895,5.2644,5.2126,4.9986,4.8074,4.6549,4.1593,3.8178,3.6361,3.396,3.2129,3.0957,3.1309,3.125,3.0918,3.1367,3.1875,3.2452,3.3606,3.4368,3.4824,3.5644,3.625,3.6719,3.6918,3.6146,3.5157,3.7286,3.6922,3.5775,3.7456,3.8153,3.8299,3.8299,3.8465,3.8611,3.8611,3.8611,3.8611,3.8611,3.8611,3.863,3.8669,3.865,3.863,3.8669,3.865,3.8611,3.8611,3.8262,3.7851,3.7383,3.7226,3.7051,3.668,3.6774,3.6382,3.4849,3.3045,3.109,2.9003,2.7353,2.597,2.4965,2.6523,2.7191,2.6185,2.8262,2.9963,3.0876,2.9445,2.8499,2.8303,2.9717,3.0982,3.2091,3.2746,3.332,3.3841,3.3547,3.3414,3.3414,3.3414,3.3414,3.344,3.4002,3.4549,3.507,3.5137,3.5177,3.5191,3.5191,3.5217,3.5244,3.5271,3.5618,3.6046,4.9254,5.0601,5.1648,5.0493,5.0845,5.1498,5.2176,5.2619,5.2895,5.2895,5.2895,5.2895,5.2895,5.2895,5.2895,5.2895,5.2895,5.2895,5.2895,5.1531,5.0649,5.0429,4.7781,4.5932,4.5079,4.0934,3.8026,3.6473,3.4019,3.2266,3.1269,3.1416,3.1396,3.1289,3.1719,3.2285,3.2988,3.4023,3.4707,3.5176,3.5781,3.6133,3.621,3.5637,3.5027,3.454,3.4817,3.518,3.5608,3.646,3.7566,3.8611,3.8611,3.8398,3.8242,3.8532,3.8398,3.8242,3.8496,3.8611,3.8611,3.8611,3.8611,3.8611,3.8611,3.8611,3.8611,3.8611,3.8223,3.7949,3.8047,3.7851,3.7793,3.8125,3.732,3.6516,3.6174,3.3137,3.0547,2.9359,2.688,2.5446,2.5748,2.6376,2.7229,2.85,2.8208,2.8282,2.9063,2.7412,2.6978,2.8167,2.9072,3.0221,3.1557,3.238,3.3013,3.3601,3.3293,3.324,3.3414,3.3414,3.3414,3.344,3.3868,3.4295,3.4683,3.4857,3.5044,3.5191,3.5191,3.5191,3.5217,3.5391,3.5498,3.5551,4.9609,5.1075,5.2244,5.1453,5.1548,5.2026,5.277,5.2895,5.2895,5.2895,5.2895,5.2895,5.2895,5.2895,5.2895,5.2895,5.2895,5.2663,5.2085,5.046,4.9131,4.824,4.5563,4.3779,4.3076,3.9617,3.7195,3.6018,3.384,3.2363,3.1494,3.1641,3.1836,3.2059,3.257,3.3234,3.4043,3.4785,3.543,3.5976,3.6269,3.6387,3.6292,3.5575,3.4902,3.4414,3.4298,3.4806,3.5571,3.6201,3.7382,3.8611,3.8611,3.8359,3.8184,3.8476,3.8359,3.8184,3.8496,3.8611,3.8611,3.8611,3.8611,3.8611,3.8611,3.8611,3.8611,3.8611,3.834,3.8242,3.8672,3.8516,3.8535,3.9277,3.8311,3.7571,3.7848,3.3998,3.0988,3.0491,2.704,2.4998,2.5585,2.5557,2.623,2.801,2.7096,2.6881,2.7844,2.62,2.5984,2.7617,2.8711,2.9788,3.0955,3.1931,3.2706,3.328,3.308,3.3133,3.3414,3.3414,3.3467,3.3561,3.3788,3.4055,3.4349,3.4643,3.4936,3.5084,3.5164,3.5191,3.5217,3.5431,3.5431,3.5338,5.0996,5.2365,5.312,5.1546,5.2176,5.287,5.2895,5.2895,5.2895,5.2895,5.2895,5.2895,5.2895,5.2895,5.2895,5.2895,5.2895,5.2085,5.0162,4.9997,4.8708,4.5782,4.3458,4.1587,4.0161,3.7065,3.4994,3.4127,3.3254,3.2363,3.1494,3.1953,3.2628,3.3386,3.3848,3.4583,3.5391,3.582,3.6504,3.7266,3.7285,3.7285,3.7324,3.7718,3.6612,3.5193,3.7651,3.7216,3.5812,3.7878,3.8574,3.8611,3.8611,3.8611,3.8611,3.8611,3.8611,3.8611,3.8611,3.8611,3.8611,3.8611,3.8611,3.8611,3.8611,3.8611,3.8611,3.8611,3.8611,3.8691,3.9121,3.9199,3.9336,3.9805,4.0196,4.0469,4.0431,3.6609,3.3625,3.3298,2.8435,2.4609,2.3447,2.3629,2.3584,2.3029,2.4308,2.6074,2.8275,2.6544,2.5785,2.6386,2.8684,3.006,3.0413,3.153,3.2398,3.2986,3.2973,3.3133,3.3414,3.3414,3.3587,3.3881,3.3881,3.4055,3.4349,3.4643,3.4815,3.4842,3.5084,3.5191,3.5191,3.5204,3.5378,3.5578,5.2085,5.2949,5.3218,5.2051,5.2452,5.2895,5.2895,5.2895,5.2895,5.2895,5.2895,5.2895,5.2895,5.2895,5.2895,5.2895,5.1677,5.0657,5.0032,4.7223,4.5034,4.3751,4.1419,3.9554,3.8232,3.6947,3.558,3.4114,3.4082,3.3809,3.3293,3.343,3.3801,3.4316,3.4766,3.5605,3.6699,3.6836,3.7207,3.7695,3.7402,3.7305,3.7344,3.7773,3.7515,3.6886,3.6588,3.6959,3.7492,3.6737,3.7419,3.8611,3.8611,3.8359,3.8184,3.8532,3.8359,3.8203,3.8496,3.8611,3.8611,3.8611,3.8611,3.8611,3.8611,3.8789,3.9101,3.9414,3.9473,3.9512,3.9648,3.9902,4.0156,4.0293,4.0684,4.0376,3.8677,3.5414,3.2369,3.0137,2.6536,2.391,2.3086,2.3509,2.3977,2.4379,2.4847,2.5418,2.6101,2.6119,2.6373,2.7015,2.8511,2.9802,3.0942,3.1717,3.2492,3.3267,3.3066,3.3133,3.3414,3.3414,3.3467,3.3561,3.3561,3.3734,3.4042,3.4336,3.4456,3.4509,3.5004,3.507,3.4923,3.5124,3.5257,3.5324,5.3144,5.4102,5.4281,5.243,5.2519,5.2895,5.2895,5.2895,5.2895,5.2895,5.2895,5.2895,5.2895,5.2895,5.2895,5.2895,5.1128,4.9677,4.8902,4.5661,4.3168,4.201,4.0162,3.8672,3.7559,3.6816,3.582,3.4603,3.4492,3.4414,3.4349,3.4349,3.4805,3.5684,3.5976,3.6738,3.7773,3.7773,3.793,3.8144,3.7891,3.7773,3.7812,3.8066,3.8164,3.8022,3.7012,3.7492,3.8372,3.7106,3.7529,3.8611,3.8611,3.8379,3.8223,3.8496,3.8379,3.8223,3.8532,3.8611,3.8611,3.8611,3.8691,3.8848,3.906,3.9277,3.9551,3.9844,3.9902,3.9941,4.0098,4.0351,4.0586,4.0742,4.0297,3.9343,3.7563,3.4064,3.0858,2.8751,2.5983,2.4058,2.3455,2.4151,2.4767,2.5088,2.5623,2.5837,2.5585,2.6199,2.6774,2.7296,2.8631,2.986,3.0889,3.1704,3.2438,3.3093,3.312,3.324,3.3414,3.3414,3.3414,3.3414,3.3414,3.3521,3.3734,3.4148,3.4255,3.4229,3.4923,3.5017,3.4855,3.5084,3.5191,3.5191,5.4113,5.5456,5.5829,5.27,5.2544,5.2895,5.2895,5.2895,5.2895,5.2895,5.2895,5.2895,5.2895,5.2895,5.2895,5.2895,5.0998,4.8938,4.6919,4.4977,4.287,4.0623,3.9707,3.8848,3.7952,3.6777,3.5937,3.5488,3.4662,3.4414,3.4785,3.4785,3.5684,3.7305,3.7305,3.7773,3.8611,3.8611,3.8611,3.8611,3.8611,3.8611,3.8611,3.8611,3.8611,3.8574,3.8465,3.8465,3.8574,3.8428,3.8501,3.8611,3.8611,3.8611,3.8611,3.8611,3.8611,3.8611,3.8611,3.8611,3.8611,3.865,3.8945,3.9375,3.9824,3.9941,3.9941,3.998,3.998,4.0098,4.0488,4.0528,4.0665,4.0899,3.9218,3.7571,3.6626,3.2516,2.9333,2.8574,2.6505,2.4941,2.4315,2.5342,2.581,2.5275,2.6506,2.7041,2.648,2.6747,2.7054,2.7389,2.9045,3.0114,3.0493,3.157,3.2291,3.2661,3.3146,3.3414,3.3414,3.3414,3.3414,3.3414,3.3414,3.3414,3.3454,3.4042,3.4135,3.3975,3.483,3.5004,3.4855,3.5084,3.5191,3.5191,5.4343,5.4722,5.4596,5.3003,5.2795,5.2895,5.2895,5.2895,5.2895,5.2895,5.2895,5.2895,5.2895,5.2895,5.2895,5.2895,4.9712,4.6882,4.4902,4.2961,4.1497,4.0547,4.0019,3.9316,3.8437,3.7793,3.7109,3.6401,3.582,3.5605,3.5669,3.5669,3.6269,3.7305,3.7305,3.7773,3.8611,3.8611,3.8611,3.8611,3.8611,3.8611,3.8611,3.8611,3.8611,3.8372,3.6811,3.7272,3.8336,3.6774,3.7309,3.8611,3.8611,3.8611,3.8611,3.8611,3.8611,3.8611,3.8611,3.8611,3.8652,3.8965,3.9394,3.9844,4.0273,4.0371,4.0469,4.0801,4.0879,4.0937,4.0996,4.1016,4.053,3.8943,3.8055,3.6113,3.1959,3.0338,2.8544,2.563,2.5577,2.5556,2.4967,2.5732,2.6319,2.64,2.6734,2.6961,2.7095,2.759,2.8018,2.8283,2.9566,3.0654,3.1403,3.2126,3.2755,3.3213,3.3347,3.3414,3.3414,3.3414,3.3414,3.3414,3.3414,3.3414,3.344,3.3828,3.3948,3.3948,3.4603,3.4882,3.4855,3.5084,3.5191,3.5191,5.4853,5.4905,5.4477,5.3128,5.2895,5.2895,5.2895,5.2895,5.2895,5.2895,5.2669,5.2519,5.2519,5.2327,5.1811,5.0882,4.8479,4.6551,4.55,4.279,4.0976,4.0508,4.0117,3.9473,3.863,3.8144,3.7598,3.6953,3.6719,3.6504,3.6309,3.6309,3.6562,3.7012,3.7207,3.7656,3.8281,3.8496,3.8611,3.8611,3.8611,3.8611,3.8611,3.8611,3.8611,3.8465,3.7309,3.7639,3.8428,3.7309,3.7695,3.8611,3.8611,3.8611,3.8611,3.8611,3.8611,3.865,3.8809,3.8867,3.9004,3.9648,4.0,4.0293,4.0723,4.082,4.0879,4.1172,4.1211,4.088,3.9864,3.9688,3.8945,3.6614,3.514,3.3166,2.9899,2.8584,2.7161,2.5052,2.5598,2.6079,2.5892,2.6547,2.7001,2.7028,2.7268,2.7536,2.7697,2.8272,2.8631,2.8804,2.982,3.0761,3.1463,3.2233,3.2888,3.3414,3.3414,3.3414,3.3414,3.3414,3.3414,3.3414,3.3414,3.3414,3.344,3.3761,3.3801,3.3748,3.4482,3.4655,3.4429,3.499,3.511,3.5017,5.5015,5.5015,5.4575,5.3145,5.2895,5.2895,5.2895,5.2895,5.2895,5.2895,5.2418,5.2101,5.2101,5.1599,5.062,4.8896,4.7553,4.6681,4.6366,4.2984,4.082,4.0449,4.0019,3.9434,3.8728,3.8242,3.7812,3.7402,3.7402,3.7168,3.6792,3.6734,3.6734,3.6812,3.7148,3.7539,3.7913,3.8398,3.8611,3.8611,3.8611,3.8611,3.8611,3.8611,3.8611,3.8611,3.8611,3.8611,3.8611,3.8611,3.8611,3.8611,3.8611,3.8611,3.8611,3.8611,3.8611,3.8652,3.9004,3.9199,3.9492,4.0274,4.0528,4.0723,4.1094,4.1211,4.1211,4.1211,4.0919,4.0138,3.8271,3.7657,3.66,3.4133,3.1853,3.0002,2.8801,2.7133,2.5931,2.5558,2.6146,2.668,2.6894,2.7442,2.7682,2.7523,2.7965,2.8272,2.8312,2.8804,2.9108,2.9188,3.0007,3.0742,3.1423,3.2219,3.2888,3.3414,3.3414,3.3414,3.3414,3.3414,3.3414,3.3414,3.3414,3.3414,3.3427,3.3708,3.3681,3.3561,3.4376,3.4389,3.4055,3.4883,3.5017,3.4855,5.3316,5.3316,5.3213,5.2964,5.2895,5.2895,5.2895,5.2895,5.2895,5.2895,5.2418,5.2101,5.2101,5.1599,5.1172,5.088,4.776,4.508,4.3376,4.1298,4.0059,4.0,3.9551,3.9238,3.9101,3.8691,3.8262,3.7832,3.7832,3.7617,3.7187,3.6871,3.689,3.7207,3.7266,3.7539,3.7913,3.8398,3.8611,3.8611,3.8611,3.8611,3.8611,3.8611,3.8611,3.8611,3.8611,3.8611,3.8611,3.8611,3.8611,3.8611,3.8611,3.8611,3.8611,3.8611,3.8611,3.863,3.8689,3.9219,3.9902,4.0391,4.0801,4.1094,4.1191,4.1211,4.1211,4.1211,3.9707,3.831,3.7975,3.6442,3.4374,3.1894,3.0765,2.9203,2.6446,2.6232,2.6119,2.5585,2.668,2.7509,2.7562,2.7911,2.8205,2.8377,2.8484,2.8644,2.8841,2.9232,2.9646,3.0186,3.0528,3.1296,3.238,3.2527,3.2888,3.3414,3.3414,3.3414,3.3414,3.3414,3.3414,3.3414,3.3414,3.3414,3.3414,3.3467,3.3614,3.3855,3.4242,3.4336,3.4322,3.4963,3.5017,3.4855,5.4089,5.3529,5.3179,5.4089,5.3495,5.2895,5.2895,5.2895,5.2895,5.2895,5.2176,5.1649,5.1649,5.0896,5.0368,5.0368,4.6724,4.4115,4.3467,4.122,3.9785,3.9531,3.9316,3.9101,3.8867,3.8708,3.8476,3.8281,3.8281,3.8066,3.7637,3.7441,3.7324,3.7305,3.7539,3.7734,3.7913,3.8398,3.8611,3.8611,3.8611,3.8611,3.8611,3.8611,3.8711,3.8887,3.8689,3.873,3.8887,3.8689,3.8611,3.8611,3.8611,3.8767,3.8906,3.8906,3.9082,3.9297,3.9297,3.9922,4.0625,4.082,4.1035,4.1211,4.1211,4.0275,3.9413,3.9413,3.7697,3.5822,3.4611,3.3594,3.2109,2.9637,2.8601,2.7653,2.6371,2.6186,2.6265,2.644,2.7376,2.8045,2.8177,2.8457,2.8684,2.8831,2.8991,2.9138,2.9272,2.9713,3.0199,3.0581,3.1036,3.1597,3.2291,3.2514,3.2808,3.3187,3.3334,3.3414,3.3414,3.3414,3.3414,3.3414,3.3414,3.3414,3.3414,3.3414,3.3494,3.3654,3.3975,3.3988,3.3908,3.4509,3.4536,3.4349,5.4642,5.4089,5.3776,5.4675,5.3742,5.2895,5.2895,5.2895,5.2895,5.2895,5.2076,5.1423,5.1297,5.0393,4.969,4.9414,4.5832,4.3645,4.388,4.1203,3.9434,3.9062,3.9062,3.8906,3.8611,3.8611,3.8611,3.8611,3.8611,3.8398,3.8066,3.7933,3.7754,3.7461,3.7738,3.7894,3.7913,3.8398,3.8611,3.8611,3.8611,3.8611,3.863,3.8691,3.8926,3.918,3.8965,3.9082,3.9316,3.8984,3.8923,3.8867,3.875,3.9023,3.9336,3.9238,3.9609,4.0059,4.0156,4.0605,4.1055,4.1191,4.1211,4.1055,4.0568,3.9119,3.7777,3.7241,3.542,3.339,3.1722,3.0993,2.9993,2.8026,2.7081,2.664,2.676,2.6493,2.6573,2.7322,2.7924,2.8419,2.8684,2.8935,2.9121,2.9188,2.9459,2.9646,2.978,3.0199,3.0574,3.0889,3.1396,3.1885,3.2198,3.2474,3.2781,3.308,3.3307,3.3414,3.3414,3.3414,3.3414,3.3414,3.3414,3.3414,3.3414,3.3414,3.3414,3.344,3.3761,3.3694,3.348,3.4095,3.4135,3.3961,5.3359,5.4231,5.4775,5.3325,5.2973,5.2895,5.2895,5.2895,5.2895,5.2895,5.2402,5.185,5.1348,5.072,4.9941,4.8944,4.5916,4.3835,4.3398,4.0421,3.8689,3.865,3.865,3.865,3.8611,3.8611,3.8611,3.8611,3.8611,3.8591,3.8552,3.8105,3.7874,3.7835,3.7874,3.7894,3.7913,3.8398,3.8611,3.8611,3.8611,3.8611,3.865,3.9004,3.918,3.9258,3.9648,3.9824,3.9844,3.9805,3.9805,3.9726,3.9297,3.9473,3.9766,3.9336,3.9805,4.0566,4.1015,4.084,4.0664,4.1074,4.1211,4.0685,3.8587,3.8015,3.7321,3.5339,3.3186,3.1598,3.1433,2.9774,2.8295,2.7791,2.7415,2.7108,2.6854,2.7028,2.7336,2.7629,2.8203,2.8684,2.8935,2.9272,2.9566,2.9833,2.9873,3.0127,3.0675,3.0533,3.0667,3.1122,3.1503,3.1992,3.2554,3.2581,3.2875,3.3374,3.34,3.3414,3.3414,3.3414,3.3414,3.3414,3.3414,3.3414,3.3414,3.3414,3.3414,3.344,3.3761,3.3694,3.348,3.4095,3.4135,3.3935,5.7533,5.6407,5.5518,5.6004,5.4325,5.2895,5.2895,5.2895,5.2895,5.2895,5.2151,5.1523,5.1297,5.0469,4.9741,4.9314,4.5616,4.3422,4.3768,4.0038,3.8063,3.8591,3.8611,3.8611,3.8611,3.8611,3.8611,3.8611,3.7309,3.6682,3.6682,3.6496,3.6422,3.6458,3.7757,3.832,3.834,3.8496,3.8611,3.8611,3.8611,3.8767,3.8984,3.9141,3.9551,4.0019,3.9922,4.0059,4.0234,3.998,3.9902,3.9863,3.9687,3.9941,4.0293,4.0391,4.0664,4.0957,4.1172,4.1055,4.0976,4.1172,4.1211,4.0627,3.839,3.6882,3.5298,3.3104,3.091,2.9411,2.9411,2.8876,2.8337,2.8072,2.7764,2.7603,2.767,2.7575,2.7709,2.8203,2.8791,2.9192,2.9299,2.9579,2.9873,3.0167,3.0194,3.0287,3.056,3.0595,3.0902,3.1476,3.161,3.1912,3.2313,3.25,3.2795,3.3146,3.332,3.3414,3.3414,3.3414,3.3414,3.3414,3.3414,3.3414,3.3414,3.3414,3.3414,3.3427,3.3547,3.3521,3.344,3.3668,3.3694,3.3627,5.9567,5.8233,5.7026,5.7149,5.5214,5.3529,5.2998,5.2895,5.282,5.2644,5.2026,5.1398,5.1046,5.0318,4.9715,4.9364,4.5569,4.3343,4.3623,3.9791,3.7812,3.8591,3.8437,3.8437,3.8611,3.8611,3.8263,3.7621,3.6183,3.5162,3.4564,3.5199,3.5497,3.5571,3.7695,3.8611,3.8611,3.8611,3.8611,3.8611,3.8611,3.8828,3.9219,3.9355,3.9883,4.0469,4.0351,4.0488,4.0684,4.0391,4.0293,4.0273,4.0137,4.0293,4.0605,4.1035,4.1211,4.1211,4.1211,4.1211,4.1211,4.1211,4.0685,3.957,3.7379,3.5218,3.3022,3.0827,2.9202,2.8219,2.8312,2.847,2.8564,2.8486,2.8257,2.819,2.8433,2.8243,2.831,2.8818,2.9874,3.0588,3.0729,3.0962,3.1267,3.1572,3.0944,3.0547,3.0547,3.0768,3.1116,3.1517,3.1671,3.181,3.2104,3.2447,3.2741,3.2986,3.328,3.3414,3.3414,3.3414,3.3414,3.3414,3.3414,3.3414,3.3414,3.3414,3.3414,3.3414,3.3414,3.3414,3.3414,3.3414,3.3414,3.344,5.8383,5.938,5.9444,5.6016,5.5419,5.4816,5.3145,5.2895,5.2694,5.2176,5.2101,5.1674,5.0544,5.0386,4.9967,4.8862,4.5906,4.3656,4.2638,3.9659,3.8125,3.8591,3.8164,3.8125,3.8591,3.8611,3.7566,3.5497,3.546,3.4451,3.2543,3.4526,3.546,3.5571,3.7695,3.8611,3.8611,3.8611,3.8611,3.8611,3.8611,3.8828,3.9258,3.9726,4.0156,4.0586,4.1016,4.1211,4.1211,4.1211,4.1211,4.1132,4.0664,4.0489,4.0605,4.1055,4.1211,4.1211,4.1211,4.1211,4.1211,4.1211,3.9531,3.7321,3.5177,3.2981,3.0786,2.867,2.8221,2.8272,2.8551,2.8604,2.8711,2.8948,2.9001,2.9001,2.9001,2.9001,2.9108,2.9446,3.1495,3.3021,3.335,3.3635,3.3874,3.4141,3.2088,3.0795,3.0795,3.1062,3.1223,3.1176,3.1517,3.181,3.2091,3.2447,3.2741,3.2986,3.328,3.3414,3.3414,3.3414,3.3414,3.3414,3.3414,3.3414,3.3414,3.3414,3.3414,3.3414,3.3414,3.3414,3.3414,3.3414,3.3414,3.3414,6.1673,6.1019,5.9812,5.7596,5.6239,5.4816,5.3145,5.2895,5.2845,5.2669,5.2,5.1398,5.1071,5.0318,4.9179,4.7546,4.5131,4.241,3.9476,3.8438,3.8125,3.8591,3.8493,3.8474,3.8611,3.8611,3.7566,3.5497,3.4076,3.3095,3.2505,3.3095,3.4151,3.5571,3.7695,3.8611,3.8611,3.8611,3.8611,3.8594,3.8887,3.9277,3.9726,4.0176,4.0605,4.0996,4.1172,4.1211,4.1211,4.1211,4.1211,4.1191,4.1016,4.0976,4.1016,4.1172,4.1211,4.1211,4.1211,4.1211,4.1211,4.1211,3.9531,3.7321,3.5177,3.2981,3.1241,3.0592,2.9244,2.8723,3.0508,2.9755,2.8895,2.8988,2.9219,2.9272,2.9028,2.9219,2.9379,2.9472,3.0267,3.0818,3.0945,3.1236,3.1457,3.154,3.0885,3.0627,3.0782,3.0675,3.0808,3.1209,3.1316,3.1503,3.1845,3.234,3.2741,3.2986,3.328,3.3414,3.3414,3.3414,3.3414,3.3414,3.3414,3.3414,3.3414,3.3414,3.3414,3.3414,3.3414,3.3414,3.3414,3.3414,3.3414,3.3414,6.3108,6.2263,6.0989,5.9287,5.7565,5.5847,5.4156,5.3325,5.2744,5.2327,5.1875,5.1348,5.0695,5.0193,4.9083,4.6988,4.4086,4.1191,3.838,3.7991,3.8125,3.8591,3.8611,3.8611,3.8611,3.8611,3.7566,3.5497,3.4264,3.3285,3.2505,3.3322,3.4339,3.5571,3.7695,3.8611,3.8611,3.8611,3.8611,3.865,3.9023,3.9473,3.9941,4.0371,4.0801,4.1211,4.1211,4.1211,4.1211,4.1211,4.1211,4.1211,4.1211,4.1211,4.1211,4.1211,4.1211,4.1211,4.1211,4.1211,4.1211,4.1211,3.9531,3.7321,3.5177,3.3676,3.2463,3.1557,3.1076,3.0971,3.1658,3.0994,3.0044,2.9323,2.9459,2.9593,2.9362,2.9539,2.9659,2.9659,3.064,3.1257,3.1257,3.1536,3.1426,3.0606,3.0467,3.048,3.0608,3.0614,3.0688,3.1036,3.1276,3.149,3.1711,3.2179,3.2567,3.2862,3.3213,3.3414,3.3414,3.3414,3.3414,3.3414,3.3414,3.3414,3.3414,3.3414,3.3414,3.3414,3.3414,3.3414,3.3414,3.3414,3.3414,3.3414,6.3108,6.3108,6.2555,6.081,5.9104,5.7432,5.5683,5.3987,5.2578,5.1548,5.1825,5.1498,4.9916,5.0142,4.9356,4.6779,4.2848,3.9956,3.8641,3.8184,3.8144,3.8496,3.8591,3.8611,3.8611,3.8611,3.7566,3.5497,3.5497,3.4564,3.2809,3.4639,3.5589,3.5849,3.7768,3.863,3.8669,3.8669,3.8689,3.8767,3.9141,3.957,4.0,4.043,4.084,4.1211,4.1211,4.1211,4.1211,4.1211,4.1211,4.1211,4.1211,4.1211,4.1211,4.1211,4.1211,4.1211,4.1211,4.1211,4.1211,4.1211,3.9688,3.7618,3.5477,3.4813,3.4164,3.2381,3.3463,3.4204,3.2442,3.2242,3.1742,2.9856,2.974,2.9913,2.9913,2.9913,2.9913,2.9913,3.179,3.3087,3.3087,3.3309,3.2691,3.0953,3.0501,3.0373,3.04,3.0581,3.0742,3.0795,3.1316,3.1657,3.1711,3.1984,3.2278,3.2607,3.3106,3.3387,3.3414,3.3414,3.3414,3.3414,3.3414,3.3414,3.3414,3.3414,3.3414,3.3414,3.3414,3.3414,3.3414,3.3414,3.3414,3.3414,6.3018,6.3108,6.2555,6.081,5.9104,5.7432,5.5683,5.3987,5.282,5.2569,5.2302,5.18,5.0996,5.0619,4.8869,4.5028,4.1207,3.879,3.8086,3.8301,3.832,3.8086,3.8398,3.8611,3.8611,3.8611,3.7566,3.5497,3.5497,3.5291,3.4861,3.5291,3.6386,3.7951,3.8372,3.875,3.9062,3.9062,3.9277,3.9648,4.0059,4.0293,4.043,4.0859,4.1094,4.1211,4.1211,4.1211,4.1211,4.1211,4.1211,4.1211,4.1211,4.1211,4.1211,4.1211,4.1211,4.1211,4.1211,4.1211,4.1211,4.1211,4.0841,3.9903,3.7697,3.5903,3.5016,3.6224,3.5778,3.5056,3.4751,3.3638,3.212,3.0123,2.9873,2.9913,2.9913,2.9913,2.9913,2.9913,3.0348,3.066,3.066,3.0715,3.075,3.0801,3.0314,3.0114,3.04,3.0194,3.0314,3.0782,3.0915,3.1209,3.1711,3.2233,3.2527,3.2594,3.2955,3.3187,3.3414,3.3414,3.3414,3.3414,3.3414,3.3414,3.3414,3.3414,3.3414,3.3414,3.3414,3.3414,3.3414,3.3414,3.3414,3.3414,6.248,6.26,6.246,6.1851,5.9657,5.7687,5.6763,5.45,5.2694,5.2201,5.2126,5.1699,5.0594,4.9669,4.7417,4.3136,4.0192,3.8398,3.7913,3.8144,3.8164,3.7894,3.8144,3.8359,3.8611,3.8611,3.8177,3.7277,3.7089,3.7184,3.7577,3.7146,3.768,3.8867,3.8867,3.9004,3.9219,3.9434,3.9668,3.9941,4.0351,4.0489,4.0528,4.1016,4.1211,4.1211,4.1211,4.1211,4.1211,4.1211,4.1211,4.1211,4.1211,4.1211,4.1211,4.1211,4.1211,4.1211,4.1211,4.1211,4.1211,4.1211,4.1211,4.0627,3.839,3.7856,3.7834,3.7896,3.8018,3.7868,3.71,3.5397,3.3512,3.1637,3.052,2.9913,2.9913,2.9913,2.9913,2.9913,2.9913,2.9913,2.9913,2.9913,3.0047,3.0354,3.0087,3.0047,3.0386,3.0341,3.0541,3.0982,3.1142,3.1356,3.1711,3.2019,3.2313,3.2594,3.2973,3.3267,3.3414,3.3414,3.3414,3.3414,3.3414,3.3414,3.3414,3.3414,3.3414,3.3414,3.3414,3.3414,3.3414,3.3414,3.3414,3.3414,6.1792,6.2032,6.2154,6.2314,5.994,5.7882,5.7487,5.4778,5.2452,5.1548,5.1455,5.0887,4.9319,4.7556,4.5062,4.1524,3.9537,3.8281,3.7851,3.7812,3.7793,3.7715,3.7816,3.8086,3.8457,3.8571,3.875,3.9101,3.875,3.8982,3.9648,3.8962,3.8769,3.9101,3.916,3.9238,3.9355,3.9805,4.0039,4.0137,4.0488,4.0644,4.0664,4.1035,4.1211,4.1211,4.1211,4.1211,4.1211,4.1211,4.1211,4.1211,4.1211,4.1211,4.1211,4.1211,4.1211,4.1211,4.1211,4.1211,4.1211,4.1211,4.1211,4.0724,3.8882,3.9864,4.0685,3.8843,3.9999,4.0721,3.8839,3.7186,3.5378,3.3216,3.149,3.0249,2.9958,2.9913,2.9913,2.9913,2.9913,2.9913,2.9913,2.9913,2.994,2.998,2.9993,3.01,3.0386,3.0635,3.0902,3.1142,3.1436,3.1623,3.1711,3.1764,3.2059,3.2607,3.3026,3.332,3.3414,3.3414,3.3414,3.3414,3.3414,3.3414,3.3414,3.3414,3.3414,3.3414,3.3414,3.3414,3.3414,3.3414,3.3414,3.3414,6.1104,6.1702,6.1513,5.9626,5.8581,5.7336,5.5349,5.3469,5.2176,5.2026,5.023,4.856,4.7464,4.395,4.1393,4.0829,3.9075,3.7832,3.7402,3.7383,3.7226,3.689,3.7539,3.7913,3.7972,3.8379,3.865,3.8689,3.865,3.8669,3.875,3.8669,3.865,3.8708,3.9043,3.9434,3.9824,4.0254,4.0664,4.1035,4.1055,4.1132,4.1094,4.1191,4.1211,4.1211,4.1211,4.1211,4.1211,4.1211,4.1211,4.1211,4.1211,4.1211,4.1211,4.1211,4.1211,4.1211,4.1211,4.1211,4.1211,4.1211,4.1211,4.1133,4.0802,4.1016,4.1133,4.0802,4.1249,4.1028,3.8755,3.8431,3.7235,3.3345,3.2498,3.1726,3.0142,2.9913,2.9913,2.9913,2.9913,2.9913,2.9913,2.9913,3.002,3.0333,3.0346,3.036,3.04,3.0635,3.0808,3.0849,3.1129,3.141,3.1711,3.1917,3.2211,3.2594,3.2674,3.2969,3.3414,3.3414,3.3414,3.3414,3.3414,3.3414,3.3414,3.3414,3.3414,3.3414,3.3414,3.3414,3.3414,3.3414,3.3414,3.3414,6.0416,6.0071,5.9449,5.8812,5.6996,5.5327,5.4293,5.184,4.9972,4.9679,4.7606,4.5849,4.5077,4.2214,3.9952,3.8893,3.8054,3.7402,3.6973,3.6953,3.691,3.6714,3.7246,3.7676,3.7874,3.8359,3.8611,3.8611,3.8611,3.8865,3.9297,3.8845,3.8728,3.8926,3.9121,3.9453,3.9922,4.0351,4.0781,4.1211,4.1211,4.1211,4.1211,4.1211,4.1211,4.1211,4.1211,4.1211,4.1211,4.1211,4.1211,4.1211,4.1211,4.1211,4.1211,4.1211,4.1211,4.1211,4.1211,4.1211,4.1211,4.1211,4.1211,4.1211,4.1211,4.1211,4.1211,4.1211,4.1328,4.1229,4.0392,3.9362,3.7736,3.5083,3.3563,3.2019,3.0173,2.9913,2.9913,2.9913,2.9913,2.9913,2.9913,3.0074,3.0221,3.04,3.04,3.0547,3.0822,3.0808,3.0942,3.1276,3.141,3.153,3.1711,3.1845,3.2011,3.2305,3.2514,3.2902,3.34,3.324,3.3253,3.3414,3.3414,3.3414,3.3414,3.3414,3.3414,3.3414,3.3414,3.3414,3.3414,3.3414,3.3414,3.3414]},{"header":{"parameterUnit":"m.s-1","parameterCategory":1,"la1":30.6,"la2":28.766,"lo1":-90.7593,"lo2":-88.6598,"dy":0.0162,"dx":0.0183,"nx":116,"ny":114,"refTime":"2023-04-10T06:00:00:Z","depth":0,"parameterNumber":3,"parameterNumberName":"V-component_of_WINDS"},"data":[0.0,0.0,0.0,0.0,0.0,0.0,0.0,0.0,0.0,0.0,0.0,0.0,0.0,0.0,0.0,0.0,0.0,0.0,0.0,0.0,0.0,0.0,0.0,0.0,0.0,0.0,0.0,0.0,0.0,0.0,0.0,0.0,0.0,0.0,0.0,0.0,0.0,0.0,0.0,0.0,0.0,0.0,0.0,0.0,0.0,0.0,0.0,0.0,0.0,0.0,0.0,0.0,0.0,0.0,0.0,0.0,0.0,0.0,0.0,0.0,0.0,0.0,0.0,0.0,0.0,0.0,0.0,0.0,0.0,0.0,0.0,0.0,0.0,0.0,0.0,0.0,0.0,0.0,0.0,0.0,0.0,0.0,0.0,0.0,0.0,0.0,0.0,0.0,0.0,0.0,0.0,0.0,0.0,0.0,0.0,0.0,0.0,0.0,0.0,0.0,0.0,0.0,0.0,0.0,0.0,0.0,0.0,0.0,0.0,0.0,0.0,0.0,0.0,0.0,0.0,0.0,0.0,0.0,0.0,0.0,0.0,0.0,0.0,0.0,0.0,0.0,0.0,0.0,0.0,0.0,0.0,0.0,0.0,0.0,0.0,0.0,0.0,0.0,0.0,0.0,0.0,0.0,0.0,0.0,0.0,0.0,0.0,0.0,0.0,0.0,0.0,0.0,0.0,0.0,0.0,0.0,0.0,0.0,0.0,0.0,0.0,0.0,0.0,0.0,0.0,0.0,0.0,0.0,0.0,0.0,0.0,0.0,0.0,0.0,0.0,0.0,0.0,0.0,0.0,0.0,0.0,0.0,0.0,0.0,0.0,0.0,0.0,0.0,0.0,0.0,0.0,0.0,0.0,0.0,0.0,0.0,0.0,0.0,0.0,0.0,0.0,0.0,0.0,0.0,0.0,0.0,0.0,0.0,0.0,0.0,0.0,0.0,0.0,0.0,0.0,0.0,0.0,0.0,0.0,0.0,0.0,0.0,0.0,0.0,0.0,0.0,0.0,0.0,0.0,0.0,0.0,0.0,0.0,0.0,0.0,0.0,0.0,0.0,0.0,0.0,0.0,0.0,0.0,0.0,0.0,0.0,0.0,0.0,0.0,0.0,0.0,0.0,0.0,0.0,0.0,0.0,0.0,0.0,0.0,0.0,0.0,0.0,0.0,0.0,0.0,0.0,0.0,0.0,0.0,0.0,0.0,0.0,0.0,0.0,0.0,0.0,0.0,0.0,0.0,0.0,0.0,0.0,0.0,0.0,0.0,0.0,0.0,0.0,0.0,0.0,0.0,0.0,0.0,0.0,0.0,0.0,0.0,0.0,0.0,0.0,0.0,0.0,0.0,0.0,0.0,0.0,0.0,0.0,0.0,0.0,0.0,0.0,0.0,0.0,0.0,0.0,0.0,0.0,0.0,0.0,0.0,0.0,0.0,0.0,0.0,0.0,0.0,0.0,0.0,0.0,0.0,0.0,0.0,0.0,0.0,0.0,0.0,0.0,0.0,0.0,0.0,0.0,0.0,0.0,0.0,0.0,0.0,0.0,0.0,0.0,0.0,0.0,0.0,0.0,0.0,0.0,0.0,0.0,0.0,0.0,0.0,0.0,0.0,0.0,0.0,0.0,0.0,0.0,0.0,0.0,0.0,0.0,0.0,0.0,0.0,0.0,0.0,0.0,0.0,0.0,0.0,0.0,0.0,0.0,0.0,0.0,0.0,0.0,0.0,0.0,0.0,0.0,0.0,0.0,0.0,0.0,0.0,0.0,0.0,0.0,0.0,0.0,0.0,0.0,0.0,0.0,0.0,0.0,0.0,0.0,0.0,0.0,0.0,0.0,0.0,0.0,0.0,0.0,0.0,0.0,0.0,0.0,0.0,0.0,0.0,0.0,0.0,0.0,0.0,0.0,0.0,0.0,0.0,0.0,0.0,0.0,0.0,0.0,0.0,0.0,0.0,0.0,0.0,0.0,0.0,0.0,0.0,0.0,0.0,0.0,0.0,0.0,0.0,0.0,0.0,0.0,0.0,0.0,0.0,0.0,0.0,0.0,0.0,0.0,0.0,0.0,0.0,0.0,0.0,0.0,0.0,0.0,0.0,0.0,0.0,0.0,0.0,0.0,0.0,0.0,0.0,0.0,0.0,0.0,0.0,0.0,0.0,0.0,0.0,0.0,0.0,0.0,0.0,0.0,0.0,0.0,0.0,0.0,0.0,0.0,0.0,0.0,0.0,0.0,0.0,0.0,0.0,0.0,0.0,0.0,0.0,0.0,0.0,0.0,0.0,0.0,0.0,0.0,0.0,0.0,0.0,0.0,0.0,0.0,0.0,0.0,0.0,0.0,0.0,0.0,0.0,0.0,0.0,0.0,0.0,0.0,0.0,0.0,0.0,0.0,0.0,0.0,0.0,0.0,0.0,0.0,0.0,0.0,0.0,0.0,0.0,0.0,0.0,0.0,0.0,0.0,0.0,0.0,0.0,0.0,0.0,0.0,0.0,0.0,0.0,0.0,0.0,0.0,0.0,0.0,0.0,0.0,0.0,0.0,0.0,0.0,0.0,0.0,0.0,0.0,0.0,0.0,0.0,0.0,0.0,0.0,0.0,0.0,0.0,0.0,0.0,0.0,0.0,0.0,0.0,0.0,0.0,0.0,0.0,0.0,0.0,0.0,0.0,0.0,0.0,0.0,0.0,0.0,0.0,0.0,0.0,0.0,0.0,0.0,0.0,0.0,0.0,0.0,0.0,0.0,0.0,0.0,0.0,0.0,0.0,0.0,0.0,0.0,0.0,0.0,0.0,0.0,0.0,0.0,0.0,0.0,0.0,0.0,0.0,0.0,0.0,0.0,0.0,0.0,0.0,0.0,0.0,0.0,0.0,0.0,0.0,0.0,0.0,0.0,0.0,0.0,0.0,0.0,0.0,0.0,0.0,0.0,0.0,0.0,0.0,0.0,0.0,0.0,0.0,0.0,0.0,0.0,0.0,0.0,0.0,0.0,0.0,0.0,0.0,0.0,0.0,0.0,0.0,0.0,0.0,0.0,0.0,0.0,0.0,0.0,0.0,0.0,0.0,0.0,0.0,0.0,0.0,0.0,0.0,0.0,0.0,0.0,0.0,0.0,0.0,0.0,0.0,0.0,0.0,0.0,0.0,0.0,0.0,0.0,0.0,0.0,0.0,0.0,0.0,0.0,0.0,0.0,0.0,0.0,0.0,0.0,0.0,0.0,0.0,0.0,0.0,0.0,0.0,0.0,0.0,0.0,0.0,0.0,0.0,0.0,0.0,0.0,0.0,0.0,0.0,0.0,0.0,0.0,0.0,0.0,0.0,0.0,0.0,0.0,0.0,0.0,0.0,0.0,0.0,0.0,0.0,0.0,0.0,0.0,0.0,0.0,0.0,0.0,0.0,0.0,0.0,0.0,0.0,0.0,0.0,0.0,0.0,0.0,0.0,0.0,0.0,0.0,0.0,0.0,0.0,0.0,0.0,0.0,0.0,0.0,0.0,0.0,0.0,0.0,0.0,0.0,0.0,0.0,0.0,0.0,0.0,0.0,0.0,0.0,0.0,0.0,0.0,0.0,0.0,0.0,0.0,0.0,0.0,0.0,0.0,0.0,0.0,0.0,0.0,0.0,0.0,0.0,0.0,0.0,0.0,0.0,0.0,0.0,0.0,0.0,0.0,0.0,0.0,0.0,0.0,0.0,0.0,0.0,0.0,0.0,0.0,0.0,0.0,0.0,0.0,0.0,0.0,0.0,0.0,0.0,0.0,0.0,0.0,0.0,0.0,0.0,0.0,0.0,0.0,0.0,0.0,0.0,0.0,0.0,0.0,0.0,0.0,0.0,0.0,0.0,0.0,0.0,0.0,0.0,0.0,0.0,0.0,0.0,0.0,0.0,0.0,0.0,0.0,0.0,0.0,0.0,0.0,0.0,0.0,0.0,0.0,0.0,0.0,0.0,0.0,0.0,0.0,0.0,0.0,0.0,0.0,0.0,0.0,0.0,0.0,0.0,0.0,0.0,0.0,0.0,0.0,0.0,0.0,0.0,0.0,0.0,0.0,0.0,0.0,0.0,0.0,0.0,0.0,0.0,0.0,0.0,0.0,0.0,0.0,0.0,0.0,0.0,0.0,0.0,0.0,0.0,0.0,0.0,0.0,0.0,0.0,0.0,0.0,0.0,0.0,0.0,0.0,0.0,0.0,0.0,0.0,0.0,0.0,0.0,0.0,0.0,0.0,0.0,0.0,0.0,0.0,0.0,0.0,0.0,0.0,0.0,0.0,0.0,0.0,0.0,0.0,0.0,0.0,0.0,0.0,0.0,0.0,0.0,0.0,0.0,0.0,0.0,0.0,0.0,0.0,0.0,0.0,0.0,0.0,0.0,0.0,0.0,0.0,0.0,0.0,0.0,0.0,0.0,0.0,0.0,0.0,0.0,0.0,0.0,0.0,0.0,0.0,0.0,0.0,0.0,0.0,0.0,0.0,0.0,0.0,0.0,0.0,0.0,0.0,0.0,0.0,0.0,0.0,0.0,0.0,0.0,0.0,0.0,0.0,0.0,0.0,0.0,0.0,0.0,0.0,0.0,0.0,0.0,0.0,0.0,0.0,0.0,0.0,0.0,0.0,0.0,0.0,0.0,0.0,0.0,0.0,0.0,0.0,0.0,0.0,0.0,0.0,0.0,0.0,0.0,0.0,0.0,0.0,0.0,0.0,0.0,0.0,0.0,0.0,0.0,0.0,0.0,0.0,0.0,0.0,0.0,0.0,0.0,0.0,0.0,0.0,0.0,0.0,0.0,0.0,0.0,0.0,0.0,0.0,0.0,0.0,0.0,0.0,0.0,0.0,0.0,0.0,0.0,0.0,0.0,0.0,0.0,0.0,0.0,0.0,0.0,0.0,0.0,0.0,0.0,0.0,0.0,0.0,0.0,0.0,0.0,0.0,0.0,0.0,0.0,0.0,0.0,0.0,0.0,0.0,0.0,0.0,0.0,0.0,0.0,0.0,0.0,0.0,0.0,0.0,0.0,0.0,0.0,0.0,0.0,0.0,0.0,0.0,0.0,0.0,0.0,0.0,0.0,0.0,0.0,0.0,0.0,0.0,0.0,0.0,0.0,0.0,0.0,0.0,0.0,0.0,0.0,0.0,0.0,0.0,0.0,0.0,0.0,0.0,0.0,0.0,0.0,0.0,0.0,0.0,0.0,0.0,0.0,0.0,0.0,0.0,0.0,0.0,0.0,0.0,0.0,0.0,0.0,0.0,0.0,0.0,0.0,0.0,0.0,0.0,0.0,0.0,0.0,0.0,0.0,0.0,0.0,0.0,0.0,0.0,0.0,0.0,0.0,0.0,0.0,0.0,0.0,0.0,0.0,0.0,0.0,0.0,0.0,0.0,0.0,0.0,0.0,0.0,0.0,0.0,0.0,0.0,0.0,0.0,0.0,0.0,0.0,0.0,0.0,0.0,0.0,0.0,0.0,0.0,0.0,0.0,0.0,0.0,0.0,0.0,0.0,0.0,0.0,0.0,0.0,0.0,0.0,0.0,0.0,0.0,0.0,0.0,0.0,0.0,0.0,0.0,0.0,0.0,0.0,0.0,0.0,0.0,0.0,0.0,0.0,0.0,0.0,0.0,0.0,0.0,0.0,0.0,0.0,0.0,0.0,0.0,0.0,0.0,0.0,0.0,0.0,0.0,0.0,0.0,0.0,0.0,0.0,0.0,0.0,0.0,0.0,0.0,0.0,0.0,0.0,0.0,0.0,0.0,0.0,0.0,0.0,0.0,0.0,0.0,0.0,0.0,0.0,0.0,0.0,0.0,0.0,0.0,0.0,0.0,0.0,0.0,0.0,0.0,0.0,0.0,0.0,0.0,0.0,0.0,0.0,0.0,0.0,0.0,0.0,0.0,0.0,0.0,0.0,0.0,0.0,0.0,0.0,0.0,0.0,0.0,0.0,0.0,0.0,0.0,0.0,0.0,0.0,0.0,0.0,0.0,0.0,0.0,0.0,0.0,0.0,0.0,0.0,0.0,0.0,0.0,0.0,0.0,0.0,0.0,0.0,0.0,0.0,0.0,0.0,0.0,0.0,0.0,0.0,0.0,0.0,4.5896,4.4956,0.0,0.0,0.0,0.0,0.0,0.0,0.0,0.0,0.0,0.0,0.0,0.0,0.0,0.0,0.0,0.0,0.0,0.0,0.0,0.0,0.0,0.0,0.0,0.0,0.0,0.0,0.0,0.0,0.0,0.0,0.0,0.0,0.0,0.0,0.0,0.0,0.0,0.0,3.6846,3.6854,3.7359,3.7697,3.7867,3.791,0.0,0.0,0.0,0.0,0.0,0.0,0.0,0.0,0.0,0.0,0.0,0.0,0.0,0.0,0.0,0.0,0.0,0.0,0.0,0.0,0.0,0.0,0.0,0.0,0.0,0.0,0.0,0.0,0.0,0.0,0.0,0.0,0.0,0.0,0.0,0.0,0.0,0.0,0.0,0.0,0.0,0.0,0.0,0.0,0.0,0.0,0.0,0.0,0.0,0.0,0.0,0.0,0.0,0.0,0.0,0.0,0.0,0.0,0.0,0.0,0.0,0.0,0.0,0.0,0.0,0.0,0.0,0.0,0.0,0.0,4.8842,4.7812,0.0,0.0,0.0,0.0,0.0,0.0,0.0,0.0,0.0,0.0,0.0,0.0,0.0,0.0,0.0,0.0,0.0,0.0,0.0,0.0,0.0,0.0,0.0,3.5852,3.6164,3.6182,3.6599,3.7046,0.0,0.0,0.0,0.0,0.0,0.0,0.0,3.7674,3.7955,3.8593,3.7286,3.7169,3.8125,3.87,3.8667,3.8159,3.9356,0.0,0.0,0.0,0.0,0.0,0.0,0.0,0.0,0.0,0.0,0.0,0.0,0.0,0.0,0.0,0.0,0.0,0.0,0.0,0.0,0.0,0.0,0.0,0.0,0.0,0.0,0.0,0.0,0.0,0.0,0.0,0.0,0.0,0.0,0.0,0.0,0.0,0.0,0.0,0.0,0.0,0.0,0.0,0.0,0.0,0.0,0.0,0.0,0.0,0.0,0.0,0.0,0.0,0.0,0.0,0.0,0.0,0.0,0.0,0.0,0.0,0.0,0.0,5.3948,5.4792,5.5464,5.6136,5.5885,5.4832,5.331,5.2072,5.1046,5.1036,0.0,0.0,0.0,0.0,0.0,0.0,0.0,0.0,0.0,0.0,0.0,0.0,0.0,0.0,0.0,0.0,0.0,0.0,0.0,0.0,0.0,3.6813,3.7624,3.8483,3.8635,3.8699,3.8771,0.0,0.0,0.0,0.0,0.0,3.9887,3.9494,3.9331,3.9342,3.8263,3.8095,3.8882,3.8937,3.8949,3.887,3.9051,3.9491,4.0079,0.0,0.0,0.0,0.0,0.0,0.0,0.0,0.0,0.0,0.0,0.0,0.0,0.0,0.0,0.0,0.0,0.0,0.0,0.0,0.0,0.0,0.0,0.0,0.0,0.0,0.0,0.0,0.0,0.0,0.0,0.0,0.0,0.0,0.0,0.0,0.0,0.0,0.0,0.0,0.0,0.0,4.8976,4.9013,0.0,0.0,0.0,0.0,0.0,0.0,0.0,0.0,0.0,0.0,0.0,0.0,0.0,5.1903,5.27,5.4792,5.5978,5.6187,5.84,5.949,5.9612,5.9722,6.0053,6.0518,6.0285,0.0,5.2114,5.2032,0.0,0.0,0.0,0.0,0.0,0.0,0.0,0.0,0.0,0.0,0.0,0.0,0.0,0.0,0.0,0.0,0.0,0.0,0.0,0.0,0.0,3.7745,3.8186,3.8777,3.8803,3.8783,3.8783,3.941,0.0,0.0,0.0,4.0428,4.0745,4.0211,3.9826,3.9621,4.0066,4.0244,4.0223,4.0223,4.046,4.0857,4.083,4.0554,4.0113,4.0113,0.0,0.0,0.0,0.0,0.0,0.0,0.0,0.0,0.0,0.0,0.0,0.0,0.0,0.0,0.0,0.0,0.0,0.0,0.0,0.0,0.0,0.0,0.0,0.0,0.0,0.0,0.0,0.0,0.0,0.0,0.0,0.0,0.0,0.0,0.0,0.0,0.0,0.0,0.0,4.937,5.0775,5.0288,5.1059,5.1132,0.0,0.0,0.0,0.0,0.0,0.0,0.0,0.0,0.0,5.5978,5.6492,5.7556,5.9318,6.0382,6.1374,6.2254,6.3319,6.4053,6.4494,6.4494,6.4677,6.502,6.502,6.3205,6.0028,5.678,5.4897,5.3896,0.0,0.0,0.0,0.0,5.3712,5.4153,0.0,0.0,0.0,0.0,0.0,0.0,0.0,0.0,0.0,0.0,0.0,0.0,3.8137,3.8398,3.8621,3.8918,3.8923,3.889,3.889,3.95,4.005,4.049,4.0781,4.1107,4.1505,4.0957,4.0665,4.0597,4.164,4.1928,4.1474,4.1474,4.1884,4.2534,4.2482,4.1778,4.0613,4.0764,4.0534,4.0068,0.0,0.0,0.0,0.0,0.0,0.0,0.0,0.0,0.0,0.0,0.0,0.0,0.0,0.0,0.0,0.0,0.0,0.0,0.0,0.0,0.0,0.0,0.0,0.0,0.0,0.0,0.0,0.0,0.0,0.0,0.0,0.0,0.0,0.0,0.0,0.0,0.0,5.1977,5.3162,5.216,5.3812,5.4242,0.0,0.0,0.0,0.0,0.0,0.0,5.626,5.7629,5.9391,6.1618,6.2242,6.3576,6.5608,6.5852,6.6549,6.7724,6.7944,6.8348,6.8949,6.8949,6.8949,6.8949,6.8949,6.8348,6.699,6.1741,5.8731,5.7262,5.5673,5.5049,5.5196,5.6381,5.6943,5.731,0.0,0.0,0.0,0.0,0.0,0.0,0.0,0.0,0.0,0.0,0.0,3.7572,3.7797,3.8519,3.9161,3.9615,3.9652,3.9652,3.9652,4.0389,4.0983,4.1328,4.2142,4.2595,4.2614,4.2207,4.233,4.3019,4.2518,4.2258,4.2232,4.2232,4.2599,4.3242,4.3244,4.2769,4.2028,4.2609,4.1663,3.9927,4.1192,0.0,0.0,0.0,0.0,0.0,0.0,0.0,0.0,0.0,0.0,0.0,0.0,0.0,0.0,0.0,0.0,0.0,0.0,0.0,0.0,0.0,0.0,0.0,0.0,0.0,0.0,0.0,0.0,0.0,0.0,0.0,0.0,0.0,0.0,0.0,0.0,0.0,0.0,5.5548,5.8143,0.0,0.0,0.0,0.0,5.9857,6.1398,6.3013,6.4591,6.5485,6.6696,6.8348,6.8444,6.8898,6.9779,7.0573,7.0977,7.1087,7.1821,7.2239,7.2275,7.2275,7.2275,7.2275,7.2275,7.1358,6.9596,6.5498,6.3246,6.2279,6.0676,6.0052,6.0052,6.0126,6.0639,6.1312,0.0,0.0,0.0,0.0,0.0,0.0,0.0,0.0,3.6639,3.7308,3.8358,3.9329,4.0032,4.0074,4.0372,4.1174,4.0438,4.0309,4.1184,4.1403,4.1701,4.2222,4.3368,4.4087,4.4292,4.3337,4.3463,4.4797,4.4102,4.4239,4.5058,4.5111,4.5502,4.6162,4.653,4.6263,4.5385,4.3702,4.2559,4.1844,4.1817,4.1516,0.0,0.0,0.0,0.0,0.0,0.0,0.0,0.0,0.0,0.0,0.0,0.0,0.0,0.0,0.0,0.0,0.0,0.0,0.0,0.0,0.0,0.0,0.0,0.0,0.0,0.0,0.0,0.0,0.0,0.0,0.0,0.0,0.0,0.0,0.0,0.0,0.0,6.1055,6.3442,0.0,6.2781,6.3392,6.4237,6.5057,6.6586,6.8201,6.9853,7.0697,7.1615,7.2738,7.2775,7.2885,7.3193,7.3472,7.3619,7.3619,7.3913,7.4023,7.4023,7.4023,7.4023,7.4023,7.4023,7.3729,7.3046,7.1064,6.8274,6.5081,6.3967,6.3563,6.36,6.4127,6.4494,6.4824,0.0,0.0,0.0,0.0,0.0,0.0,0.0,0.0,3.8109,3.8615,3.9471,4.0289,4.1049,4.0632,4.0614,4.136,4.0786,4.0744,4.1635,4.1756,4.2062,4.2664,4.3831,4.473,4.5268,4.4473,4.4959,4.6783,4.6046,4.626,4.7378,4.7416,4.7796,4.8437,4.8828,4.8815,4.8395,4.6188,4.4487,4.3282,4.2926,4.267,4.2435,0.0,0.0,0.0,0.0,0.0,0.0,0.0,0.0,0.0,0.0,0.0,0.0,0.0,0.0,0.0,0.0,0.0,0.0,0.0,0.0,0.0,0.0,0.0,0.0,0.0,0.0,0.0,0.0,0.0,0.0,0.0,0.0,0.0,0.0,6.2218,6.5375,6.5668,6.8825,7.0403,6.9045,6.9926,7.0807,7.1335,7.262,7.3964,7.5322,7.5873,7.6423,7.6922,7.6959,7.6812,7.657,7.657,7.657,7.657,7.657,7.6423,7.6151,7.6151,7.5968,7.5711,7.5711,7.5564,7.527,7.4735,7.2459,6.9229,6.8151,6.771,6.7784,6.8348,6.8531,6.8605,0.0,0.0,0.0,0.0,0.0,0.0,0.0,3.7734,3.8755,3.8755,3.9654,4.0384,4.0642,4.016,3.9915,4.0188,4.0681,4.0966,4.1013,4.153,4.2108,4.2772,4.3633,4.4553,4.5541,4.5732,4.6866,4.9021,4.8251,4.8282,4.9004,4.8968,4.9293,4.9881,4.9881,5.0249,5.0765,4.9968,4.7534,4.4242,4.4611,4.4501,4.407,0.0,0.0,0.0,0.0,0.0,0.0,0.0,0.0,0.0,0.0,0.0,0.0,0.0,0.0,0.0,0.0,0.0,0.0,0.0,0.0,0.0,0.0,0.0,0.0,0.0,0.0,0.0,0.0,0.0,0.0,0.0,0.0,0.0,6.3306,6.7247,7.0036,6.9398,7.4169,7.6592,7.4309,7.6937,7.8809,7.8809,7.9522,8.0293,8.1122,8.1122,8.1085,8.1085,8.1048,8.0645,7.989,7.989,7.989,7.989,7.989,7.9449,7.8662,7.8662,7.8222,7.7399,7.7362,7.6885,7.6166,7.6166,7.5689,7.483,7.3193,7.2569,7.2569,7.2569,7.2569,7.2569,0.0,0.0,0.0,0.0,0.0,0.0,0.0,3.8909,3.979,4.0369,4.1315,4.2024,4.2246,4.2242,4.2521,4.3169,4.2348,4.2369,4.3775,4.2961,4.3272,4.5101,4.5543,4.6693,4.8688,4.8832,4.9717,5.1442,5.0657,5.0589,5.1203,5.0664,5.078,5.1402,5.1402,5.1522,5.162,5.0802,4.9861,4.8773,4.7112,4.635,4.6156,0.0,0.0,0.0,0.0,0.0,0.0,0.0,0.0,0.0,0.0,0.0,0.0,0.0,0.0,0.0,0.0,0.0,0.0,0.0,0.0,0.0,0.0,0.0,0.0,0.0,0.0,0.0,0.0,0.0,0.0,0.0,6.8995,7.149,6.9288,7.2129,7.5469,7.8222,8.0408,8.1913,8.2406,8.2774,8.3177,8.3765,8.3471,8.3618,8.4425,8.3361,8.272,8.272,8.2186,8.1746,8.1542,8.1542,8.1542,8.1542,8.1542,8.1122,8.0351,8.0351,7.9874,7.9066,7.8516,7.8112,7.7855,7.7215,7.6848,7.6481,7.4867,7.4243,7.4243,7.4243,7.4243,7.4243,0.0,0.0,0.0,0.0,0.0,0.0,0.0,3.968,4.0488,4.0681,4.1905,4.2697,4.2563,4.2431,4.2656,4.3368,4.2834,4.2939,4.3959,4.4077,4.5014,4.7111,4.7915,4.9168,5.0962,5.1332,5.227,5.378,5.2996,5.2953,5.357,5.3131,5.3127,5.3492,5.3492,5.3492,5.3492,5.3004,5.2821,5.2674,5.0865,4.9544,4.8517,4.7342,4.7352,4.7902,4.7581,4.8059,4.8783,4.8306,0.0,0.0,0.0,0.0,0.0,0.0,0.0,0.0,0.0,0.0,0.0,0.0,0.0,0.0,0.0,0.0,0.0,0.0,0.0,0.0,0.0,0.0,0.0,0.0,7.5197,7.8316,7.7913,7.9213,8.1158,8.3875,8.5216,8.628,8.7215,8.6885,8.6664,8.6811,8.6371,8.6297,8.6775,8.593,8.5416,8.5416,8.4976,8.4535,8.4205,8.4205,8.4205,8.4205,8.3875,8.3287,8.2517,8.217,8.1562,8.0771,7.9947,7.9617,7.9543,7.8699,7.8369,7.817,0.0,0.0,0.0,0.0,7.5894,7.5894,0.0,0.0,0.0,0.0,0.0,0.0,0.0,4.0112,4.0929,4.0402,4.1915,4.2783,4.2169,4.1703,4.1703,4.2399,4.2948,4.3326,4.3474,4.539,4.7327,4.9122,5.0721,5.1944,5.2763,5.3611,5.4629,5.5853,5.5171,5.5145,5.5732,5.5658,5.5585,5.5585,5.5585,5.5585,5.5585,5.5585,5.5585,5.5548,5.4803,5.3188,5.1022,4.9434,4.9764,5.0986,5.0261,5.0115,5.0271,5.0161,0.0,0.0,0.0,0.0,0.0,0.0,0.0,0.0,0.0,0.0,0.0,0.0,0.0,0.0,0.0,0.0,0.0,0.0,0.0,0.0,0.0,0.0,0.0,0.0,8.1473,8.4922,8.7344,8.7142,8.6921,8.7344,8.8666,8.9583,8.9657,8.9657,8.9363,8.8647,8.8536,8.8463,8.8463,8.839,0.0,0.0,0.0,8.7986,8.7271,8.7271,8.7271,8.7271,8.6554,8.5783,8.4976,8.4262,8.3471,8.2553,8.1746,8.1342,8.1232,8.0388,8.0036,7.9779,7.8206,7.7582,7.7582,7.7582,7.7509,7.7436,0.0,0.0,0.0,0.0,0.0,0.0,0.0,4.0479,4.112,4.1142,4.2688,4.3347,4.2238,4.2612,4.3447,4.4577,4.4797,4.5831,4.8121,4.9285,5.0648,5.2352,5.3951,5.489,5.5149,5.6479,5.7025,5.6683,5.6466,5.6452,5.6554,5.5904,5.5585,5.5585,5.5585,5.5585,5.5585,5.5585,5.5585,5.5585,5.5438,5.4704,5.3592,5.2627,5.2443,5.2737,5.2553,5.3335,5.4337,5.3676,5.3786,5.3969,5.2664,5.226,0.0,0.0,0.0,0.0,0.0,0.0,0.0,0.0,0.0,0.0,0.0,0.0,0.0,0.0,0.0,0.0,0.0,0.0,0.0,8.2517,8.6023,8.9106,9.1583,9.2354,9.195,9.0115,9.0188,9.0629,9.1253,9.1326,9.1253,9.1106,9.0519,9.0152,9.0152,8.951,8.9179,8.9179,8.9179,8.9106,8.8959,8.8959,8.8959,8.8923,8.8776,0.0,8.7509,8.7325,8.6481,8.5066,8.4242,8.3544,8.2867,8.2076,8.1342,8.0681,7.969,7.9323,7.9323,7.9323,7.8919,7.8369,0.0,0.0,0.0,0.0,0.0,0.0,0.0,4.0713,4.1071,4.0623,4.2013,4.2812,4.2168,4.2493,4.3242,4.4431,4.5568,4.7684,5.1175,5.2193,5.3713,5.6163,5.7043,5.7709,5.8083,5.8876,5.9064,5.8651,5.8602,5.8609,5.8572,5.818,5.7997,5.7997,5.7997,5.7997,5.7997,5.7997,5.7997,5.7997,5.7997,5.7776,5.7226,5.56,5.5233,5.5721,5.6517,5.7336,5.7997,5.7997,5.7997,5.785,5.7068,5.6811,5.6407,0.0,0.0,0.0,0.0,0.0,0.0,0.0,0.0,0.0,0.0,0.0,0.0,0.0,0.0,7.4096,7.7362,0.0,8.4462,8.7729,9.0629,9.2886,9.4134,9.4997,9.474,9.2684,9.2464,9.2611,9.3015,9.3051,9.3051,9.3051,9.2684,9.2464,9.2464,9.1693,9.1235,9.1235,9.0831,9.0592,9.0592,9.0592,9.0592,9.0592,9.017,8.9767,8.9381,8.8977,8.8335,8.7545,8.6738,8.5967,8.5106,8.3911,8.292,8.2207,8.2186,8.1211,7.9816,7.9816,7.9559,7.9155,0.0,0.0,0.0,0.0,0.0,0.0,0.0,4.0876,4.0942,4.0053,4.129,4.2171,4.1913,4.2112,4.2808,4.417,4.646,4.9471,5.3398,5.4611,5.6576,5.9759,5.9961,6.0336,6.1104,6.1117,6.1043,6.086,6.086,6.086,6.086,6.086,6.086,6.086,6.086,6.086,6.086,6.086,6.086,6.086,6.086,6.097,6.0933,5.9123,5.8547,5.8877,6.0346,6.0786,6.075,6.1557,6.152,6.1153,6.13,6.1557,6.1374,5.9123,6.0052,0.0,0.0,0.0,0.0,0.0,0.0,0.0,0.0,6.7173,6.9853,7.3399,7.6922,8.0555,8.4352,8.7435,9.0188,9.2666,9.4813,9.6226,9.6428,9.7126,9.7163,9.5841,9.5144,9.4703,9.4556,9.452,9.4483,9.4299,9.4299,9.4299,9.4299,9.3675,9.3345,9.3345,9.2648,9.2281,9.2281,9.2281,9.2207,9.2024,9.14,9.0996,9.0812,9.017,8.9767,8.9583,8.8793,8.8059,8.7344,8.5747,8.4665,8.4115,8.4462,8.303,8.0697,8.055,8.0293,7.9963,0.0,0.0,0.0,0.0,0.0,0.0,0.0,0.0,4.0701,4.0747,4.1971,4.2375,4.114,4.2087,4.3674,4.5823,4.8689,5.1793,5.5108,5.6765,5.9027,6.2279,6.24,6.2803,6.3662,6.3699,6.3319,6.2536,6.2536,6.2536,6.2536,6.2536,6.2536,6.2536,6.2536,6.2536,6.2536,6.2536,6.2536,6.2536,6.2536,6.2989,6.3723,6.4187,6.3025,6.13,6.2205,6.2071,6.1594,6.2389,6.3135,6.3796,6.453,6.5742,6.6562,6.4861,6.3563,6.2389,6.1263,6.234,6.447,6.7173,6.8568,7.0954,0.0,7.8002,7.8552,8.3214,8.5673,8.7802,9.0463,9.2391,9.441,9.6851,9.8043,9.8961,9.9659,10.0523,10.089,10.0706,9.8154,9.6171,9.5418,9.5364,9.507,9.4336,9.4299,9.4299,9.4299,9.4189,9.4153,9.4153,9.4079,9.4006,9.4006,9.4006,9.3639,9.2941,9.2868,9.2427,9.1657,9.1583,9.1143,9.0427,8.962,8.9216,8.8996,8.7381,8.6684,8.6464,8.5123,8.4389,8.3985,8.3234,8.2113,8.0865,0.0,0.0,0.0,0.0,0.0,0.0,0.0,0.0,0.0,4.0874,4.1383,4.178,4.1931,4.3144,4.4534,4.594,4.9408,5.2858,5.6088,5.8694,6.1337,6.4114,6.4261,6.4444,6.4787,6.5264,6.5301,6.4958,6.5411,6.5632,6.5632,6.5191,6.4958,6.4945,6.4335,6.4389,6.4932,6.4881,6.5132,6.5632,6.5632,6.6145,6.688,6.6733,6.6035,6.5057,6.4481,6.3759,0.0,6.3429,6.442,6.5632,6.6439,6.6843,6.6966,6.6769,6.6182,6.5999,6.754,6.9155,7.0697,7.2041,7.5139,7.8516,8.1122,8.2627,8.4609,8.85,9.1363,9.3749,9.5731,9.7016,9.8264,9.9752,10.0686,10.131,10.1604,10.2815,10.3109,10.1698,10.0686,9.9695,9.8411,9.83,9.797,9.7163,9.7089,9.7089,9.7089,9.6208,9.5694,9.5694,9.4777,9.4299,9.4299,9.4299,9.4116,9.3786,9.3786,9.3345,9.2574,9.2574,9.2097,9.1253,9.0427,9.0097,8.995,8.8353,8.7435,8.6904,8.6261,8.5416,8.4499,8.3711,8.2977,8.2243,0.0,0.0,0.0,0.0,0.0,0.0,0.0,0.0,0.0,0.0,4.1172,4.1871,4.3134,4.4127,4.5104,4.6131,4.9554,5.3041,5.6271,5.9465,6.2585,6.5521,6.6059,6.6499,6.694,6.776,6.8164,6.8164,6.8752,6.9009,6.9022,6.8201,6.7689,6.7418,6.6452,6.6285,6.6714,6.6891,6.7482,6.8351,6.8596,6.9155,6.9779,6.8765,6.8104,6.748,6.5888,6.464,6.3723,6.3723,6.4677,6.5999,6.704,6.7283,6.7357,6.8385,6.8678,6.9302,7.2092,7.4331,7.6188,7.7289,8.1509,8.5326,8.5233,8.7362,9.0188,9.3198,9.5694,9.7933,9.9769,10.0613,10.131,10.2301,10.3182,10.3696,10.3696,10.4483,10.4216,10.1602,10.1808,10.1409,9.9936,10.0306,10.0393,9.9805,9.9769,9.9769,9.9769,9.8447,9.7676,9.7676,9.6355,9.5621,9.5621,9.5401,9.518,9.496,9.474,9.4226,9.3418,9.3198,9.2758,9.2097,9.1289,9.0922,9.0812,8.9417,8.8536,8.7932,8.7491,8.6628,8.5453,8.4462,8.3785,8.3271,0.0,0.0,0.0,0.0,0.0,0.0,0.0,0.0,0.0,0.0,0.0,0.0,0.0,4.4691,4.536,4.6929,4.9361,5.2197,5.5438,5.8657,6.2254,6.6292,6.7981,6.9509,7.1087,7.1894,7.2312,7.2312,7.2349,7.2349,7.2349,7.1527,7.0683,6.9776,6.8935,6.8099,6.7316,6.8247,6.9079,6.9926,7.0822,7.1674,7.2239,7.0624,6.9059,6.748,6.5888,6.4224,6.2829,6.2829,6.3429,6.447,6.6035,6.7577,6.9142,7.072,7.1197,7.1564,7.3193,7.6019,7.9433,8.3324,8.7362,9.0812,9.2391,9.4042,9.5934,9.8374,9.8941,9.9769,10.2191,10.2595,10.3089,10.4703,10.5715,10.6302,10.6302,10.5605,10.411,10.1288,10.0589,9.9899,9.8665,10.0297,10.1514,10.1384,10.1384,10.1384,10.1384,10.0613,10.0209,10.0209,9.9402,9.8941,9.8941,9.819,9.7383,9.6612,9.5841,9.5034,9.4226,9.3455,9.3088,9.3015,9.2134,9.1767,9.1693,9.0886,9.0519,9.0335,8.8757,8.8133,8.7912,8.6297,8.4756,8.3491,0.0,0.0,0.0,0.0,0.0,0.0,0.0,0.0,0.0,0.0,0.0,0.0,0.0,0.0,0.0,0.0,4.9361,5.194,5.462,5.8327,6.1741,6.4787,6.7981,6.9963,7.0477,7.2349,7.3303,7.3303,7.3854,7.4096,7.4059,7.2573,7.1716,7.1359,6.9778,6.9276,6.9565,6.9804,7.0789,7.2178,7.1401,7.1957,7.301,7.033,6.7981,6.5815,0.0,6.1814,6.0334,5.9795,6.0529,6.1924,6.3527,6.4407,6.5398,6.8128,7.1174,7.439,7.7671,8.1672,8.5673,8.8647,9.2831,9.6392,9.6942,9.8337,9.9715,10.0503,10.0283,10.0099,10.098,10.109,10.1788,10.399,10.5495,10.6617,10.7095,10.7902,10.66,10.1905,10.1414,10.0818,9.9041,9.9972,10.109,10.2191,10.2301,10.2485,10.3093,10.2301,10.1604,10.109,10.0319,9.9659,9.9108,9.8851,9.83,9.7456,9.6135,9.5345,9.507,9.4263,9.3602,9.3088,9.2794,9.2317,9.173,9.0922,9.0592,9.0482,8.94,8.8996,8.8849,8.7802,8.6701,8.5656,0.0,0.0,0.0,0.0,0.0,0.0,0.0,0.0,0.0,0.0,0.0,0.0,0.0,0.0,0.0,0.0,0.0,5.1389,5.3812,5.6932,6.0052,6.3075,6.5962,6.776,6.8385,6.9889,7.0991,7.1555,7.2642,7.3472,7.4008,7.2801,7.2053,7.1647,6.9747,6.9064,6.9319,6.9659,7.0516,7.1567,7.064,7.0769,7.1262,6.8311,6.5852,0.0,6.119,5.9465,5.8279,5.774,5.8437,5.9869,6.1777,6.3759,6.5999,6.8985,7.3083,7.7745,8.2647,8.6921,9.0665,9.3675,9.7419,10.0273,9.9755,10.0496,10.1104,10.0623,9.9784,9.9063,9.8654,9.8703,9.9339,10.111,10.279,10.4596,10.6313,10.6786,10.5476,10.1408,10.0502,9.9762,9.8679,9.915,10.0495,10.2885,10.3211,10.3717,10.4703,10.4284,10.3586,10.2815,10.2008,10.131,10.0796,10.0209,9.9402,9.83,9.6979,9.6355,9.6318,9.5217,9.4446,9.3932,9.3345,9.2794,9.2207,9.1363,9.1033,9.0959,9.0134,8.984,8.973,8.894,8.8299,8.7638,0.0,0.0,0.0,0.0,0.0,0.0,0.0,0.0,0.0,0.0,0.0,0.0,0.0,0.0,0.0,0.0,0.0,0.0,5.2847,5.4546,5.7189,6.108,6.2168,6.3439,6.5027,6.5137,6.5943,6.7473,6.8999,7.0539,7.2087,7.1904,7.1359,7.0451,6.8714,6.7422,6.6633,6.7727,6.8222,6.8271,6.8501,6.8133,6.726,6.491,6.2952,6.119,5.8914,5.7593,5.6847,5.6921,5.7558,5.8782,6.1288,6.5823,7.068,7.3252,7.6903,8.1489,8.781,9.1363,9.4257,9.816,10.0908,10.2301,10.0996,10.0695,10.0297,9.8933,9.7703,9.6518,9.5461,9.5625,9.608,9.6625,9.8436,10.0901,10.4115,10.2907,10.1393,10.0191,9.8384,9.7353,9.7672,9.8026,9.9801,10.3583,10.4185,10.4995,10.6301,10.6502,10.6119,10.518,10.4394,10.399,10.388,10.2301,10.0796,9.9218,9.8411,9.799,9.7843,9.6318,9.5565,9.5418,9.3896,9.3198,9.3051,9.2207,9.184,9.173,9.0959,9.0665,9.0537,8.9767,8.9473,8.9253,0.0,0.0,0.0,0.0,0.0,0.0,0.0,0.0,0.0,0.0,0.0,0.0,0.0,0.0,0.0,0.0,0.0,0.0,5.0445,5.2601,5.4568,5.6249,5.9432,6.1421,6.1925,6.3126,6.3932,6.4342,6.4774,6.5442,6.6367,6.5599,6.5408,6.565,6.4401,6.3741,6.3537,6.3815,6.4348,6.4947,6.4405,6.452,6.4874,6.3613,6.1728,5.982,5.9795,5.8877,5.7776,5.8389,6.0632,6.3802,6.763,6.9891,7.2121,7.709,8.12,8.5107,8.9639,9.3486,9.6743,9.8979,10.0884,10.2192,10.1806,10.1283,10.0499,9.869,9.5806,9.3235,9.2063,9.2646,9.4057,9.6446,9.9504,10.239,10.5024,10.5424,10.4492,10.1792,10.0712,9.9894,9.9156,9.8963,10.0305,10.3903,10.4611,10.5392,10.6502,10.7621,10.7514,10.6082,10.5899,10.5222,10.388,10.2889,10.1898,10.0927,10.0099,9.9071,9.7897,9.7456,9.6649,9.5455,9.5051,9.4207,9.3088,9.2868,9.2391,9.1767,9.1583,9.1473,9.14,9.0592,9.028,9.0134,0.0,0.0,0.0,0.0,0.0,0.0,0.0,0.0,0.0,0.0,0.0,0.0,0.0,0.0,0.0,0.0,0.0,0.0,0.0,5.0031,5.133,5.2506,5.441,5.5691,5.6089,5.727,5.8067,5.8452,5.9805,6.0873,6.1676,6.1396,6.1466,6.1849,6.0876,6.0593,6.0913,6.0956,6.1265,0.0,0.0,6.1217,6.1374,6.0896,6.0077,5.9306,6.0114,6.1333,6.2844,6.4599,6.6408,6.8706,7.2858,7.4816,7.6644,8.1962,8.5952,8.9483,9.3434,9.6896,9.9596,10.0505,10.1688,10.1901,9.9341,9.8871,9.7817,9.3818,9.1503,8.9477,8.7182,8.9271,9.1599,9.2385,9.7093,10.1478,10.3888,10.4694,10.4803,10.3791,10.2507,10.1681,10.1791,10.0982,10.1478,10.419,10.5308,10.6279,10.748,10.8705,10.8799,10.7477,10.7498,10.6706,10.4981,10.421,10.3293,10.2485,10.1404,10.0413,9.9458,9.8741,9.775,9.6539,9.6171,9.5308,9.4153,9.3786,9.3345,9.2868,9.2501,9.2354,9.2281,9.1436,9.1143,9.1069,0.0,0.0,0.0,0.0,0.0,0.0,0.0,0.0,0.0,0.0,4.2447,0.0,0.0,0.0,0.0,0.0,0.0,0.0,0.0,0.0,4.8172,4.9551,4.8972,4.8935,4.9636,5.0334,5.1039,5.1811,5.4578,5.6387,5.7208,5.7799,5.8122,5.8177,5.7482,5.7499,5.8128,5.8343,5.841,5.8417,5.8652,5.8392,5.7838,0.0,5.8345,5.9188,6.0273,6.3939,6.8838,7.2503,7.3413,7.3761,7.7859,8.0481,8.2951,8.748,9.0814,9.3912,9.7559,10.0105,10.1819,10.1978,10.2313,10.1228,9.5885,9.5009,9.3595,8.7586,8.6462,8.5636,8.2524,8.596,8.8894,8.7743,9.3623,9.9313,10.2196,10.2908,10.3686,10.5399,10.3806,10.3086,10.4496,10.3507,10.3383,10.4827,10.6308,10.7401,10.8191,10.9088,10.9282,10.8705,10.8785,10.8101,10.6706,10.6009,10.5107,10.421,10.2779,10.1918,10.1514,10.0099,9.8924,9.8007,9.7309,9.6502,9.5602,9.4923,9.4483,9.4226,9.3529,9.3198,9.3015,9.2244,9.1913,9.1803,0.0,0.0,0.0,0.0,0.0,0.0,0.0,0.0,0.0,0.0,4.2228,4.2777,0.0,0.0,0.0,0.0,0.0,0.0,0.0,0.0,0.0,4.7174,4.7078,4.7111,4.7387,4.808,4.8523,4.8675,4.9831,5.0784,5.1517,5.1652,5.2015,5.2628,5.3054,5.3349,5.3483,5.409,5.4683,5.5346,5.6038,5.6576,5.7022,5.7072,0.0,0.0,6.1239,6.4479,6.8643,7.6231,7.8834,7.9751,8.4621,8.7273,8.9294,9.292,9.4997,9.6554,9.8458,9.972,10.0705,10.1418,10.019,9.8322,9.6079,9.3038,8.9924,8.7316,8.4347,8.2282,8.2636,8.4007,8.6359,9.032,9.3946,9.7951,10.2711,10.3514,10.3818,10.4784,10.4481,10.438,10.4718,10.5514,10.6177,10.6519,10.7908,10.7718,10.5404,10.6607,10.7478,10.8015,10.8512,10.8688,10.8395,10.8211,10.7404,10.5993,10.5678,10.41,10.1514,10.122,10.0283,9.8888,9.8741,9.786,9.6502,9.6355,9.5511,9.4299,9.4153,9.3675,9.3088,9.2941,9.2427,9.1803,0.0,0.0,0.0,0.0,0.0,0.0,0.0,4.1779,4.232,4.3876,4.4354,4.4629,4.4792,4.4807,4.51,0.0,0.0,0.0,0.0,0.0,0.0,0.0,4.5569,4.5575,4.5664,4.7109,4.7718,4.7327,0.0,4.956,4.9526,4.9526,4.9912,5.0583,5.0937,5.1745,5.2839,5.3168,5.3987,5.5119,5.5969,5.6479,5.6867,0.0,0.0,0.0,6.2773,6.5931,6.965,7.442,7.8718,8.3093,8.9229,9.1564,9.2571,9.5794,9.7367,9.8375,9.9863,10.0811,10.1318,10.0912,9.9085,9.6459,9.2844,8.9532,8.6398,8.3397,8.1328,8.004,7.9984,8.2478,8.5298,8.7656,9.172,9.6242,10.1109,10.2198,10.328,10.5614,10.5479,10.5411,10.5783,10.61,10.631,10.631,10.7002,10.7422,10.749,10.8517,10.921,10.9607,10.9504,10.9386,10.9386,10.8982,10.8395,10.7587,10.678,10.5626,10.399,10.3109,10.1898,10.0319,10.0319,9.9438,9.797,9.797,9.7236,9.6135,9.5694,9.507,9.4299,9.3896,9.3198,9.2464,0.0,0.0,0.0,0.0,0.0,0.0,0.0,4.3064,4.3653,4.6109,4.6921,4.6937,4.6109,4.5341,4.501,0.0,0.0,0.0,0.0,0.0,0.0,0.0,0.0,0.0,4.4838,0.0,0.0,4.7022,4.8917,0.0,0.0,0.0,0.0,0.0,5.0579,5.1785,5.3592,5.3736,5.4572,0.0,0.0,5.6758,5.7143,0.0,0.0,0.0,0.0,6.6465,6.9563,7.2021,7.686,8.3021,8.9777,9.2798,9.4282,9.6616,9.8273,9.9627,10.098,10.1893,10.2198,10.0811,9.8442,9.5145,9.0103,8.6795,8.3728,8.0017,7.9023,7.8558,7.7706,8.0941,8.3961,8.4739,8.9153,9.4219,9.9241,10.0912,10.2908,10.6494,10.6697,10.6697,10.7103,10.6595,10.6223,10.5987,10.6183,10.7105,10.9115,10.9922,11.0385,11.0709,11.0392,11.0325,11.0325,10.9606,10.9202,10.9019,10.7807,10.7021,10.6596,10.5091,10.3586,10.2322,10.2101,10.12,9.9879,9.9695,9.9035,9.808,9.7273,9.6355,9.5418,9.4777,9.4042,9.3345,0.0,0.0,0.0,0.0,0.0,0.0,0.0,4.3944,4.5413,4.8308,4.8748,4.8492,4.774,4.7024,4.6055,0.0,0.0,0.0,0.0,0.0,0.0,0.0,0.0,0.0,0.0,0.0,0.0,4.7819,4.8665,0.0,0.0,0.0,0.0,0.0,0.0,5.3543,5.4532,5.5135,0.0,0.0,0.0,0.0,0.0,0.0,0.0,0.0,0.0,6.4261,6.6091,7.2315,7.5303,7.7358,8.2766,8.915,9.4654,9.4924,9.7428,10.0303,10.1214,10.1893,10.2299,10.1487,9.807,9.4131,9.1178,8.6867,8.2798,8.0473,7.8872,7.8019,7.8332,7.9068,8.0951,8.5032,8.7823,9.1776,9.8304,10.1014,10.3517,10.6494,10.8118,10.8591,10.8016,10.7779,10.7509,10.6798,10.7392,10.7285,10.6304,10.6786,10.7793,10.9196,11.0403,11.1111,11.1111,11.1001,11.0597,10.9922,10.9679,10.8894,10.7498,10.6617,10.5678,10.4703,10.399,10.3182,10.2301,10.1604,10.0393,9.8924,9.808,9.6832,9.5492,9.5418,9.4887,9.4189,0.0,0.0,0.0,0.0,0.0,0.0,4.4302,4.4282,4.5432,4.9747,4.9932,4.956,4.9255,4.8578,4.7158,4.4818,0.0,0.0,0.0,0.0,0.0,0.0,0.0,0.0,0.0,0.0,4.7394,4.8563,4.8849,0.0,0.0,0.0,0.0,0.0,0.0,5.4322,5.5917,5.5727,0.0,0.0,0.0,0.0,0.0,0.0,0.0,0.0,0.0,0.0,6.5797,6.9383,7.2259,7.4661,7.6284,8.1021,8.6941,9.1851,9.4996,9.7563,10.0605,10.1893,10.2299,10.1621,9.7664,9.3485,9.147,8.6194,8.1309,7.9776,7.8031,7.7002,7.7456,7.7672,7.9195,8.3491,8.4301,8.6833,9.3837,9.5356,9.7867,10.3585,10.558,10.7103,10.8591,10.9099,10.8896,10.7712,10.8305,10.8709,10.8499,10.8716,10.9295,11.0292,11.0903,11.1221,11.1221,11.1221,11.1001,11.0707,11.0193,10.9701,10.9004,10.7719,10.6691,10.5789,10.5018,10.421,10.3403,10.2595,10.1604,10.0393,9.9145,9.7933,9.6906,9.6392,9.5731,9.5034,0.0,0.0,0.0,0.0,0.0,4.1284,4.4823,4.464,4.5722,5.0288,5.0405,5.0117,5.0117,4.9052,4.7496,4.5413,4.4838,0.0,0.0,0.0,0.0,0.0,0.0,0.0,0.0,0.0,4.7834,4.9323,4.9323,4.9695,0.0,0.0,5.144,5.2697,0.0,0.0,0.0,0.0,0.0,0.0,0.0,0.0,0.0,0.0,0.0,0.0,0.0,0.0,0.0,0.0,0.0,7.2157,7.209,7.4762,7.9464,8.7421,9.1643,9.462,9.8882,10.1081,10.1995,10.1216,9.7292,9.3151,9.1585,8.5939,8.0692,7.9608,7.8049,7.6878,7.6897,7.7266,7.8565,8.173,8.2085,8.4094,9.0277,9.142,9.3909,10.01,10.2096,10.4295,10.761,10.9302,10.9809,10.849,10.8675,10.9294,11.0209,11.0214,11.0581,11.1485,11.1588,11.1405,11.1221,11.1221,11.1221,11.1221,11.0597,11.0377,11.0304,10.8909,10.8012,10.7404,10.6302,10.5495,10.4908,10.3806,10.2815,10.1677,10.0319,9.9181,9.819,9.764,9.7052,9.6556,0.0,0.0,0.0,0.0,0.0,0.0,4.4141,4.521,4.6752,4.9729,5.0117,5.0117,5.0117,4.8154,4.6819,4.68,4.5447,0.0,0.0,0.0,0.0,0.0,0.0,0.0,0.0,0.0,4.8597,5.0083,5.0083,5.0473,5.1183,5.1947,5.272,5.3524,0.0,0.0,0.0,0.0,0.0,0.0,0.0,0.0,0.0,0.0,0.0,0.0,0.0,0.0,0.0,0.0,0.0,0.0,0.0,7.1853,7.395,8.1393,8.7279,9.215,9.5936,9.915,10.1183,10.0373,9.6886,9.3214,9.1659,8.6381,8.1492,8.0405,7.9274,7.8166,7.71,7.8111,7.9329,8.0099,8.2035,8.4776,8.8592,9.1,9.3537,9.6612,9.824,10.0608,10.4395,10.8084,11.0012,10.92,10.8524,10.8689,11.0188,11.0314,11.0907,11.2306,11.2396,11.1992,11.1221,11.1221,11.1221,11.1221,11.1221,11.1221,11.1184,11.0304,10.9995,10.9922,10.8306,10.7609,10.7425,10.5789,10.4079,10.2595,10.1808,10.0503,9.9108,9.9071,9.9052,9.9052,0.0,0.0,0.0,0.0,0.0,0.0,0.0,4.2794,4.3876,4.7409,4.7394,4.7665,4.9187,4.78,4.6989,4.7515,4.5751,0.0,0.0,0.0,0.0,0.0,0.0,0.0,0.0,0.0,4.9375,5.0829,5.0829,5.1235,5.1961,5.2187,5.2716,5.3528,5.4241,5.5007,0.0,0.0,0.0,0.0,0.0,0.0,5.9081,0.0,0.0,0.0,0.0,0.0,0.0,0.0,0.0,0.0,0.0,0.0,0.0,7.6149,8.1122,8.5926,8.9173,9.188,9.3571,9.2793,9.0797,8.8667,8.7359,8.4316,8.1124,7.8698,7.8376,7.8339,7.7745,7.845,8.0103,8.3193,8.3569,8.4577,8.7641,9.0574,9.3909,9.7935,10.4701,10.9708,11.14,11.1703,11.1501,11.0825,11.1398,11.1889,11.1893,11.3288,11.3599,11.241,11.2396,11.1992,11.1221,11.1221,11.1221,11.1221,11.1221,11.1221,11.1221,11.0377,10.9995,10.99,10.8894,10.8123,10.7498,10.6413,10.5018,10.3403,10.2008,10.089,9.9842,9.9292,9.9108,9.9108,0.0,0.0,0.0,0.0,0.0,0.0,0.0,4.1339,4.2225,4.5133,4.5114,4.5689,4.7936,4.6583,4.6162,4.7752,4.6143,0.0,0.0,0.0,0.0,0.0,0.0,0.0,0.0,4.8748,5.0304,5.208,5.2621,5.3264,5.3991,5.4296,5.4227,5.3928,5.4409,5.4695,0.0,0.0,0.0,0.0,0.0,0.0,5.9115,0.0,0.0,0.0,0.0,0.0,0.0,0.0,0.0,0.0,0.0,0.0,0.0,0.0,7.6284,8.0006,8.4437,8.7245,8.8903,8.8734,8.7347,8.5807,8.49,8.2463,7.9956,7.8506,7.8051,7.7991,7.836,7.9138,8.0531,8.2973,8.3547,8.4575,8.6997,8.977,9.347,9.851,10.6189,11.1501,11.2482,11.3092,11.3206,11.2812,11.3309,11.3593,11.3511,11.4482,11.4588,11.3291,11.2983,11.2286,11.1221,11.1221,11.1221,11.1221,11.1221,11.1221,11.1221,11.0707,11.0487,11.0414,10.9312,10.8505,0.0,10.6911,10.5605,10.421,10.2889,10.1898,10.109,10.0319,9.9989,9.9989,0.0,0.0,0.0,0.0,0.0,0.0,0.0,4.0611,4.1559,4.2968,4.3185,4.3982,4.6132,4.4541,4.4488,4.7474,0.0,0.0,0.0,0.0,0.0,0.0,0.0,0.0,0.0,4.9101,5.1251,5.3518,5.4989,5.6071,5.6833,5.7543,5.6749,5.4668,5.4668,5.4296,0.0,0.0,0.0,0.0,0.0,0.0,0.0,0.0,0.0,0.0,0.0,0.0,0.0,0.0,0.0,0.0,0.0,0.0,0.0,0.0,0.0,0.0,0.0,8.4336,8.6196,8.6805,8.552,8.3974,8.3566,8.0658,0.0,7.9212,7.8092,7.7367,7.8855,8.0028,8.0718,8.0469,8.2531,8.4791,8.6589,8.9241,9.3165,9.9051,10.4295,10.7982,10.9302,11.2583,11.4717,11.5009,11.4195,11.4095,11.5019,11.4288,11.4193,11.4809,11.4084,11.291,11.1295,11.1199,11.1221,11.1221,11.1221,11.1221,11.1221,11.1221,11.1221,11.1111,10.9606,10.8909,10.8688,10.7183,10.6009,10.4997,10.4284,10.3513,10.2595,10.1918,10.1494,10.1514,0.0,0.0,0.0,0.0,0.0,0.0,0.0,0.0,0.0,0.0,4.0876,4.1248,4.2265,4.2484,4.3514,0.0,0.0,0.0,0.0,0.0,0.0,0.0,0.0,0.0,0.0,5.0405,5.1776,5.3518,5.4989,5.6071,5.6833,5.7543,5.7002,5.5428,5.5428,5.5327,0.0,0.0,0.0,0.0,0.0,0.0,0.0,0.0,0.0,0.0,6.3802,6.4715,0.0,0.0,0.0,0.0,0.0,0.0,0.0,0.0,7.1684,7.2293,7.4424,0.0,7.7401,7.6995,7.7807,7.8524,0.0,7.7847,7.7735,7.6826,7.6771,7.7367,7.8855,8.0028,8.1235,8.2513,8.3981,8.5214,8.5945,9.3368,10.0506,10.5277,11.0485,11.3192,11.1908,11.2989,11.4411,11.5598,11.4512,11.4305,11.5813,11.5602,11.5288,11.4796,11.4598,11.3717,11.2102,11.1515,11.1221,11.1221,11.1221,11.1221,11.1221,11.1221,11.1221,11.1221,11.0817,10.99,10.8799,10.8395,10.7,10.5107,10.4908,10.399,10.2705,10.2485,10.2008,10.1514,0.0,0.0,0.0,0.0,0.0,0.0,0.0,0.0,0.0,0.0,0.0,3.9896,4.0989,4.1799,0.0,0.0,0.0,0.0,0.0,0.0,0.0,0.0,0.0,0.0,4.956,5.066,5.2283,5.4515,5.5987,5.7273,5.8321,5.8727,5.8118,5.6697,5.6003,5.5699,0.0,0.0,0.0,0.0,5.9757,0.0,0.0,0.0,0.0,0.0,6.3937,6.5019,0.0,6.7354,6.8335,6.9011,0.0,0.0,0.0,0.0,7.0534,7.0872,7.1278,7.2699,7.4153,7.4424,7.5168,7.5811,7.5709,7.5811,7.5879,7.5709,7.5777,7.6521,7.8695,8.0028,8.1354,8.303,8.5156,8.7684,9.0829,9.6831,10.2908,10.8422,11.1906,11.3699,11.3496,11.4478,11.5582,11.6519,11.6103,11.6204,11.709,11.6389,11.5589,11.4818,11.4084,11.3313,11.2396,11.1992,11.1588,11.1221,11.1221,11.1221,11.1221,11.1221,11.1221,11.1221,11.0817,10.99,10.8799,10.8395,10.7183,10.5715,10.5311,10.43,10.3219,10.2795,10.2412,10.2081,0.0,0.0,0.0,0.0,0.0,0.0,0.0,0.0,0.0,0.0,0.0,0.0,0.0,0.0,0.0,0.0,0.0,0.0,0.0,0.0,0.0,0.0,0.0,4.8462,4.9323,5.0558,5.2621,5.553,5.734,5.893,6.0283,6.0757,5.9911,5.7983,5.6511,5.58,0.0,0.0,0.0,0.0,6.0588,0.0,0.0,0.0,0.0,0.0,0.0,0.0,0.0,6.7963,6.9045,6.9845,6.9722,0.0,0.0,0.0,0.0,0.0,7.0432,7.2079,7.3883,7.4796,7.4728,7.4593,7.5067,7.4322,7.3872,7.51,7.4965,7.5516,7.8526,8.0287,8.1736,8.3279,8.6415,9.0896,9.7195,9.9716,10.3111,10.9099,11.079,11.2283,11.4193,11.5721,11.6892,11.7473,11.7896,11.82,11.8418,11.6911,11.5589,11.4818,11.3497,11.2616,11.2396,11.2286,11.1882,11.1221,11.1221,11.1221,11.1221,11.1221,11.1221,11.1184,11.0304,10.9496,10.8688,10.7881,10.7095,10.6302,10.5401,10.4724,10.399,10.3182,10.2889,10.2889,0.0,0.0,0.0,0.0,0.0,0.0,0.0,0.0,0.0,0.0,0.0,0.0,0.0,0.0,0.0,0.0,0.0,0.0,0.0,0.0,0.0,4.8849,4.8834,4.9476,5.0829,5.1066,5.2351,5.4769,5.8118,6.0216,6.1163,6.3666,6.2685,5.8795,5.7306,5.6274,5.5699,0.0,0.0,0.0,6.0182,0.0,0.0,0.0,0.0,0.0,0.0,0.0,0.0,6.5222,6.6609,6.8132,6.7523,0.0,0.0,0.0,0.0,0.0,7.1548,7.3206,7.4052,7.2394,7.2834,7.351,7.3037,7.3206,7.3567,7.3804,7.4255,7.5516,7.8526,8.1436,8.3776,8.5146,8.8477,9.2929,9.8982,10.2191,10.4903,10.7103,11.0283,11.2501,11.2888,11.3694,11.5612,11.8996,11.7499,11.6993,11.8308,11.6911,11.5589,11.4818,11.4598,11.3791,11.2396,11.1698,11.1295,11.1221,11.1221,11.1221,11.1221,11.1221,11.1221,11.1184,11.0304,10.9496,10.8688,10.7881,10.7095,10.6302,10.5401,10.4997,10.4777,10.399,10.3696,10.3586,0.0,0.0,0.0,0.0,0.0,0.0,0.0,0.0,0.0,0.0,0.0,0.0,0.0,0.0,0.0,0.0,0.0,0.0,0.0,0.0,0.0,5.0153,4.9796,5.027,5.1742,5.2993,5.4921,5.7577,6.008,6.2144,6.3666,6.3855,6.2144,5.8945,5.7881,5.6968,5.6308,5.6731,0.0,0.0,0.0,0.0,0.0,0.0,0.0,0.0,0.0,0.0,0.0,0.0,6.6136,6.7252,6.6893,0.0,0.0,0.0,0.0,0.0,7.0331,7.1988,7.3525,7.3927,7.5466,7.6929,7.7203,7.6868,7.6646,7.7076,7.7793,7.9128,8.1747,8.453,8.7701,9.1575,9.394,9.6827,10.1178,10.2505,10.4125,10.7103,10.8997,11.0903,11.3002,11.3917,11.5513,11.8184,11.7287,11.7002,11.7708,11.6617,11.5406,11.4194,11.4217,11.3387,11.1808,11.1405,11.1221,11.1221,11.1221,11.1221,11.1221,11.1221,11.1221,11.1184,11.0304,10.9496,10.8688,10.7881,10.7095,10.6397,10.6009,10.5201,10.4394,10.3513,10.3293,10.3219,0.0,0.0,0.0,0.0,0.0,0.0,0.0,0.0,0.0,0.0,0.0,0.0,0.0,0.0,0.0,0.0,0.0,0.0,0.0,0.0,4.9593,5.0897,5.0913,5.1657,5.3315,5.5056,5.7491,6.0622,6.2685,6.4735,6.6732,6.4478,6.2042,5.9487,5.8558,5.7645,5.6867,5.7577,5.8727,0.0,0.0,0.0,0.0,0.0,0.0,0.0,0.0,0.0,0.0,0.0,0.0,0.0,0.0,0.0,0.0,6.7286,6.7895,6.8977,6.9688,7.1275,7.3442,7.6298,7.7676,7.8959,8.1216,8.0511,7.965,8.0532,8.1514,8.2594,8.4061,8.72,9.1449,9.7273,9.9136,10.0805,10.3723,10.3409,10.4193,10.761,10.8287,10.99,11.3404,11.4499,11.5701,11.7403,11.7293,11.7181,11.7181,11.6287,11.5075,11.3607,11.3387,11.2616,11.1221,11.1221,11.1221,11.1221,11.1221,11.1221,11.1221,11.1221,11.1111,11.0891,11.0083,10.9276,10.8505,10.7719,10.7021,10.6397,10.6192,10.5311,10.41,10.3696,10.3586,10.3513,0.0,0.0,0.0,0.0,0.0,0.0,0.0,0.0,0.0,0.0,0.0,0.0,0.0,0.0,0.0,0.0,0.0,0.0,0.0,0.0,4.9357,5.015,5.2164,5.4262,5.6427,5.663,5.8524,6.2212,6.5764,6.8301,6.9845,6.7557,6.458,6.1061,5.9588,5.8152,5.6867,5.7577,5.8727,6.0182,0.0,0.0,0.0,0.0,0.0,0.0,0.0,0.0,0.0,0.0,0.0,0.0,0.0,0.0,6.8876,6.8064,6.7895,6.8605,7.1413,7.2961,7.4608,7.7948,7.6543,7.5812,8.1432,8.1444,8.0636,8.1751,8.3149,8.3861,8.2768,8.781,9.378,9.8906,10.1702,10.4018,10.6322,10.7069,10.761,10.8016,10.9277,11.1101,11.3605,11.4496,11.5912,11.8179,11.7611,11.7181,11.7181,11.5676,11.4488,11.3593,11.2873,11.2102,11.1221,11.1221,11.1221,11.1221,11.1221,11.1221,11.1221,11.1221,11.0817,11.001,10.9202,10.8395,10.7609,10.678,10.6507,10.6302,10.5495,10.5107,10.5107,10.5899,10.6082,10.6009,0.0,0.0,0.0,0.0,0.0,0.0,0.0,0.0,0.0,0.0,0.0,0.0,0.0,0.0,0.0,0.0,0.0,0.0,0.0,4.7887,4.924,5.1386,5.23,5.3936,5.6477,5.8149,6.1467,6.6576,6.8876,6.935,6.803,6.5324,6.2821,6.0486,5.8524,5.7829,5.8168,5.7983,5.9032,6.0825,0.0,0.0,0.0,0.0,0.0,0.0,0.0,0.0,0.0,0.0,6.3802,6.5019,6.5019,6.6542,6.8301,6.7996,6.8267,6.9011,7.0601,7.1986,7.3788,7.7221,7.7023,7.7688,8.412,8.5735,8.6254,8.7609,8.9457,9.0782,9.0532,9.3696,9.7354,10.0319,10.35,10.5919,10.6798,10.7509,10.7712,10.6697,10.8003,10.9583,11.151,11.2796,11.4382,11.6708,11.6617,11.6213,11.5676,11.5112,11.4194,11.291,11.2579,11.1992,11.1221,11.1221,11.1221,11.1221,11.1221,11.1221,11.1221,11.1221,11.0781,10.9995,10.9092,10.8285,10.7498,10.6119,10.5605,10.5495,10.4687,10.4687,10.5107,10.4908,10.4798,10.4798,0.0,0.0,0.0,0.0,0.0,0.0,0.0,0.0,0.0,0.0,0.0,0.0,0.0,0.0,0.0,0.0,0.0,0.0,4.6234,4.7066,4.872,5.1472,5.195,5.3497,5.6288,5.8224,6.2048,6.79,7.0175,6.9767,6.6724,6.4038,6.2042,6.0723,5.849,5.8321,5.9637,5.8579,5.8983,6.0393,6.0091,6.0561,0.0,0.0,0.0,0.0,0.0,0.0,0.0,0.0,6.3429,6.4343,6.4783,6.6305,6.7895,6.7895,6.8863,6.9961,7.0136,7.1389,7.3293,7.6032,7.7349,7.9741,8.6444,8.8812,9.0247,9.2568,9.3218,9.3651,9.4633,9.6315,9.8294,10.0596,10.4295,10.7001,10.7204,10.7712,10.7509,10.5986,10.7076,10.8602,10.9884,11.1291,11.3004,11.5094,11.5185,11.5002,11.4488,11.4194,11.3497,11.2396,11.2212,11.1808,11.1221,11.1221,11.1221,11.1221,11.1221,11.1221,11.1221,11.0891,11.0414,10.9606,10.8799,10.8012,10.7073,10.6009,10.5495,10.5401,10.4614,10.4798,10.5401,10.4908,10.4687,10.4687,0.0,0.0,0.0,0.0,0.0,0.0,0.0,0.0,0.0,0.0,0.0,0.0,0.0,0.0,0.0,0.0,0.0,0.0,4.5268,4.6154,4.7631,4.9952,5.1222,5.3202,5.6053,5.6536,5.9592,6.5271,6.929,6.97,6.669,6.4492,6.3091,6.2265,5.9994,5.9859,6.1173,5.9299,5.8492,5.8591,5.9317,5.9593,0.0,0.0,0.0,0.0,0.0,0.0,0.0,0.0,6.3477,6.3748,6.5222,6.6711,6.7895,6.7895,6.9685,7.1443,7.0456,7.1668,7.3463,7.4705,7.7308,8.1261,8.8001,8.9979,9.1594,9.5774,9.3246,9.0966,9.3233,9.4248,9.5939,9.9595,10.399,10.7103,10.7915,10.7982,10.7509,10.5986,10.7209,10.8388,10.9113,11.0493,11.2001,11.3503,11.3593,11.3593,11.3593,11.28,11.2396,11.2396,11.1588,11.1221,11.1221,11.1221,11.1221,11.1221,11.1221,11.1221,11.1184,11.0377,10.9591,10.8688,10.7881,10.7073,10.6376,10.6397,10.6397,10.6302,10.5401,10.5605,10.6376,10.6376,10.6376,10.6376,0.0,0.0,0.0,0.0,0.0,0.0,0.0,0.0,0.0,0.0,0.0,0.0,0.0,0.0,0.0,0.0,0.0,0.0,4.4363,4.4704,4.563,4.7365,4.9167,5.0184,5.0275,5.365,5.8074,6.3544,6.6635,6.6373,6.2922,6.167,6.0452,5.9253,5.9607,5.9742,5.9637,5.9083,5.8978,5.9157,5.8819,5.8834,0.0,0.0,0.0,0.0,0.0,0.0,0.0,0.0,0.0,0.0,6.4613,6.6305,6.7895,6.7895,6.8863,6.994,7.0136,7.1005,7.26,7.5571,7.8579,8.2538,8.9226,9.1295,9.3336,9.8837,9.7288,9.5432,9.7157,9.7631,9.851,10.0675,10.3889,10.6392,10.7103,10.7712,10.7306,10.5309,10.6287,10.7318,10.7522,10.9418,11.1179,11.26,11.3299,11.3409,11.28,11.2506,11.2102,11.1588,11.1295,11.1221,11.1221,11.0597,11.0377,11.0304,10.979,10.979,11.0304,11.0083,10.9297,10.7881,10.7719,10.7073,10.6302,10.5091,10.4981,10.5422,10.4614,10.5091,10.6376,10.6376,10.6376,10.6376,0.0,0.0,0.0,0.0,0.0,0.0,0.0,0.0,0.0,0.0,0.0,0.0,0.0,0.0,0.0,0.0,0.0,0.0,0.0,4.3565,4.4389,4.6194,4.7601,4.8462,4.8769,5.2976,5.6616,5.9453,6.2922,6.3139,6.0366,5.9957,5.9761,5.9742,6.0695,6.1004,6.0752,5.9996,5.9172,5.8393,5.8134,5.7903,5.7911,0.0,0.0,0.0,0.0,0.0,0.0,0.0,0.0,0.0,6.3937,6.5493,6.7083,6.7387,6.8723,7.0273,7.0904,7.2122,7.4082,7.7726,8.0911,8.4938,9.1913,9.4789,9.7089,10.1014,9.9424,9.7766,9.9288,9.9051,9.9254,10.1113,10.3585,10.5513,10.602,10.6697,10.6426,10.4498,10.4998,10.5696,10.5923,10.7693,10.9486,11.0902,11.1979,11.2396,11.1919,11.1919,11.1698,11.1199,11.1221,11.0979,11.0707,11.0193,10.979,10.9496,10.9019,10.8909,10.8982,10.8982,10.849,10.7609,10.7315,10.6691,10.5789,10.4394,10.4614,10.5495,10.432,10.4908,10.6376,10.6376,10.6376,10.6376,0.0,0.0,0.0,0.0,0.0,0.0,0.0,0.0,0.0,0.0,0.0,0.0,0.0,0.0,0.0,0.0,0.0,0.0,0.0,0.0,4.3711,4.5826,4.6421,4.7689,4.989,5.3377,5.4729,5.3902,5.8647,6.0193,5.8661,5.9019,6.0215,6.2068,6.2441,6.2777,6.2978,6.1181,5.8901,5.6551,5.7123,5.6771,5.6217,5.8993,0.0,0.0,0.0,0.0,0.0,0.0,0.0,0.0,6.3294,6.4512,6.5831,6.6576,6.9109,7.1801,7.2417,7.4353,7.7066,8.0791,8.4295,8.8626,9.5529,9.9387,10.169,10.2401,10.0303,9.8848,10.0303,9.939,9.9119,10.1316,10.3313,10.4599,10.47,10.5276,10.5208,10.3787,10.3585,10.382,10.4391,10.5784,10.7319,10.8698,11.0216,11.1111,11.1111,11.1184,11.1221,11.1221,11.1111,11.0707,10.9995,10.9922,10.9386,10.8688,10.8615,10.8175,10.7498,10.7609,10.7498,10.7315,10.6596,10.5789,10.4887,10.41,10.4798,10.6082,10.4504,10.4908,10.6376,10.6376,10.6376,10.6376,0.0,0.0,0.0,0.0,0.0,0.0,0.0,0.0,0.0,0.0,0.0,0.0,0.0,0.0,0.0,0.0,0.0,0.0,0.0,0.0,4.2924,4.3886,4.5495,4.6864,4.7908,4.9487,5.0205,5.0008,5.5823,5.773,5.5984,5.7666,5.8782,5.9411,6.1099,6.1127,5.9903,5.8628,5.6861,5.4879,5.4763,5.4903,5.5309,5.6888,0.0,0.0,0.0,0.0,0.0,0.0,0.0,0.0,6.3294,6.4512,6.5831,6.6576,6.8981,7.1794,7.3648,7.5391,7.8021,8.3467,8.9709,9.5259,9.8003,10.0506,10.2299,10.2502,10.1995,10.1792,10.2705,10.213,10.1893,10.3008,10.3483,10.399,10.4599,10.4802,10.4599,10.3686,10.3585,10.3616,10.3695,10.5011,10.6199,10.7111,10.9107,11.0325,11.0325,11.0891,11.1221,11.1221,11.0597,11.0215,10.9995,10.871,10.8012,10.7902,10.7183,10.678,10.6691,10.7315,10.6911,10.5584,10.5495,10.4908,10.41,10.3293,10.3917,10.5311,10.4284,10.4908,10.6376,10.6376,10.6376,10.6376,0.0,0.0,0.0,0.0,0.0,0.0,0.0,0.0,0.0,0.0,0.0,0.0,0.0,0.0,0.0,0.0,0.0,0.0,0.0,0.0,4.296,4.4207,4.5583,4.66,4.7309,4.8293,4.882,4.882,5.2482,5.4156,5.3903,5.5407,5.6648,5.7776,6.0195,5.9868,5.7496,5.7839,5.6322,5.3687,5.3837,5.4072,5.4504,0.0,0.0,0.0,0.0,0.0,0.0,0.0,0.0,0.0,0.0,0.0,6.5459,6.6914,6.8977,7.1481,7.4796,7.7333,8.0682,8.778,9.3262,9.736,9.9221,10.0811,10.2096,10.2401,10.2502,10.2603,10.3009,10.2806,10.2603,10.3009,10.3382,10.3585,10.3618,10.4023,10.3889,10.3179,10.2805,10.2799,10.3423,10.4387,10.5487,10.6618,10.8391,10.9386,10.9386,11.0193,11.0414,11.0083,11.001,10.9606,10.8894,10.8012,10.7388,10.7021,10.6596,10.6192,10.5789,10.6192,10.5715,10.4504,10.4504,10.41,10.3293,10.2889,10.3602,10.4997,10.421,10.4908,10.6376,10.6376,10.6376,10.6376,0.0,0.0,0.0,0.0,0.0,0.0,0.0,0.0,0.0,0.0,0.0,0.0,0.0,0.0,0.0,0.0,0.0,0.0,0.0,0.0,0.0,4.5214,4.5942,4.66,4.7309,4.8136,4.8532,4.8532,4.9416,5.0675,5.2321,5.3393,5.4835,5.6612,5.913,5.8512,5.5685,5.7005,5.5532,5.2414,5.3095,5.3441,0.0,0.0,0.0,0.0,0.0,0.0,0.0,0.0,0.0,0.0,0.0,0.0,6.5019,6.7083,6.8977,7.1312,7.554,7.9431,8.4058,9.1372,9.4988,9.7258,9.9356,10.0405,10.1183,10.1995,10.2299,10.2502,10.2299,10.2299,10.2299,10.2098,10.2603,10.2903,10.2683,10.3189,10.342,10.3092,10.251,10.2418,10.3087,10.39,10.4889,10.5909,10.7493,10.8395,10.8578,10.9408,10.9496,10.8799,10.9224,10.8688,10.7388,10.7095,10.6617,10.5993,10.5993,10.5495,10.4724,10.4483,10.41,10.3476,10.3476,10.2999,10.2301,10.2595,10.3586,10.4777,10.432,10.5018,10.6376,10.6376,10.6376,10.6376,0.0,0.0,0.0,0.0,0.0,0.0,0.0,0.0,0.0,0.0,0.0,0.0,0.0,0.0,0.0,0.0,0.0,0.0,0.0,0.0,0.0,4.5244,4.5942,4.66,4.7309,4.743,4.7495,4.7495,4.7645,4.8969,5.1409,5.3396,5.4692,5.5385,5.6925,5.6599,5.4766,5.3745,5.2107,5.0255,0.0,0.0,0.0,0.0,0.0,0.0,0.0,0.0,0.0,5.9742,6.0723,0.0,0.0,0.0,6.4918,6.6508,6.8922,7.1853,7.4999,8.0885,8.7042,9.0696,9.3774,9.6345,9.7935,9.8882,9.9627,10.0405,10.1589,10.2299,10.1722,10.1487,10.1284,10.0576,10.0576,10.1281,10.3095,10.3477,10.388,10.5095,10.5121,10.4295,10.2519,10.3502,10.4096,10.3588,10.5509,10.7,10.7719,10.8505,10.8909,10.8799,10.7587,10.6801,10.6617,10.5091,10.4284,10.421,10.421,10.3806,10.2999,10.2301,10.1898,10.1808,10.1808,10.1404,10.0686,10.2118,10.3219,10.41,10.4724,10.5495,10.6376,10.6376,10.6376,10.6376,0.0,0.0,0.0,0.0,0.0,0.0,0.0,0.0,0.0,0.0,0.0,0.0,0.0,0.0,0.0,0.0,0.0,0.0,0.0,0.0,0.0,4.4706,4.5394,4.5873,4.6172,4.6561,4.6719,4.6719,4.6719,4.8274,5.1276,5.3968,5.5362,5.5681,0.0,0.0,0.0,0.0,0.0,0.0,0.0,0.0,0.0,0.0,0.0,0.0,0.0,0.0,5.69,5.8355,5.937,6.0283,6.1907,0.0,0.0,0.0,6.8347,7.1278,7.6724,8.1528,8.6129,9.0763,9.2928,9.4518,9.6853,9.7631,9.807,9.8815,9.9525,10.0069,10.0608,10.1393,10.1801,10.1394,10.2002,10.2918,10.3876,10.3995,10.4209,10.4905,10.4597,10.4001,10.3316,10.3485,10.3578,10.3606,10.4415,10.5222,10.5495,10.6302,10.6523,10.6082,10.5789,10.5495,10.4981,10.4284,10.388,10.388,10.2999,10.2395,10.2008,10.0302,9.9952,10.0796,10.0796,10.0613,10.0393,10.1494,10.2779,10.388,10.4284,10.5201,10.6376,10.6376,10.6376,10.6376,0.0,0.0,0.0,0.0,0.0,0.0,0.0,0.0,0.0,0.0,0.0,0.0,0.0,0.0,0.0,0.0,0.0,0.0,0.0,0.0,0.0,4.4267,4.4945,4.5304,4.5304,4.5942,4.6211,4.6031,4.6211,4.8155,5.1785,5.4407,5.6521,0.0,5.8957,5.7515,0.0,0.0,0.0,0.0,0.0,0.0,0.0,0.0,0.0,0.0,0.0,0.0,5.5631,5.7103,5.8118,5.9133,6.14,6.299,0.0,0.0,0.0,7.0195,7.6724,8.0107,8.3152,8.8767,9.0701,9.2015,9.4823,9.5601,9.5973,9.6717,9.7156,9.7737,9.9094,10.0501,10.1579,10.1909,10.2908,10.3782,10.4574,10.4697,10.472,10.4909,10.4388,10.3997,10.3805,10.329,10.3219,10.3598,10.3586,10.3696,10.388,10.4504,10.4504,10.388,10.41,10.3917,10.3293,10.3109,10.2889,10.2705,10.1698,10.1,10.0503,9.8724,9.8447,9.9402,9.9805,9.9989,10.0099,10.131,10.2485,10.3586,10.3806,10.4687,10.5789,10.6009,10.6082,10.6082,0.0,0.0,0.0,0.0,0.0,0.0,0.0,0.0,0.0,0.0,0.0,0.0,0.0,0.0,0.0,3.9511,4.0019,4.0965,4.2321,4.297,4.3609,4.4267,4.4945,0.0,4.5304,4.5942,4.5971,4.5334,4.5971,4.8633,5.3133,5.4421,5.8083,6.3524,6.2602,6.0156,5.6648,0.0,0.0,0.0,0.0,0.0,0.0,0.0,0.0,0.0,0.0,0.0,5.4871,5.6359,5.734,5.8373,6.0655,6.1873,6.2787,0.0,0.0,0.0,7.2789,7.5506,7.8314,8.2847,8.6095,8.8801,9.1068,9.215,9.2831,9.3639,9.4773,9.5896,9.6712,9.8083,9.9521,10.0888,10.1077,10.2183,10.4972,10.5416,10.572,10.6224,10.6316,10.5311,10.3006,10.2713,10.2717,10.2815,10.2815,10.3109,10.388,10.3917,10.3917,10.388,10.2505,10.1698,10.1604,10.0927,10.0099,9.9365,9.9989,9.9548,9.808,9.7953,9.753,9.6979,9.8521,9.9181,9.9345,10.1714,10.2705,10.2795,10.3586,10.4011,10.41,10.4908,10.5201,10.529,0.0,0.0,0.0,0.0,0.0,0.0,0.0,0.0,0.0,0.0,0.0,0.0,0.0,4.1074,4.0307,4.0068,4.0636,4.1433,4.2351,4.297,4.3409,4.3668,4.4296,4.4676,4.4676,4.4895,4.5125,4.5304,4.5544,4.7369,5.076,5.3775,5.6489,5.8845,5.9869,6.0102,5.9525,5.623,0.0,0.0,0.0,0.0,0.0,0.0,0.0,5.3518,5.3518,5.3957,5.4753,5.5784,5.69,5.8137,5.9438,6.0689,6.1975,6.3463,6.5121,6.7184,7.0488,7.2665,7.5067,7.9566,8.2915,8.5587,8.7347,8.9444,9.1291,9.2413,9.3365,9.4617,9.6572,9.8605,10.0283,10.1401,10.2289,10.3188,10.432,10.4495,10.461,10.4793,10.4798,10.421,10.2795,10.2191,10.1714,10.12,10.0686,10.0723,10.1494,10.109,10.109,10.1604,10.0503,9.9952,9.9952,9.9659,9.9402,9.9108,9.8851,9.8447,9.7879,9.7346,9.6979,9.6759,9.786,9.8631,9.9218,10.0613,10.1788,10.2705,10.2999,10.3403,10.388,10.421,10.4687,10.5107,0.0,0.0,0.0,0.0,0.0,0.0,0.0,0.0,0.0,0.0,0.0,0.0,0.0,0.0,4.0984,4.0775,4.1343,4.1912,4.2381,4.297,4.329,4.329,4.4147,4.4526,4.4296,4.4745,4.4954,4.4975,4.5185,4.6672,4.9359,5.2238,5.4684,5.6714,5.73,5.9099,0.0,5.8256,5.6833,5.6664,5.4668,5.4025,5.4262,5.4532,5.46,5.46,5.46,5.4905,5.5344,5.5344,5.6156,5.734,5.8321,5.9674,6.1129,6.2395,6.3632,6.5141,6.7624,6.9383,7.1718,7.6724,7.9261,8.1426,8.4979,8.6907,8.8469,9.0334,9.1811,9.34,9.5678,9.8076,10.0101,10.1175,10.228,10.3109,10.3109,10.3607,10.3696,10.3203,10.3293,10.3002,10.1711,10.1291,10.0692,9.9682,9.9293,9.9328,9.9879,9.9402,9.9218,9.9475,9.8998,9.8557,9.83,9.8557,9.8557,9.83,9.8007,9.7769,9.7456,9.6942,9.6685,9.6722,9.7273,9.7933,9.8778,9.9585,10.0686,10.1898,10.1898,10.2595,10.3513,10.3806,10.4394,10.5107,0.0,0.0,0.0,0.0,0.0,0.0,0.0,0.0,0.0,0.0,0.0,0.0,0.0,0.0,0.0,4.1553,4.2062,4.244,4.244,4.3,4.329,4.329,4.4586,4.4975,4.4326,4.5613,4.5642,4.4326,4.4975,4.6642,4.9187,4.983,5.2943,5.7865,5.543,5.7366,6.242,6.1481,6.1129,6.0858,5.6393,5.5074,5.5834,5.6528,5.6799,5.6799,5.6833,5.6867,5.6697,5.5243,5.5243,5.6105,5.7476,5.8896,0.0,0.0,0.0,6.2685,0.0,0.0,0.0,7.395,7.4965,7.642,8.3727,8.4302,8.4193,8.7287,8.9909,9.2164,9.3782,9.6176,9.8374,9.9876,10.0907,10.1384,10.1514,10.2779,10.3182,10.1604,10.2191,10.1816,9.9748,9.9979,9.9728,9.8417,9.876,9.9015,9.9071,9.9052,9.8668,9.786,9.7823,9.7419,9.6649,9.7419,9.7419,9.6685,9.7456,9.7456,9.6685,9.6685,9.6685,9.6685,9.6685,9.7126,9.7953,9.8741,9.9548,10.0283,10.0283,10.131,10.2815,10.3586,10.4394,10.518,0.0,0.0,0.0,0.0,0.0,0.0,0.0,0.0,0.0,0.0,0.0,0.0,0.0,0.0,0.0,4.3419,4.322,4.325,4.3748,4.3489,4.329,4.329,4.4117,4.4736,4.5005,4.5394,4.5394,4.5035,4.5214,4.5663,4.6433,4.8057,5.0087,5.2479,5.4445,5.6146,5.7473,5.62,5.7205,5.9317,5.5953,5.5683,5.7205,5.6308,5.6341,5.6867,5.7408,5.8287,5.9133,5.8727,5.9099,5.9641,5.893,0.0,0.0,0.0,0.0,0.0,6.2753,0.0,0.0,0.0,0.0,0.0,7.5506,7.7468,8.0229,8.5507,8.7637,8.9605,9.3119,9.5554,9.6873,9.6396,9.8278,9.9989,10.0596,10.0503,10.0503,10.0613,10.0796,10.0713,10.0114,9.9699,9.9263,9.8924,9.794,9.7603,9.819,9.8227,9.7603,9.6208,9.6171,9.5768,9.496,9.5768,9.6061,9.5841,9.6649,9.6906,9.6685,9.6685,9.6685,9.6685,9.6685,9.6832,9.7089,9.7897,9.9035,10.0283,10.0283,10.131,10.2705,10.2925,10.3896,10.5107,0.0,0.0,0.0,0.0,0.0,0.0,4.4117,0.0,0.0,0.0,0.0,0.0,0.0,0.0,0.0,4.4646,4.4087,4.3997,4.4676,4.3818,4.3409,4.3698,4.4356,4.4915,4.5274,4.5843,4.5873,4.5304,4.5574,4.5574,4.5334,4.68,0.0,0.0,5.2272,5.3809,5.4264,5.3723,5.5446,5.8389,5.6664,5.7103,5.8795,5.8592,5.8964,5.9674,6.008,6.0994,6.1772,6.052,6.0622,6.0994,5.9133,0.0,0.0,0.0,0.0,0.0,0.0,0.0,0.0,6.6542,0.0,0.0,7.2969,7.4424,7.676,8.2847,8.5145,8.7085,9.0505,9.2827,9.4045,9.3643,9.4965,9.6692,9.8549,9.8509,9.8554,9.9215,9.9585,9.9589,9.9031,9.874,9.836,9.7786,9.7092,9.6759,9.6906,9.6906,9.6318,9.5034,9.4997,9.4777,9.4299,9.4777,9.4997,9.4997,9.5804,9.6208,9.6208,9.6539,9.6685,9.6685,9.6685,9.6685,9.6722,9.7199,9.8337,9.9805,9.9805,10.1017,10.2705,10.3109,10.4027,10.5201,0.0,0.0,4.4616,4.5185,4.5364,4.5394,4.5394,0.0,0.0,0.0,0.0,0.0,0.0,0.0,0.0,0.0,4.4855,4.4676,4.5244,4.4057,4.3579,4.4147,4.4915,4.5274,4.5185,4.6591,4.6651,4.5304,4.5971,4.6001,4.5424,4.6001,0.0,0.0,0.0,5.1101,5.2316,5.3325,5.5243,5.7663,5.7832,5.8896,6.052,6.1893,6.2854,6.3511,6.3579,6.4106,6.4309,6.1637,6.1028,6.1061,5.905,5.9607,6.0655,0.0,5.9641,0.0,0.0,0.0,0.0,0.0,6.6711,0.0,7.3003,7.3138,7.3523,7.9214,8.1971,8.4051,8.6408,8.8604,9.0226,9.0644,9.1022,9.2429,9.5931,9.6576,9.6964,9.7602,9.8307,9.8294,9.7159,9.7487,9.7246,9.5959,9.621,9.6135,9.5382,9.5364,9.4997,9.4189,9.4153,9.4116,9.4006,9.4116,9.4153,9.4189,9.4979,9.5401,9.5528,9.6245,9.6612,9.6685,9.6685,9.6685,9.6685,9.6685,9.764,9.9108,9.9108,10.0613,10.2815,10.3586,10.4394,10.518,0.0,0.0,4.5155,4.5274,4.5753,4.6091,4.6091,4.6001,0.0,0.0,0.0,0.0,0.0,0.0,0.0,0.0,4.5813,4.5155,4.5274,4.4057,4.3349,4.3489,4.4646,4.5035,4.4506,4.6352,4.6651,4.5304,4.5971,4.6241,4.6121,4.6241,0.0,0.0,0.0,5.0557,5.1013,5.401,5.5597,5.624,5.7408,5.9524,6.1994,6.2299,6.2854,6.3579,6.4174,6.485,6.5412,6.4803,6.3531,6.211,6.1637,6.0554,5.9487,5.9641,6.0452,0.0,0.0,0.0,0.0,6.4681,6.5933,0.0,6.6846,6.7793,6.9913,7.3899,7.5988,7.798,8.0799,8.4009,8.5723,8.4215,8.5971,8.9174,9.3954,9.4109,9.4395,9.614,9.6506,9.665,9.6791,9.6863,9.6552,9.5643,9.5103,9.4703,9.452,9.452,9.4153,9.3345,9.3345,9.3015,9.2281,9.2978,9.3345,9.3345,9.4153,9.4887,9.5492,9.5639,9.6098,9.6685,9.6685,9.6685,9.6685,9.6685,9.764,9.9108,9.9108,10.0613,10.2815,10.3586,10.4394,10.518,0.0,0.0,4.6022,4.6681,4.707,4.7429,4.7758,4.7519,0.0,0.0,0.0,0.0,0.0,0.0,0.0,0.0,0.0,0.0,0.0,4.4715,4.3938,4.4267,4.4945,4.5125,4.4796,4.6441,4.683,4.5813,4.645,4.6629,4.63,4.6629,4.7048,0.0,0.0,5.0472,5.0792,5.3471,5.5023,5.5936,5.8524,6.0723,6.2536,6.3652,6.4512,6.5168,6.554,6.5933,6.613,6.5409,6.5167,6.483,6.2973,6.2649,6.2665,6.1569,6.1806,6.2482,6.2854,6.3768,6.4681,6.5033,6.5696,0.0,0.0,6.6,6.7395,7.1392,7.2249,7.3257,7.6599,7.867,7.9888,8.0057,8.2223,8.478,8.734,9.0044,9.2594,9.4875,9.5167,9.5241,9.5454,9.5511,9.5327,9.4923,9.452,9.4116,9.3712,9.3712,9.3308,9.2464,9.2464,9.2244,9.1803,9.2244,9.2464,9.2464,9.3308,9.3896,9.4336,9.5125,9.5712,9.6135,9.6539,9.6685,9.6685,9.6685,9.7419,9.8557,9.8961,10.0099,10.1714,10.3293,10.421,10.4687,0.0,0.0,4.6839,4.7908,4.8319,4.8678,4.9239,4.8947,0.0,0.0,0.0,0.0,0.0,0.0,0.0,0.0,0.0,0.0,0.0,4.5603,4.4676,4.5095,4.5214,4.5185,4.4915,4.6352,4.6779,4.6121,4.692,4.6958,4.633,4.7194,4.7644,4.7798,4.9649,5.0746,5.1316,5.2857,5.4532,5.6409,5.9742,6.1434,6.2178,6.441,6.5662,6.6183,6.6508,6.6824,6.6909,6.5899,6.671,6.7679,6.4697,6.5065,6.617,6.3903,6.3666,6.4153,6.4289,6.4559,6.5067,6.6305,6.6034,6.5561,0.0,0.0,0.0,6.9091,6.9079,6.935,7.236,7.3138,7.3916,7.5743,7.817,7.9969,8.0395,8.5275,8.9792,9.2383,9.3279,9.3726,9.3804,9.3529,9.3492,9.3786,9.3529,9.3198,9.2868,9.2868,9.2537,9.1803,9.1803,9.1803,9.1803,9.1803,9.1803,9.1803,9.2501,9.2941,9.3161,9.4446,9.5198,9.5528,9.6208,9.6575,9.6685,9.6685,9.7089,9.775,9.8741,9.9585,10.0613,10.2999,10.388,10.41,4.692,4.7189,0.0,4.7399,4.8409,4.9187,4.9299,4.9703,4.8927,0.0,0.0,0.0,0.0,0.0,0.0,0.0,0.0,4.6839,4.8087,4.6292,4.4945,4.4436,4.4975,4.4736,4.3549,4.5433,4.6091,4.5394,4.6681,4.6958,4.6322,4.7904,4.8326,4.7898,4.9872,5.1484,5.2803,5.3294,5.5108,5.778,5.9539,6.0283,6.0622,6.2868,6.3781,6.4052,6.5358,6.6812,6.8215,6.8763,6.9085,6.9234,6.8832,6.7362,6.5865,6.6203,6.6352,6.6555,6.7218,6.8402,6.8864,6.6406,6.7218,6.759,6.3768,0.0,6.5358,6.4559,0.0,6.6224,6.6609,0.0,0.0,6.9011,7.2056,7.506,7.7031,8.0211,8.35,8.6589,8.9651,9.1687,9.2042,9.0812,9.0537,9.1987,9.0776,9.0537,9.1877,9.195,9.1913,9.1803,9.1803,9.1803,9.1803,9.1803,9.1803,9.1803,9.1913,9.2354,9.3125,9.3308,9.4153,9.5492,9.5602,9.6061,9.6685,9.6685,9.6759,9.6979,9.8521,9.9585,10.0613,10.2999,10.388,10.41,4.704,4.7309,0.0,0.0,4.8349,4.8977,4.9703,4.9982,4.9907,4.9349,0.0,0.0,4.9789,5.0171,0.0,0.0,4.977,4.8903,4.8349,4.713,0.0,4.5493,4.5732,4.5613,4.5044,4.6241,4.6741,4.6471,4.704,4.716,4.6912,4.8212,4.8979,4.937,5.0792,5.2376,5.3959,5.4528,5.5496,5.6799,5.8693,5.9201,5.9268,6.326,6.5053,6.5439,6.5628,6.6466,6.7444,6.7441,6.8262,6.9145,6.8401,6.8241,6.8221,6.7624,6.7455,6.7523,6.7827,6.8368,6.8538,6.7286,6.7387,6.7049,6.4309,6.3734,6.3835,6.4106,0.0,0.0,0.0,0.0,0.0,0.0,7.006,7.2434,7.3008,7.666,8.0756,8.4724,8.6481,8.7797,8.8887,8.8409,8.8666,9.0298,8.9326,8.9417,9.1033,9.1546,9.1803,9.1803,9.1803,9.1803,9.1803,9.1803,9.1803,9.1803,9.1803,9.1987,9.2354,9.2868,9.3492,9.4153,9.5088,9.5675,9.6061,9.6502,9.6685,9.6869,9.8484,9.9328,9.9916,10.2301,10.3513,10.41,4.707,0.0,0.0,0.0,4.8199,4.8656,4.977,4.956,4.9745,5.1182,5.0019,5.0117,5.2886,5.2478,5.2223,5.2785,5.2157,5.1079,4.9464,4.8416,4.7399,4.636,4.63,4.6211,4.6031,4.6659,4.704,4.704,4.7219,4.7219,4.7061,4.8553,4.956,5.0217,5.2105,5.3904,5.5565,5.6274,5.7085,5.7931,5.9148,5.9573,5.981,6.3193,6.4952,6.5561,6.5222,6.5868,6.6901,6.6714,6.7896,6.9349,6.8425,6.8804,6.935,6.8233,6.7895,6.7963,6.8166,6.8368,6.8335,6.7489,6.688,6.6,6.414,6.3193,6.3057,6.4343,6.3632,0.0,0.0,0.0,6.5493,6.6373,0.0,7.0097,7.0218,7.3299,7.7118,8.136,8.3064,8.4499,8.5877,8.5803,8.6427,8.8262,8.7472,8.7876,9.0134,9.0812,9.1326,9.1803,9.1803,9.1803,9.1803,9.1803,9.1803,9.1803,9.1803,9.1803,9.1803,9.2464,9.2868,9.3161,9.4336,9.5088,9.5528,9.6135,9.6649,9.7163,9.8557,9.9255,9.9695,10.1898,10.3219,10.399,4.716,4.7309,0.0,4.7339,4.7878,4.8528,4.9217,4.8179,4.7784,4.9115,4.9235,5.0187,5.283,5.3706,5.488,5.6735,5.4606,5.2815,5.2127,5.0295,4.8379,4.639,4.63,4.6001,4.5334,4.5971,4.633,4.633,4.6958,4.698,4.6373,4.9094,5.0013,4.9606,5.3741,5.6391,5.7832,5.8592,6.0569,6.3139,6.1772,6.2076,6.3173,6.1941,6.1907,6.2618,6.3328,6.5128,6.7295,6.7992,6.9237,7.053,7.0486,6.9337,6.7963,6.7895,6.7895,6.8064,6.8842,6.9586,6.9439,6.6495,6.5751,6.4972,6.2076,6.2463,6.368,6.4444,6.5696,6.6656,6.6724,6.6724,0.0,0.0,6.6406,0.0,0.0,6.9902,7.1179,7.4547,7.9261,8.259,8.3418,8.281,8.3324,8.5764,8.4462,8.5289,8.9216,8.9473,9.017,9.173,9.1803,9.1803,9.1803,9.1803,9.1803,9.1803,9.1803,9.1803,9.1803,9.184,9.2281,9.3088,9.3161,9.4079,9.5492,9.5528,9.6465,9.7933,9.8778,9.9585,10.0503,10.2118,10.3219,10.399,0.0,0.0,0.0,4.7309,4.7489,4.7997,4.9127,4.8799,4.9551,5.2762,5.234,5.3239,5.7299,5.7547,5.7723,5.8381,5.7214,5.5628,5.3653,5.2486,5.1193,4.962,4.9112,4.8574,4.7959,4.7728,4.7735,4.7956,4.7524,4.7897,4.9043,4.9972,5.0876,5.1899,5.4528,5.6528,5.8035,5.9776,6.0501,6.0501,6.052,6.2009,6.414,6.3125,6.3226,6.3902,6.4228,6.555,6.7266,6.8143,6.9021,6.9713,6.9179,6.8864,6.8605,6.8064,6.8267,6.8741,6.9045,6.9282,6.8977,6.6948,6.5696,6.458,6.3071,6.3139,6.3714,6.4444,6.5764,6.6656,6.617,6.6474,0.0,0.0,0.0,0.0,0.0,6.6761,6.8728,7.2052,7.6276,7.9507,8.0865,8.0771,8.1599,8.4022,8.2737,8.3361,8.6848,8.7545,8.8556,9.017,9.0739,9.1253,9.1803,9.1803,9.1803,9.1803,9.1803,9.1803,9.1803,9.1803,9.195,9.2281,9.2868,9.3712,9.474,9.5272,9.6135,9.7236,9.8594,9.9292,9.9769,10.1898,10.3219,10.399,4.7279,4.7309,4.7309,4.7309,4.7489,4.7938,4.8798,4.964,5.1283,5.4451,5.4617,5.5995,6.0034,6.0086,5.9907,6.0146,5.9338,5.7693,5.5089,5.4281,5.3204,5.1594,5.1146,5.0488,4.9643,4.9434,4.9101,4.8619,4.8575,4.9251,5.06,5.0813,5.1676,5.3115,5.5443,5.7171,5.8457,6.1298,6.1907,6.1008,6.1231,6.2313,6.3802,6.3579,6.4157,6.503,6.4898,6.5831,6.7331,6.824,6.896,6.9345,6.8478,6.8303,6.8232,6.7379,6.7489,6.7963,6.8199,6.847,6.8301,6.6779,6.5696,6.4715,6.3714,6.3903,6.458,6.5561,6.6779,6.7624,6.7692,6.7421,0.0,0.0,0.0,0.0,0.0,6.4941,6.7431,7.0121,7.3728,7.668,7.8311,7.8222,7.8956,8.1069,8.0005,8.0681,8.3911,8.5416,8.7014,8.8923,9.0024,9.0996,9.1803,9.1803,9.1803,9.1803,9.1803,9.1803,9.1803,9.1803,9.1803,9.184,9.2391,9.3272,9.4336,9.485,9.5878,9.7236,9.8264,9.9035,9.9769,10.1604,10.2999,10.41,4.7285,4.7239,4.7334,4.7377,4.7878,4.8319,4.8468,5.0601,5.2725,5.4221,5.6047,5.8261,6.0924,6.1224,6.1463,6.2091,6.0924,5.9126,5.6611,5.5833,5.4551,5.2636,5.2486,5.1828,5.0548,5.1026,5.0437,4.8675,5.0104,5.0919,5.1152,5.1672,5.2302,5.3188,5.6453,5.8287,5.9182,6.2956,6.4546,6.4478,6.3748,6.3057,6.2584,6.326,6.4518,6.588,6.5232,6.6057,6.7546,6.8377,6.9175,6.9601,6.8534,6.7704,6.6958,6.6024,6.5751,6.5899,6.6609,6.732,6.7523,6.6102,6.5717,6.529,6.3917,6.4681,6.6123,6.7557,6.8504,6.9485,7.0782,6.9248,6.7523,0.0,0.0,0.0,6.1673,6.4179,6.6846,6.8641,7.1537,7.4074,7.5799,7.5285,7.5527,7.7142,7.6481,7.7488,8.0791,8.3141,8.5563,8.7986,8.9674,9.0959,9.1803,9.1803,9.1803,9.1803,9.1803,9.1803,9.1803,9.1803,9.1803,9.1803,9.1803,9.2721,9.4226,9.4263,9.5658,9.7806,9.7879,9.8888,10.0393,10.12,10.2615,10.421,4.51,4.6221,4.7547,4.8611,4.8087,4.8386,5.081,5.1768,5.3384,5.6649,5.8411,6.0146,6.2331,6.2599,6.2659,6.2838,6.2061,6.1074,5.9937,5.9189,5.8381,5.7363,5.6376,5.5448,5.467,5.3354,5.3045,5.3742,5.1763,5.2073,5.4431,5.2704,5.2429,5.3513,5.654,5.8035,5.8423,6.2212,6.3781,6.3734,6.299,6.3226,6.4005,6.3646,6.4825,6.6718,6.6689,6.782,6.9345,6.9529,7.0087,7.0432,6.876,6.8085,6.7752,6.6786,6.6542,6.6576,6.6757,6.6927,6.7015,6.6609,6.5696,6.4918,6.5087,6.5446,6.5967,6.6914,6.8166,6.8707,6.7387,6.6643,6.5459,0.0,0.0,0.0,6.1379,6.2267,6.4123,6.7604,6.8749,7.0601,7.4001,7.4111,7.4661,7.6276,7.5652,7.6644,7.991,8.1269,8.3287,8.6297,8.8573,9.0391,9.1803,9.1803,9.1803,9.1803,9.1803,9.1803,9.1803,9.1803,9.1803,9.1803,9.1803,9.2391,9.3455,9.4042,9.5034,9.6245,9.7419,9.8888,10.0503,10.1898,10.3403,10.4908,4.4467,4.6103,4.8362,5.0624,5.0384,5.0481,5.2336,5.3384,5.494,5.7726,5.9518,6.0954,6.2091,6.2748,6.3108,6.3108,6.248,6.1822,6.1136,6.0745,6.0116,5.9129,5.8381,5.7274,5.5803,5.5126,5.4652,5.4396,5.3206,5.3616,5.539,5.3479,5.3089,5.4093,5.6393,5.7577,5.8103,6.1231,6.3125,6.3869,6.2482,6.2787,0.0,6.4038,6.5274,6.7118,6.7558,6.8656,7.0055,7.0795,7.105,7.0832,6.935,6.8553,6.8009,6.7092,6.6791,6.6791,6.6791,6.6791,6.6859,6.7218,6.6406,6.5764,6.6474,6.6406,6.6406,6.7151,6.7726,6.7793,6.6846,6.5595,6.3768,6.0791,5.9844,5.9722,6.0342,6.109,6.2841,6.6187,6.7567,6.9119,7.1394,7.1298,7.1872,7.3854,7.3182,7.383,7.6481,7.8987,8.1549,8.4132,8.7565,8.9987,9.1253,9.1987,9.217,9.1803,9.1803,9.1803,9.1803,9.1803,9.1803,9.1803,9.1803,9.2281,9.3161,9.3969,9.4777,9.5639,9.7273,9.8668,9.9916,10.12,10.2705,10.41,4.5334,4.6865,4.9415,5.2632,5.3408,5.3648,5.3827,5.5414,5.7034,5.8324,6.0149,6.1373,6.1373,6.2391,6.3108,6.3108,6.2569,6.1972,6.1403,6.1373,6.0835,5.9668,5.9458,5.8261,5.5867,5.6556,5.5798,5.3494,5.4503,5.5059,5.5156,5.4015,5.3856,5.4499,5.6089,5.7273,5.8186,6.0385,6.2347,6.3869,6.2144,6.2279,6.3579,6.4343,6.5537,6.7011,6.7908,6.891,7.0129,7.1621,7.1573,7.075,6.9796,6.891,6.8009,6.7092,6.6791,6.6791,6.6791,6.6791,6.6927,6.759,6.7286,6.696,6.7624,6.7252,6.696,6.7624,6.7252,6.6893,6.7252,6.4965,6.2158,5.9419,5.9539,5.984,5.946,6.0774,6.2648,6.509,6.7457,0.0,6.9045,6.8531,6.8931,7.0849,7.0153,7.0532,7.2541,7.6604,7.9925,8.228,8.6721,8.962,9.0739,9.2207,9.2611,9.195,9.184,9.1803,9.1803,9.1803,9.1803,9.1803,9.1913,9.2391,9.3161,9.4079,9.4923,9.5785,9.7199,9.8227,9.9035,9.9732,10.1017,10.2522,4.8763,4.9329,5.0223,5.2758,5.4576,5.6042,5.7094,5.8022,5.9069,6.0388,6.1852,6.2748,6.2748,6.2958,6.3108,6.3108,6.2988,6.2868,6.2778,6.2748,6.2659,6.2419,6.1343,6.0296,5.9249,5.8181,5.7323,5.6686,5.5572,5.5189,5.5552,5.4176,5.3585,5.3788,5.5886,5.7543,5.8912,6.0588,6.1129,6.096,6.1839,6.2719,6.3579,6.4343,6.5142,6.614,6.7655,6.8842,6.9794,7.0073,7.0093,6.9761,6.8779,6.8343,6.8009,6.7092,6.6791,6.6791,6.6791,6.6791,6.6825,6.696,6.6893,6.6825,6.696,6.6893,6.6825,6.696,6.6893,6.6284,6.4559,6.2313,6.0317,5.9182,5.9115,5.962,6.0878,6.1947,6.3498,6.592,6.7772,6.9155,6.9816,7.0367,7.0258,6.9295,6.9059,7.0267,7.3261,7.4833,7.7942,8.3034,8.595,8.8757,9.1546,9.1877,9.2317,9.2868,9.2134,9.1803,9.1803,9.1803,9.1803,9.184,9.2574,9.2978,9.3198,9.4684,9.5768,9.6539,9.6795,9.7383,9.8117,9.8264,9.9328,10.0907,5.0992,5.0907,5.1392,5.5082,5.6825,5.8141,5.9488,6.0535,6.1164,6.1134,6.1672,6.2061,6.2061,6.266,6.3108,6.3108,6.3108,6.3108,6.3108,6.3108,6.2958,6.26,6.1642,6.0625,5.9608,5.8653,5.7772,5.6929,5.587,5.5268,5.5108,5.4025,5.3518,5.3585,5.5412,5.7255,5.9047,5.9791,6.0351,6.0791,6.1535,6.2516,6.3639,6.4845,6.5779,6.6652,6.835,6.8947,6.9002,6.9512,6.935,6.8835,6.8343,6.7886,6.7393,6.6925,6.6791,6.6791,6.6791,6.6791,6.6893,6.7286,6.7083,6.6893,6.7286,6.7062,6.6791,6.6791,6.6791,6.6216,6.441,6.255,6.1163,6.0825,6.1161,6.1926,6.3133,6.4483,6.5769,6.6937,6.8874,6.9626,6.8291,6.9267,6.9315,6.7671,6.7426,6.847,7.1011,7.3018,7.6366,8.1362,8.4682,8.7509,8.9895,9.162,9.2464,9.2427,9.1987,9.1803,9.1803,9.1803,9.1803,9.1803,9.2244,9.2684,9.3235,9.4831,9.5969,9.6685,9.6685,9.7199,9.7953,9.8374,9.8998,9.9842,5.2591,5.2561,5.3269,5.736,5.889,5.9877,6.0954,6.2241,6.272,6.1672,6.1523,6.1523,6.1523,6.245,6.3108,6.3108,6.3108,6.3108,6.3108,6.3108,6.2808,6.2121,6.1713,6.0795,5.9318,5.9026,5.8071,5.6338,5.606,5.5412,5.4363,5.3923,5.3653,5.3551,5.4887,5.6511,5.8337,5.881,5.9791,6.1061,6.14,6.2313,6.3645,6.5141,6.627,6.7279,6.8609,6.8685,6.8285,6.8854,6.8569,6.7891,6.7891,6.7414,6.6791,6.6791,6.6791,6.6791,6.6791,6.6791,6.6927,6.7523,6.7252,6.6927,6.7523,6.7218,6.6791,6.6791,6.6677,6.617,6.485,6.3632,6.2821,6.2651,6.3369,6.4312,6.5266,6.6998,6.8135,6.8162,7.0144,7.0272,6.6983,6.7644,6.7553,6.5777,6.5422,6.624,6.8438,7.1031,7.4538,7.9124,8.3177,8.6224,8.8169,9.1106,9.2391,9.206,9.1877,9.1803,9.1803,9.1803,9.1803,9.1803,9.217,9.2905,9.3969,9.5254,9.6135,9.6685,9.6685,9.7089,9.7713,9.8374,9.8814,9.9181,5.3498,5.5069,5.6526,5.7877,5.964,6.0956,6.1104,6.2241,6.3048,6.2928,6.2928,6.2928,6.2928,6.3018,6.3108,6.3108,6.3108,6.3108,6.3108,6.3108,6.2808,6.2121,6.2561,6.1879,5.9849,6.0096,5.8859,5.6126,5.6519,5.5649,5.3619,5.4228,5.4126,5.3551,5.4329,5.5209,5.6139,5.8134,5.9453,6.0317,6.1738,6.2787,6.3599,6.443,6.5715,6.7088,6.7093,6.7561,6.8087,6.7312,6.7009,6.6925,6.6925,6.6875,6.6791,6.6791,6.6791,6.6791,6.6791,6.6791,6.6825,6.6893,6.6859,6.6825,6.6893,6.6859,6.6791,6.6791,6.6271,6.5561,6.4749,6.4478,6.4174,6.3531,6.4017,6.5048,6.6588,6.8414,6.9624,6.9589,7.1258,7.1109,6.7899,6.7012,6.5646,6.3314,6.3015,6.4256,6.7362,6.8638,7.1775,7.7368,8.1509,8.5123,8.8169,8.9968,9.1546,9.2978,9.217,9.1803,9.1803,9.1803,9.1803,9.1877,9.3418,9.4923,9.6355,9.6539,9.6649,9.6685,9.6685,9.6759,9.6832,9.6906,9.786,9.9035,5.604,5.6569,5.7361,5.9513,6.0595,6.1373,6.2181,6.2778,6.3108,6.3108,6.3108,6.3108,6.3108,6.3108,6.3108,6.3108,6.3108,6.3108,6.3108,6.3423,6.3532,6.3257,6.348,6.3003,6.1691,6.083,5.9189,5.6704,5.6757,5.5886,5.416,5.4482,5.4448,5.4194,5.4938,5.5919,5.7137,5.893,6.0114,6.0926,6.1975,6.2584,6.3035,6.4791,6.5876,6.6617,6.8056,6.8397,6.8131,6.7767,6.725,6.6791,6.6791,6.6508,6.6237,6.6656,6.6508,6.6237,6.6677,6.6791,6.6791,6.6791,6.6791,6.6791,6.6791,6.6791,6.6791,6.6791,6.6203,6.573,6.5899,6.5561,6.5459,6.6034,6.6896,6.787,6.8937,7.0361,7.0886,6.9905,6.9683,6.8513,6.568,6.4672,6.4148,6.4106,6.4107,6.5141,6.7442,6.8382,7.1443,7.7127,7.9874,8.303,8.6701,8.8812,9.0702,9.2317,9.1473,9.1326,9.1803,9.1803,9.1803,9.1877,9.3051,9.4226,9.529,9.5768,9.6282,9.6685,9.6685,9.6685,9.6759,9.7236,9.753,9.7676,5.7131,5.735,5.8087,6.0645,6.1433,6.2002,6.2958,6.3108,6.3108,6.3108,6.3108,6.3108,6.3108,6.3108,6.3108,6.3108,6.3108,6.325,6.3677,6.408,6.4319,6.4308,6.447,6.3997,6.2822,6.137,5.9669,5.7641,5.7092,5.6055,5.4617,5.4803,5.5141,5.5599,5.6341,5.7491,5.8964,6.025,6.1366,6.2313,6.2821,6.3024,6.3258,6.5181,6.6075,6.655,6.8232,6.8588,6.815,6.7906,6.7353,6.6791,6.6791,6.644,6.6136,6.6643,6.644,6.6136,6.6677,6.6791,6.6791,6.6791,6.6791,6.6791,6.6791,6.6791,6.6791,6.6791,6.6406,6.6237,6.6981,6.6711,6.6745,6.803,6.9026,6.9831,7.0347,7.1379,7.1588,7.0229,6.8866,6.6971,6.4232,6.3655,6.3718,6.4322,6.5516,6.6743,6.7954,6.8814,7.127,7.5747,7.8883,8.1982,8.5049,8.7729,8.9858,9.1436,9.0886,9.1033,9.1803,9.1803,9.195,9.2207,9.2831,9.3565,9.4373,9.518,9.5822,9.6392,9.6612,9.6685,9.6759,9.7346,9.7346,9.7089,5.5897,5.7397,5.919,6.0822,6.2181,6.3078,6.3108,6.3108,6.3108,6.3108,6.3108,6.3108,6.3108,6.3108,6.3108,6.3108,6.3108,6.3677,6.5005,6.5083,6.508,6.508,6.558,6.4887,6.2738,6.1763,6.0535,5.8961,5.7525,5.6055,5.4617,5.5344,5.6443,5.79,5.8626,5.9825,6.1298,6.2042,6.3226,6.4546,6.458,6.458,6.4647,6.5412,6.6305,6.7069,6.6889,6.74,6.8068,6.712,6.6812,6.6791,6.6791,6.6791,6.6791,6.6791,6.6791,6.6791,6.6791,6.6791,6.6791,6.6791,6.6791,6.6791,6.6791,6.6791,6.6791,6.6791,6.6791,6.7015,6.776,6.7895,6.8132,6.8944,6.971,7.0184,7.0206,7.1176,7.1599,7.0803,6.9612,6.7614,6.442,6.4811,6.4578,6.2951,6.6559,6.882,6.8791,6.9602,7.0844,7.2496,7.8809,8.259,8.3418,8.6628,8.9014,9.0629,9.0592,9.1033,9.1803,9.1803,9.2281,9.3088,9.3088,9.3565,9.4373,9.518,9.5492,9.5565,9.6392,9.6685,9.6685,9.6722,9.7199,9.775,5.6965,5.7974,5.9364,6.1418,6.251,6.3108,6.3108,6.3108,6.3108,6.3108,6.3108,6.3108,6.3108,6.3108,6.3108,6.3108,6.3958,6.462,6.5056,6.6357,6.6923,6.6415,6.6932,6.6237,6.4024,6.3195,6.1549,5.9013,5.9032,5.8558,5.7593,5.7829,5.8472,5.9438,6.0216,6.167,6.3565,6.3802,6.4444,6.529,6.4783,6.4613,6.4681,6.5425,6.5888,6.6288,6.7387,6.7541,6.7291,6.7662,6.7332,6.6791,6.6791,6.644,6.6136,6.6656,6.644,6.617,6.6677,6.6791,6.6791,6.6791,6.6791,6.6791,6.6791,6.7184,6.7726,6.8267,6.8368,6.8436,6.8673,6.9113,6.9553,6.9789,7.0466,7.1002,7.1142,7.0644,6.9814,6.8593,6.7259,6.5582,6.3429,6.4481,6.5765,6.6866,6.8151,6.8898,6.8893,7.068,7.2459,7.4096,7.8332,8.2019,8.5013,8.7142,8.9271,9.14,9.0849,9.1033,9.1803,9.1803,9.195,9.2207,9.2207,9.2684,9.3529,9.4336,9.4666,9.4813,9.6171,9.6355,9.5951,9.6502,9.6869,9.7052,5.7743,5.8081,5.8979,6.166,6.2659,6.3108,6.3108,6.3108,6.3108,6.3108,6.3108,6.3108,6.3108,6.3108,6.3108,6.3108,6.4348,6.5328,6.5861,6.7536,6.8418,6.8219,6.8011,6.6981,6.5053,6.3768,6.2042,5.9859,5.9742,5.9607,5.9419,5.9419,6.0283,6.1806,6.2313,6.3632,6.5425,6.5425,6.5696,6.6068,6.5628,6.5425,6.5493,6.5933,6.6102,6.6274,6.7289,6.7291,6.6883,6.7461,6.7271,6.6791,6.6791,6.6474,6.6203,6.6677,6.6474,6.6203,6.6656,6.6791,6.6791,6.6791,6.7015,6.7286,6.7569,6.803,6.8504,6.9011,6.9113,6.918,6.9451,6.9891,7.0297,7.0567,7.1316,7.1713,7.1207,7.0524,6.9513,6.8042,6.714,6.5985,6.4334,6.6242,6.7931,6.8811,7.0279,7.0866,7.0293,7.1982,7.356,7.4867,7.8662,8.2039,8.4866,8.7105,8.9124,9.0922,9.0996,9.1326,9.1803,9.1803,9.1803,9.1803,9.1803,9.2097,9.2684,9.3822,9.4116,9.4042,9.5951,9.6208,9.5602,9.6392,9.6685,9.6685,5.8284,5.793,5.8384,6.1635,6.2689,6.3108,6.3108,6.3108,6.3108,6.3108,6.3108,6.3108,6.3108,6.3108,6.3108,6.3108,6.4401,6.5835,6.7241,6.8601,6.9616,7.0185,6.8774,6.7286,6.5818,6.37,6.2245,6.1467,5.996,5.9607,6.025,6.025,6.1806,6.4613,6.4613,6.5425,6.6791,6.6791,6.6791,6.6791,6.6791,6.6791,6.6791,6.6791,6.6791,6.6812,6.6875,6.6875,6.6812,6.6896,6.6854,6.6791,6.6791,6.6791,6.6791,6.6791,6.6791,6.6791,6.6791,6.6791,6.6791,6.6859,6.7455,6.8199,6.8977,6.918,6.918,6.9248,6.9248,6.9451,7.0128,7.0285,7.0522,7.1288,7.2138,7.2173,7.064,7.0736,7.0382,6.8667,6.8823,6.8408,6.6806,6.9509,7.0793,6.9325,7.2701,7.4169,7.2753,7.3487,7.4331,7.5124,7.98,8.2737,8.3638,8.6738,8.872,8.9583,9.1069,9.1803,9.1803,9.1803,9.1803,9.1803,9.1803,9.1803,9.1913,9.3529,9.3786,9.3345,9.5694,9.6171,9.5602,9.6392,9.6685,9.6685,5.924,5.9263,5.9909,6.2403,6.2988,6.3108,6.3108,6.3108,6.3108,6.3108,6.3108,6.3108,6.3108,6.3108,6.3108,6.3108,6.5301,6.7266,6.865,7.0019,7.0625,7.0229,6.9316,6.8098,6.6576,6.5459,6.4275,6.297,6.2042,6.167,6.1859,6.1859,6.2821,6.4613,6.4613,6.5425,6.6791,6.6791,6.6791,6.6791,6.6791,6.6791,6.6791,6.6791,6.6791,6.6883,6.7622,6.7414,6.6904,6.7642,6.7393,6.6791,6.6791,6.6791,6.6791,6.6791,6.6791,6.6791,6.6791,6.6791,6.6948,6.7489,6.8233,6.9011,6.9755,6.9925,7.0094,7.0669,7.0804,7.0816,7.1007,7.1041,7.1364,7.2287,7.214,7.1647,7.0946,7.0933,6.9989,6.7317,6.9214,7.0096,6.8481,7.0697,7.2312,7.2532,7.345,7.4074,7.4316,7.5674,7.6848,7.7708,8.1232,8.4078,8.6133,8.8115,8.984,9.1253,9.162,9.1803,9.1803,9.1803,9.1803,9.1803,9.1803,9.1803,9.1877,9.2941,9.3272,9.3272,9.507,9.5675,9.5602,9.6392,9.6685,9.6685,5.9992,6.005,6.0702,6.2758,6.3108,6.3108,6.3108,6.3108,6.3108,6.3108,6.2838,6.2659,6.2659,6.2361,6.2435,6.3044,6.5591,6.7496,6.8256,7.017,7.0973,7.0251,6.9485,6.8368,6.6825,6.6068,6.5121,6.4005,6.3599,6.3226,6.2888,6.2888,6.3328,6.4106,6.4444,6.5222,6.6305,6.6677,6.6791,6.6791,6.6791,6.6791,6.6791,6.6791,6.6791,6.6875,6.7393,6.7209,6.6896,6.7393,6.7223,6.6791,6.6791,6.6791,6.6791,6.6791,6.6791,6.6859,6.7218,6.732,6.7557,6.8673,6.9282,6.9789,7.0534,7.0703,7.0804,7.1222,7.1289,7.1434,7.1917,7.1969,7.2197,7.2839,7.2651,7.1942,7.0652,7.0858,7.0412,6.8367,7.033,7.1651,7.1138,7.2936,7.4184,7.4258,7.4918,7.5527,7.5968,7.7546,7.8662,7.914,8.1929,8.4372,8.6444,8.8409,9.0207,9.1803,9.1803,9.1803,9.1803,9.1803,9.1803,9.1803,9.1803,9.1803,9.1877,9.2758,9.2868,9.2721,9.474,9.5051,9.4593,9.6135,9.6465,9.6208,6.09,6.09,6.1348,6.2846,6.3108,6.3108,6.3108,6.3108,6.3108,6.3108,6.2539,6.2091,6.2091,6.1493,6.1544,6.2725,6.5301,6.6978,6.7149,6.9546,7.0703,7.006,6.9316,6.8301,6.6994,6.6237,6.5493,6.4783,6.4783,6.4377,6.3646,6.3545,6.3545,6.368,6.4343,6.5019,6.5751,6.6508,6.6791,6.6791,6.6791,6.6791,6.6791,6.6791,6.6791,6.6791,6.6791,6.6791,6.6791,6.6791,6.6791,6.6791,6.6791,6.6791,6.6791,6.6791,6.6791,6.6948,6.7557,6.7895,6.8402,6.9845,7.0285,7.0534,7.1176,7.1289,7.1289,7.1289,7.1412,7.1764,7.2645,7.2921,7.3108,7.3302,7.3257,7.2431,7.0179,7.0799,7.1123,7.022,7.1835,7.3303,7.4015,7.5395,7.6056,7.5491,7.6702,7.7546,7.7656,7.914,8.011,8.033,8.2443,8.4462,8.6334,8.8372,9.0207,9.1803,9.1803,9.1803,9.1803,9.1803,9.1803,9.1803,9.1803,9.1803,9.184,9.2611,9.2537,9.2207,9.4446,9.4483,9.3565,9.5841,9.6208,9.5602,6.2701,6.2701,6.2788,6.305,6.3108,6.3108,6.3108,6.3108,6.3108,6.3108,6.2539,6.2091,6.2091,6.1493,6.1188,6.138,6.3886,6.59,6.7034,6.8562,6.9383,6.9282,6.8504,6.7963,6.7726,6.7015,6.6271,6.5527,6.5527,6.5155,6.441,6.3781,6.3815,6.4444,6.4546,6.5019,6.5751,6.6508,6.6791,6.6791,6.6791,6.6791,6.6791,6.6791,6.6791,6.6791,6.6791,6.6791,6.6791,6.6791,6.6791,6.6791,6.6791,6.6791,6.6791,6.6791,6.6791,6.6825,6.6927,6.7929,6.9113,6.9958,7.0669,7.1176,7.1255,7.1289,7.1289,7.1289,7.2004,7.2624,7.2756,7.3492,7.4137,7.4346,7.3255,7.1829,7.0266,7.1346,7.1762,7.0293,7.3303,7.5579,7.5726,7.6555,7.7362,7.7965,7.8259,7.8699,7.9376,8.0314,8.1452,8.2794,8.3875,8.584,8.8812,8.9216,9.0207,9.1803,9.1803,9.1803,9.1803,9.1803,9.1803,9.1803,9.1803,9.1803,9.1803,9.195,9.2354,9.3015,9.4079,9.4336,9.4299,9.6061,9.6208,9.5602,6.188,6.2468,6.2817,6.188,6.2497,6.3108,6.3108,6.3108,6.3108,6.3108,6.2181,6.1553,6.1553,6.0655,6.0027,6.0027,6.2076,6.3814,6.4822,6.7513,6.891,6.847,6.8098,6.7726,6.732,6.696,6.6643,6.6305,6.6305,6.5933,6.5189,6.485,6.4647,6.4613,6.5019,6.5358,6.5751,6.6508,6.6791,6.6791,6.6791,6.6791,6.6791,6.6791,6.7049,6.7354,6.6927,6.7083,6.7354,6.6927,6.6791,6.6791,6.6791,6.7062,6.7387,6.7387,6.7692,6.8064,6.8064,6.9147,7.0364,7.0703,7.1075,7.1289,7.1289,7.1732,7.212,7.212,7.29,7.3753,7.4329,7.4794,7.5188,7.5358,7.3666,7.2273,7.2086,7.1945,7.2041,7.2642,7.5087,7.6922,7.7414,7.8185,7.8809,7.9213,7.9653,8.0057,8.0424,8.1636,8.283,8.4022,8.527,8.6811,8.872,8.9179,8.9987,9.1179,9.1583,9.1803,9.1803,9.1803,9.1803,9.1803,9.1803,9.1803,9.1803,9.1803,9.2024,9.2464,9.3345,9.3382,9.3161,9.4813,9.4887,9.4373,6.1288,6.188,6.2204,6.1258,6.2233,6.3108,6.3108,6.3108,6.3108,6.3108,6.2061,6.1283,6.1134,6.0057,5.9219,5.889,6.089,6.2332,6.274,6.6422,6.8301,6.7658,6.7658,6.7387,6.6791,6.6791,6.6791,6.6791,6.6791,6.6508,6.5933,6.5784,6.5392,6.4884,6.5446,6.5717,6.5751,6.6508,6.6791,6.6791,6.6791,6.6791,6.6825,6.7015,6.7421,6.7861,6.7489,6.7692,6.8098,6.7523,6.7332,6.732,6.7117,6.759,6.8132,6.7963,6.8605,6.9383,6.9553,7.0331,7.1109,7.1255,7.1289,7.1379,7.1612,7.2236,7.2859,7.309,7.3947,7.4885,7.5649,7.5993,7.6141,7.6097,7.4404,7.3193,7.3648,7.2789,7.2885,7.494,7.6592,7.7949,7.8809,7.9633,8.0147,8.033,8.0938,8.1452,8.1819,8.283,8.3858,8.4866,8.6261,8.7455,8.8463,8.9069,8.9913,9.0886,9.151,9.1803,9.1803,9.1803,9.1803,9.1803,9.1803,9.1803,9.1803,9.1803,9.1803,9.1877,9.2758,9.2574,9.1987,9.3675,9.3786,9.3308,6.2613,6.1703,6.1169,6.2642,6.2991,6.3108,6.3108,6.3108,6.3108,6.3108,6.245,6.1792,6.1194,6.0446,5.9518,5.8264,6.1071,6.2676,6.2124,6.5161,6.6927,6.6859,6.6859,6.6859,6.6791,6.6791,6.6791,6.6791,6.6791,6.6757,6.669,6.6,6.5683,6.5615,6.5683,6.5717,6.5751,6.6508,6.6791,6.6791,6.6791,6.6791,6.6859,6.7557,6.7861,6.7996,6.8673,6.8977,6.9011,6.8944,6.8944,6.8808,6.8064,6.8368,6.8876,6.8132,6.8944,7.0263,7.0951,7.0737,7.0432,7.1142,7.1289,7.1546,7.2477,7.2735,7.305,7.3986,7.4976,7.5701,7.577,7.6563,7.6955,7.6225,7.5322,7.4478,7.378,7.4258,7.4977,7.5909,7.7488,7.8809,7.9633,8.0424,8.1232,8.1966,8.2076,8.2774,8.4278,8.3748,8.4115,8.5654,8.6554,8.7748,8.929,8.9363,9.017,9.1693,9.1767,9.1803,9.1803,9.1803,9.1803,9.1803,9.1803,9.1803,9.1803,9.1803,9.1803,9.1877,9.2758,9.2574,9.1987,9.3675,9.3786,9.3235,5.8418,5.9506,6.0389,5.9992,6.1673,6.3108,6.3108,6.3108,6.3108,6.3108,6.2151,6.1403,6.1134,6.0146,5.9279,5.877,6.0465,6.1869,6.258,6.4387,6.5844,6.6757,6.6791,6.6791,6.6791,6.6791,6.6791,6.6791,6.7393,6.7648,6.7648,6.7393,6.7255,6.7236,6.665,6.6373,6.6406,6.6677,6.6791,6.6791,6.6791,6.7062,6.7523,6.7793,6.8504,6.9316,6.9147,6.9383,6.9688,6.9248,6.9113,6.9045,6.8741,6.918,6.9789,6.9958,7.0432,7.0939,7.1222,7.1109,7.0973,7.1222,7.1289,7.1534,7.2582,7.3272,7.4005,7.5012,7.6027,7.6745,7.6745,7.749,7.7855,7.6995,7.6151,7.5711,7.5894,7.5763,7.613,7.7488,7.9103,8.0204,8.0498,8.1269,8.2076,8.2884,8.2957,8.3214,8.3821,8.4058,8.4903,8.6481,8.6848,8.7528,8.8629,8.9143,8.995,9.1069,9.1546,9.1803,9.1803,9.1803,9.1803,9.1803,9.1803,9.1803,9.1803,9.1803,9.1803,9.184,9.217,9.2097,9.1877,9.2501,9.2574,9.2391,5.6342,5.7664,5.8859,5.8793,6.072,6.2468,6.3021,6.3108,6.3018,6.2808,6.2002,6.1253,6.0835,5.9967,5.9249,5.883,6.0403,6.1685,6.23,6.3989,6.5493,6.6757,6.6576,6.6576,6.6791,6.6791,6.6946,6.7264,6.7871,6.8362,6.8666,6.8343,6.8189,6.815,6.7223,6.6791,6.6791,6.6791,6.6791,6.6791,6.6791,6.7252,6.7929,6.8166,6.9079,7.0184,6.9891,7.0128,7.0466,6.9958,6.9789,6.9755,6.9519,6.9789,7.0331,7.1075,7.1289,7.1289,7.1289,7.1289,7.1289,7.1289,7.1546,7.2034,7.3064,7.4043,7.5048,7.6061,7.6824,7.7399,7.7656,7.8222,7.8479,7.8133,7.7635,7.7451,7.7986,7.7598,7.7781,7.9176,8.0036,8.0602,8.0841,8.1588,8.2392,8.3195,8.3597,8.3785,8.3785,8.4535,8.549,8.6591,8.6867,8.7399,8.8206,8.8996,8.9803,9.0629,9.1436,9.1803,9.1803,9.1803,9.1803,9.1803,9.1803,9.1803,9.1803,9.1803,9.1803,9.1803,9.1803,9.1803,9.1803,9.1803,9.1803,9.1877,5.7624,5.6596,5.6472,5.9874,6.048,6.108,6.2846,6.3108,6.2868,6.2181,6.2091,6.1583,6.0236,6.0114,5.9548,5.8231,6.1127,6.242,6.1035,6.3932,6.6034,6.6757,6.6102,6.6034,6.6757,6.6791,6.725,6.8189,6.8208,6.8723,6.969,6.8685,6.8208,6.815,6.7223,6.6791,6.6791,6.6791,6.6791,6.6791,6.6791,6.7252,6.7996,6.8808,6.9553,7.0297,7.1041,7.1289,7.1289,7.1289,7.1289,7.1154,7.0432,7.0217,7.0331,7.1109,7.1289,7.1289,7.1289,7.1289,7.1289,7.1289,7.2056,7.305,7.4062,7.5066,7.6077,7.7066,7.7273,7.7546,7.8442,7.8589,7.8883,7.9669,7.9816,7.9816,7.9816,7.9816,8.011,8.0901,8.0084,7.9721,8.0514,8.1327,8.2158,8.2935,8.4002,8.4609,8.4609,8.5343,8.5783,8.58,8.6591,8.7399,8.8169,8.8996,8.9803,9.0629,9.1436,9.1803,9.1803,9.1803,9.1803,9.1803,9.1803,9.1803,9.1803,9.1803,9.1803,9.1803,9.1803,9.1803,9.1803,9.1803,9.1803,9.1803,5.4325,5.4942,5.6082,5.8355,5.9718,6.108,6.2846,6.3108,6.3048,6.2838,6.1972,6.1253,6.0864,5.9967,5.9593,6.0109,6.1411,6.2802,6.4183,6.5173,6.6034,6.6757,6.6588,6.6555,6.6791,6.6791,6.725,6.8189,6.891,6.9386,6.9708,6.9386,6.8873,6.815,6.7223,6.6791,6.6791,6.6791,6.6791,6.6846,6.7354,6.803,6.8808,6.9586,7.0331,7.1007,7.1222,7.1289,7.1289,7.1289,7.1289,7.1255,7.1041,7.0973,7.1041,7.1222,7.1289,7.1289,7.1289,7.1289,7.1289,7.1289,7.2056,7.305,7.4062,7.5066,7.5891,7.6197,7.6808,7.7338,7.745,7.8537,7.9522,7.9779,8.0277,8.0424,7.989,8.0277,8.0718,8.0975,8.1223,8.1476,8.1678,8.2445,8.303,8.3249,8.3577,8.4005,8.4572,8.4278,8.4646,8.5747,8.604,8.6554,8.7344,8.8702,8.9803,9.0629,9.1436,9.1803,9.1803,9.1803,9.1803,9.1803,9.1803,9.1803,9.1803,9.1803,9.1803,9.1803,9.1803,9.1803,9.1803,9.1803,9.1803,9.1803,5.2895,5.3708,5.4975,5.6693,5.8387,6.0085,6.1821,6.2642,6.2928,6.2361,6.1822,6.1194,6.0416,5.9817,5.9875,6.0892,6.2021,6.3656,6.5977,6.5886,6.6034,6.6757,6.6791,6.6791,6.6791,6.6791,6.725,6.8189,6.8817,6.9296,6.9708,6.9277,6.8779,6.815,6.7223,6.6791,6.6791,6.6791,6.6791,6.6859,6.759,6.8368,6.918,6.9925,7.0669,7.1289,7.1289,7.1289,7.1289,7.1289,7.1289,7.1289,7.1289,7.1289,7.1289,7.1289,7.1289,7.1289,7.1289,7.1289,7.1289,7.1289,7.2056,7.305,7.4062,7.4757,7.5334,7.5718,7.5959,7.6297,7.6903,7.8182,7.943,8.0156,8.0938,8.1305,8.0807,8.1158,8.1489,8.1489,8.1543,8.1559,8.1559,8.2289,8.3083,8.3805,8.3564,8.3601,8.4095,8.3968,8.4315,8.527,8.593,8.6518,8.6978,8.8262,8.9326,9.0134,9.1253,9.1803,9.1803,9.1803,9.1803,9.1803,9.1803,9.1803,9.1803,9.1803,9.1803,9.1803,9.1803,9.1803,9.1803,9.1803,9.1803,9.1803,5.2895,5.2895,5.3427,5.5115,5.6828,5.8571,6.0237,6.1969,6.266,6.1433,6.1762,6.1373,5.9488,5.9757,6.0409,6.1102,6.293,6.4805,6.6593,6.6136,6.6068,6.6677,6.6757,6.6791,6.6791,6.6791,6.725,6.8189,6.8189,6.8666,6.9565,6.8629,6.8185,6.8048,6.7182,6.6825,6.6893,6.6893,6.6927,6.7062,6.7793,6.8538,6.9282,7.0026,7.0737,7.1289,7.1289,7.1289,7.1289,7.1289,7.1289,7.1289,7.1289,7.1289,7.1289,7.1289,7.1289,7.1289,7.1289,7.1289,7.1289,7.1289,7.1969,7.2941,7.3963,7.4234,7.4535,7.5369,7.4938,7.4946,7.666,7.7718,7.8935,8.0793,8.1709,8.2186,8.2186,8.2186,8.2186,8.2186,8.1353,8.075,8.075,8.1418,8.2594,8.4468,8.3801,8.3308,8.3381,8.4022,8.4462,8.4609,8.604,8.6831,8.6978,8.7876,8.8683,8.9436,9.0959,9.173,9.1803,9.1803,9.1803,9.1803,9.1803,9.1803,9.1803,9.1803,9.1803,9.1803,9.1803,9.1803,9.1803,9.1803,9.1803,9.1803,5.282,5.2895,5.3427,5.5115,5.6828,5.8571,6.0237,6.1969,6.3018,6.2718,6.2331,6.1732,6.0775,6.0326,6.0753,6.2404,6.4759,6.6099,6.5967,6.6339,6.6373,6.5967,6.6508,6.6791,6.6791,6.6791,6.725,6.8189,6.8189,6.8339,6.8604,6.8339,6.7807,6.7078,6.6883,6.7117,6.7658,6.7658,6.803,6.8673,6.9383,6.9789,7.0026,7.077,7.1176,7.1289,7.1289,7.1289,7.1289,7.1289,7.1289,7.1289,7.1289,7.1289,7.1289,7.1289,7.1289,7.1289,7.1289,7.1289,7.1289,7.1289,7.1457,7.1895,7.29,7.3714,7.4139,7.3556,7.4382,7.55,7.6586,7.806,7.9751,8.1652,8.2076,8.2186,8.2186,8.2186,8.2186,8.2186,8.1985,8.1869,8.1869,8.2015,8.2794,8.4482,8.3287,8.2737,8.3381,8.2957,8.3287,8.4572,8.4939,8.5747,8.6978,8.8409,8.9216,8.94,9.0391,9.1179,9.1803,9.1803,9.1803,9.1803,9.1803,9.1803,9.1803,9.1803,9.1803,9.1803,9.1803,9.1803,9.1803,9.1803,9.1803,9.1803,5.2427,5.2528,5.2876,5.4004,5.6304,5.832,5.9166,6.1466,6.2868,6.2211,6.2121,6.1613,6.0296,6.0657,6.1795,6.3726,6.5668,6.6508,6.5751,6.6068,6.6102,6.5717,6.6068,6.644,6.6791,6.6791,6.722,6.8035,6.7692,6.7953,6.8672,6.7884,6.7455,6.732,6.732,6.7557,6.7929,6.8301,6.8707,6.918,6.9891,7.0217,7.0285,7.1041,7.1289,7.1289,7.1289,7.1289,7.1289,7.1289,7.1289,7.1289,7.1289,7.1289,7.1289,7.1289,7.1289,7.1289,7.1289,7.1289,7.1289,7.1289,7.1289,7.1534,7.2582,7.2818,7.2873,7.2797,7.313,7.3823,7.5128,7.6892,7.871,8.0574,8.1629,8.2186,8.2186,8.2186,8.2186,8.2186,8.2186,8.2186,8.2186,8.2186,8.2553,8.3398,8.2663,8.2553,8.3344,8.3361,8.3911,8.5123,8.5563,8.6151,8.6978,8.7822,8.8629,8.94,9.0592,9.14,9.1803,9.1803,9.1803,9.1803,9.1803,9.1803,9.1803,9.1803,9.1803,9.1803,9.1803,9.1803,9.1803,9.1803,9.1803,9.1803,5.185,5.2051,5.2269,5.2928,5.5773,5.8072,5.8244,6.0904,6.251,6.1433,6.1868,6.1526,5.963,6.1144,6.2957,6.4556,6.5883,6.6305,6.5561,6.5493,6.5459,6.5324,6.5581,6.5967,6.6609,6.6724,6.7117,6.7726,6.7117,6.7434,6.8673,6.74,6.7151,6.7726,6.7827,6.7963,6.8166,6.8944,6.935,6.9519,7.0128,7.0398,7.0432,7.1075,7.1289,7.1289,7.1289,7.1289,7.1289,7.1289,7.1289,7.1289,7.1289,7.1289,7.1289,7.1289,7.1289,7.1289,7.1289,7.1289,7.1289,7.1289,7.1289,7.1523,7.2364,7.1917,7.1546,7.2385,7.1976,7.1974,7.3626,7.5303,7.7073,7.9089,8.0715,8.1855,8.217,8.2186,8.2186,8.2186,8.2186,8.2186,8.2186,8.2186,8.226,8.237,8.2406,8.27,8.3344,8.4168,8.4903,8.5563,8.6371,8.6885,8.6978,8.7124,8.7932,8.9436,9.0739,9.1546,9.1803,9.1803,9.1803,9.1803,9.1803,9.1803,9.1803,9.1803,9.1803,9.1803,9.1803,9.1803,9.1803,9.1803,9.1803,9.1803,5.1272,5.1774,5.2421,5.3335,5.6018,5.8282,5.916,6.0969,6.2181,6.2002,6.2516,6.2293,6.082,6.2405,6.3664,6.3934,6.5112,6.5527,6.4783,6.4749,6.4478,6.3815,6.5019,6.5751,6.5852,6.6474,6.6859,6.6927,6.6859,6.6893,6.7117,6.6893,6.6859,6.696,6.7624,6.8301,6.8977,6.9722,7.0432,7.0985,7.1109,7.1154,7.1176,7.1255,7.1289,7.1289,7.1289,7.1289,7.1289,7.1289,7.1289,7.1289,7.1289,7.1289,7.1289,7.1289,7.1289,7.1289,7.1289,7.1289,7.1289,7.1289,7.1289,7.1334,7.1479,7.1401,7.1334,7.1479,7.1898,7.2609,7.3758,7.4719,7.6237,7.9035,7.9682,8.0413,8.1978,8.2186,8.2186,8.2186,8.2186,8.2186,8.2186,8.2186,8.248,8.3197,8.3234,8.3271,8.3381,8.4168,8.4646,8.4756,8.5527,8.6297,8.6978,8.7692,8.85,8.94,8.962,9.0427,9.1803,9.1803,9.1803,9.1803,9.1803,9.1803,9.1803,9.1803,9.1803,9.1803,9.1803,9.1803,9.1803,9.1803,9.1803,9.1803,5.0695,5.1703,5.2712,5.348,5.6193,5.843,5.8862,6.1033,6.2472,6.2106,6.2535,6.2531,6.1547,6.2511,6.3473,6.4173,6.4765,6.4783,6.4038,6.4005,6.3849,6.3511,6.4512,6.5256,6.5683,6.644,6.6791,6.6791,6.6791,6.7231,6.8064,6.7197,6.6994,6.7421,6.776,6.8335,6.9147,6.9891,7.0635,7.1289,7.1289,7.1289,7.1289,7.1289,7.1289,7.1289,7.1289,7.1289,7.1289,7.1289,7.1289,7.1289,7.1289,7.1289,7.1289,7.1289,7.1289,7.1289,7.1289,7.1289,7.1289,7.1289,7.1289,7.1289,7.1289,7.1289,7.1289,7.1289,7.1582,7.2045,7.2964,7.3835,7.5378,7.8108,7.907,8.0128,8.1925,8.2186,8.2186,8.2186,8.2186,8.2186,8.2186,8.2627,8.303,8.3381,8.3381,8.3785,8.4682,8.4646,8.5013,8.593,8.6297,8.6628,8.6978,8.7344,8.7949,8.8757,8.9179,9.0244,9.1767,9.1326,9.1363,9.1803,9.1803,9.1803,9.1803,9.1803,9.1803,9.1803,9.1803,9.1803,9.1803,9.1803,9.1803,9.1803]}]]